[[{"header":{"parameterUnit":"m.s-1","parameterCategory":1,"la1":30.6,"la2":28.766,"lo1":-90.7593,"lo2":-88.6598,"dx":0.0162,"dy":0.0183,"nx":116,"ny":114,"refTime":"2022-11-23T18:00:00:Z","depth":0,"parameterNumber":2,"parameterNumberName":"U-component_of_WINDS"},"data":[0.0,0.0,0.0,0.0,0.0,0.0,0.0,0.0,0.0,0.0,0.0,0.0,0.0,0.0,0.0,0.0,0.0,0.0,0.0,0.0,0.0,0.0,0.0,0.0,0.0,0.0,0.0,0.0,0.0,0.0,0.0,0.0,0.0,0.0,0.0,0.0,0.0,0.0,0.0,0.0,0.0,0.0,0.0,0.0,0.0,0.0,0.0,0.0,0.0,0.0,0.0,0.0,0.0,0.0,0.0,0.0,0.0,0.0,0.0,0.0,0.0,0.0,0.0,0.0,0.0,0.0,0.0,0.0,0.0,0.0,0.0,0.0,0.0,0.0,0.0,0.0,0.0,0.0,0.0,0.0,0.0,0.0,0.0,0.0,0.0,0.0,0.0,0.0,0.0,0.0,0.0,0.0,0.0,0.0,0.0,0.0,0.0,0.0,0.0,0.0,0.0,0.0,0.0,0.0,0.0,0.0,0.0,0.0,0.0,0.0,0.0,0.0,0.0,0.0,0.0,0.0,0.0,0.0,0.0,0.0,0.0,0.0,0.0,0.0,0.0,0.0,0.0,0.0,0.0,0.0,0.0,0.0,0.0,0.0,0.0,0.0,0.0,0.0,0.0,0.0,0.0,0.0,0.0,0.0,0.0,0.0,0.0,0.0,0.0,0.0,0.0,0.0,0.0,0.0,0.0,0.0,0.0,0.0,0.0,0.0,0.0,0.0,0.0,0.0,0.0,0.0,0.0,0.0,0.0,0.0,0.0,0.0,0.0,0.0,0.0,0.0,0.0,0.0,0.0,0.0,0.0,0.0,0.0,0.0,0.0,0.0,0.0,0.0,0.0,0.0,0.0,0.0,0.0,0.0,0.0,0.0,0.0,0.0,0.0,0.0,0.0,0.0,0.0,0.0,0.0,0.0,0.0,0.0,0.0,0.0,0.0,0.0,0.0,0.0,0.0,0.0,0.0,0.0,0.0,0.0,0.0,0.0,0.0,0.0,0.0,0.0,0.0,0.0,0.0,0.0,0.0,0.0,0.0,0.0,0.0,0.0,0.0,0.0,0.0,0.0,0.0,0.0,0.0,0.0,0.0,0.0,0.0,0.0,0.0,0.0,0.0,0.0,0.0,0.0,0.0,0.0,0.0,0.0,0.0,0.0,0.0,0.0,0.0,0.0,0.0,0.0,0.0,0.0,0.0,0.0,0.0,0.0,0.0,0.0,0.0,0.0,0.0,0.0,0.0,0.0,0.0,0.0,0.0,0.0,0.0,0.0,0.0,0.0,0.0,0.0,0.0,0.0,0.0,0.0,0.0,0.0,0.0,0.0,0.0,0.0,0.0,0.0,0.0,0.0,0.0,0.0,0.0,0.0,0.0,0.0,0.0,0.0,0.0,0.0,0.0,0.0,0.0,0.0,0.0,0.0,0.0,0.0,0.0,0.0,0.0,0.0,0.0,0.0,0.0,0.0,0.0,0.0,0.0,0.0,0.0,0.0,0.0,0.0,0.0,0.0,0.0,0.0,0.0,0.0,0.0,0.0,0.0,0.0,0.0,0.0,0.0,0.0,0.0,0.0,0.0,0.0,0.0,0.0,0.0,0.0,0.0,0.0,0.0,0.0,0.0,0.0,0.0,0.0,0.0,0.0,0.0,0.0,0.0,0.0,0.0,0.0,0.0,0.0,0.0,0.0,0.0,0.0,0.0,0.0,0.0,0.0,0.0,0.0,0.0,0.0,0.0,0.0,0.0,0.0,0.0,0.0,0.0,0.0,0.0,0.0,0.0,0.0,0.0,0.0,0.0,0.0,0.0,0.0,0.0,0.0,0.0,0.0,0.0,0.0,0.0,0.0,0.0,0.0,0.0,0.0,0.0,0.0,0.0,0.0,0.0,0.0,0.0,0.0,0.0,0.0,0.0,0.0,0.0,0.0,0.0,0.0,0.0,0.0,0.0,0.0,0.0,0.0,0.0,0.0,0.0,0.0,0.0,0.0,0.0,0.0,0.0,0.0,0.0,0.0,0.0,0.0,0.0,0.0,0.0,0.0,0.0,0.0,0.0,0.0,0.0,0.0,0.0,0.0,0.0,0.0,0.0,0.0,0.0,0.0,0.0,0.0,0.0,0.0,0.0,0.0,0.0,0.0,0.0,0.0,0.0,0.0,0.0,0.0,0.0,0.0,0.0,0.0,0.0,0.0,0.0,0.0,0.0,0.0,0.0,0.0,0.0,0.0,0.0,0.0,0.0,0.0,0.0,0.0,0.0,0.0,0.0,0.0,0.0,0.0,0.0,0.0,0.0,0.0,0.0,0.0,0.0,0.0,0.0,0.0,0.0,0.0,0.0,0.0,0.0,0.0,0.0,0.0,0.0,0.0,0.0,0.0,0.0,0.0,0.0,0.0,0.0,0.0,0.0,0.0,0.0,0.0,0.0,0.0,0.0,0.0,0.0,0.0,0.0,0.0,0.0,0.0,0.0,0.0,0.0,0.0,0.0,0.0,0.0,0.0,0.0,0.0,0.0,0.0,0.0,0.0,0.0,0.0,0.0,0.0,0.0,0.0,0.0,0.0,0.0,0.0,0.0,0.0,0.0,0.0,0.0,0.0,0.0,0.0,0.0,0.0,0.0,0.0,0.0,0.0,0.0,0.0,0.0,0.0,0.0,0.0,0.0,0.0,0.0,0.0,0.0,0.0,0.0,0.0,0.0,0.0,0.0,0.0,0.0,0.0,0.0,0.0,0.0,0.0,0.0,0.0,0.0,0.0,0.0,0.0,0.0,0.0,0.0,0.0,0.0,0.0,0.0,0.0,0.0,0.0,0.0,0.0,0.0,0.0,0.0,0.0,0.0,0.0,0.0,0.0,0.0,0.0,0.0,0.0,0.0,0.0,0.0,0.0,0.0,0.0,0.0,0.0,0.0,0.0,0.0,0.0,0.0,0.0,0.0,0.0,0.0,0.0,0.0,0.0,0.0,0.0,0.0,0.0,0.0,0.0,0.0,0.0,0.0,0.0,0.0,0.0,0.0,0.0,0.0,0.0,0.0,0.0,0.0,0.0,0.0,0.0,0.0,0.0,0.0,0.0,0.0,0.0,0.0,0.0,0.0,0.0,0.0,0.0,0.0,0.0,0.0,0.0,0.0,0.0,0.0,0.0,0.0,0.0,0.0,0.0,0.0,0.0,0.0,0.0,0.0,0.0,0.0,0.0,0.0,0.0,0.0,0.0,0.0,0.0,0.0,0.0,0.0,0.0,0.0,0.0,0.0,0.0,0.0,0.0,0.0,0.0,0.0,0.0,0.0,0.0,0.0,0.0,0.0,0.0,0.0,0.0,0.0,0.0,0.0,0.0,0.0,0.0,0.0,0.0,0.0,0.0,0.0,0.0,0.0,0.0,0.0,0.0,0.0,0.0,0.0,0.0,0.0,0.0,0.0,0.0,0.0,0.0,0.0,0.0,0.0,0.0,0.0,0.0,0.0,0.0,0.0,0.0,0.0,0.0,0.0,0.0,0.0,0.0,0.0,0.0,0.0,0.0,0.0,0.0,0.0,0.0,0.0,0.0,0.0,0.0,0.0,0.0,0.0,0.0,0.0,0.0,0.0,0.0,0.0,0.0,0.0,0.0,0.0,0.0,0.0,0.0,0.0,0.0,0.0,0.0,0.0,0.0,0.0,0.0,0.0,0.0,0.0,0.0,0.0,0.0,0.0,0.0,0.0,0.0,0.0,0.0,0.0,0.0,0.0,0.0,0.0,0.0,0.0,0.0,0.0,0.0,0.0,0.0,0.0,0.0,0.0,0.0,0.0,0.0,0.0,0.0,0.0,0.0,0.0,0.0,0.0,0.0,0.0,0.0,0.0,0.0,0.0,0.0,0.0,0.0,0.0,0.0,0.0,0.0,0.0,0.0,0.0,0.0,0.0,0.0,0.0,0.0,0.0,0.0,0.0,0.0,0.0,0.0,0.0,0.0,0.0,0.0,0.0,0.0,0.0,0.0,0.0,0.0,0.0,0.0,0.0,0.0,0.0,0.0,0.0,0.0,0.0,0.0,0.0,0.0,0.0,0.0,0.0,0.0,0.0,0.0,0.0,0.0,0.0,0.0,0.0,0.0,0.0,0.0,0.0,0.0,0.0,0.0,0.0,0.0,0.0,0.0,0.0,0.0,0.0,0.0,0.0,0.0,0.0,0.0,0.0,0.0,0.0,0.0,0.0,0.0,0.0,0.0,0.0,0.0,0.0,0.0,0.0,0.0,0.0,0.0,0.0,0.0,0.0,0.0,0.0,0.0,0.0,0.0,0.0,0.0,0.0,0.0,0.0,0.0,0.0,0.0,0.0,0.0,0.0,0.0,0.0,0.0,0.0,0.0,0.0,0.0,0.0,0.0,0.0,0.0,0.0,0.0,0.0,0.0,0.0,0.0,0.0,0.0,0.0,0.0,0.0,0.0,0.0,0.0,0.0,0.0,0.0,0.0,0.0,0.0,0.0,0.0,0.0,0.0,0.0,0.0,0.0,0.0,0.0,0.0,0.0,0.0,0.0,0.0,0.0,0.0,0.0,0.0,0.0,0.0,0.0,0.0,0.0,0.0,0.0,0.0,0.0,0.0,0.0,0.0,0.0,0.0,0.0,0.0,0.0,0.0,0.0,0.0,0.0,0.0,0.0,0.0,0.0,0.0,0.0,0.0,0.0,0.0,0.0,0.0,0.0,0.0,0.0,0.0,0.0,0.0,0.0,0.0,0.0,0.0,0.0,0.0,0.0,0.0,0.0,0.0,0.0,0.0,0.0,0.0,0.0,0.0,0.0,0.0,0.0,0.0,0.0,0.0,0.0,0.0,0.0,0.0,0.0,0.0,0.0,0.0,0.0,0.0,0.0,0.0,0.0,0.0,0.0,0.0,0.0,0.0,0.0,0.0,0.0,0.0,0.0,0.0,0.0,0.0,0.0,0.0,0.0,0.0,0.0,0.0,0.0,0.0,0.0,0.0,0.0,0.0,0.0,0.0,0.0,0.0,0.0,0.0,0.0,0.0,0.0,0.0,0.0,0.0,0.0,0.0,0.0,0.0,0.0,0.0,0.0,0.0,0.0,0.0,0.0,0.0,0.0,0.0,0.0,0.0,0.0,0.0,0.0,0.0,0.0,0.0,0.0,0.0,0.0,0.0,0.0,0.0,0.0,0.0,0.0,0.0,0.0,0.0,0.0,0.0,0.0,0.0,0.0,0.0,0.0,0.0,0.0,0.0,0.0,0.0,0.0,0.0,0.0,0.0,0.0,0.0,0.0,0.0,0.0,0.0,0.0,0.0,0.0,0.0,0.0,0.0,0.0,0.0,0.0,0.0,0.0,0.0,0.0,0.0,0.0,0.0,0.0,0.0,0.0,0.0,0.0,0.0,0.0,0.0,0.0,0.0,0.0,0.0,0.0,0.0,0.0,0.0,0.0,0.0,0.0,0.0,0.0,0.0,0.0,0.0,0.0,0.0,0.0,0.0,0.0,0.0,0.0,0.0,0.0,0.0,0.0,0.0,0.0,0.0,0.0,0.0,0.0,0.0,0.0,0.0,0.0,0.0,0.0,0.0,0.0,0.0,0.0,0.0,0.0,0.0,0.0,0.0,0.0,0.0,0.0,0.0,0.0,0.0,0.0,0.0,0.0,0.0,0.0,0.0,0.0,0.0,0.0,0.0,0.0,0.0,0.0,0.0,0.0,0.0,0.0,0.0,0.0,0.0,0.0,0.0,0.0,0.0,0.0,0.0,0.0,0.0,0.0,0.0,0.0,0.0,0.0,0.0,0.0,0.0,0.0,0.0,0.0,0.0,0.0,0.0,0.0,0.0,0.0,0.0,0.0,0.0,0.0,0.0,0.0,0.0,0.0,0.0,0.0,0.0,0.0,0.0,0.0,0.0,0.0,0.0,0.0,0.0,0.0,0.0,0.0,0.0,0.0,0.0,0.0,0.0,0.0,0.0,0.0,0.0,0.0,0.0,0.0,0.0,0.0,0.0,0.0,0.0,0.0,0.0,0.0,0.0,0.0,0.0,0.0,0.0,0.0,0.0,0.0,0.0,0.0,0.0,0.0,0.0,0.0,0.0,0.0,0.0,0.0,0.0,0.0,0.0,0.3101,0.0,0.0,0.0,0.0,0.0,0.0,0.0,0.0,0.0,0.0,0.0,0.0,0.0,0.0,0.0,0.0,0.0,0.0,0.0,0.0,0.0,0.0,0.0,0.0,0.3772,0.3943,0.3996,0.4356,0.0,0.0,0.0,0.0,0.0,0.0,0.0,0.0,0.0,0.4683,0.3881,0.3168,0.2144,0.0882,0.1703,0.2756,0.3946,0.0,0.0,0.0,0.0,0.0,0.0,0.0,0.0,0.0,0.0,0.0,0.0,0.0,0.0,0.0,0.0,0.0,0.0,0.0,0.0,0.0,0.0,0.0,0.0,0.0,0.0,0.0,0.0,0.0,0.0,0.0,0.0,0.0,0.0,0.0,0.0,0.0,0.0,0.0,0.0,0.0,0.0,0.0,0.0,0.0,0.0,0.0,0.0,0.0,0.0,0.0,0.0,0.0,0.0,0.0,0.0,0.0,0.0,0.0,0.0,0.0,0.0,0.0,0.0,0.0,0.0,0.0,0.0,0.0,0.0,0.0,0.1616,0.0,0.0,0.0,0.0,0.0,0.0,0.0,0.0,0.0,0.0,0.0,0.0,0.0,0.0,0.0,0.0,0.0,0.0,0.0,0.0,0.0,0.3238,0.2304,0.243,0.2704,0.2971,0.3283,0.3981,0.5236,0.5223,0.0,0.0,0.0,0.0,0.5412,0.4404,0.3409,0.2485,0.0883,-0.0766,-0.2448,-0.2471,-0.1147,0.1242,0.1582,0.0,0.0,0.0,0.0,0.0,0.0,0.0,0.0,0.0,0.0,0.0,0.0,0.0,0.0,0.0,0.0,0.0,0.0,0.0,0.0,0.0,0.0,0.0,0.0,0.0,0.0,0.0,0.0,0.0,0.0,0.0,0.0,0.0,0.0,0.0,0.0,0.0,0.0,0.0,0.0,0.0,0.0,0.0,0.0,0.0,0.0,0.0,0.0,0.0,0.0,0.0,0.0,0.0,0.0,0.0,0.0,0.0,0.0,0.0,0.0,0.0,0.0,0.0,-0.6065,-0.6407,-0.6656,-0.6756,-0.7925,-0.9665,-0.5648,-0.3912,-0.3641,-0.0223,0.0,0.0,0.0,0.0,0.0,0.0,0.0,0.0,0.0,0.0,0.0,0.0,0.0,0.0,0.0,0.0,0.0,0.0,0.0,0.0724,-0.0444,-0.109,-0.1095,-0.0261,0.1189,0.2883,0.4834,0.5739,0.0,0.0,0.0,0.0,0.3892,0.1958,0.0653,0.0063,-0.2568,-0.3993,-0.4274,-0.4896,-0.4971,-0.4521,-0.2884,-0.1776,-0.1014,0.0,0.0,0.0,0.0,0.0,0.0,0.0,0.0,0.0,0.0,0.0,0.0,0.0,0.0,0.0,0.0,0.0,0.0,0.0,0.0,0.0,0.0,0.0,0.0,0.0,0.0,0.0,0.0,0.0,0.0,0.0,0.0,0.0,0.0,0.0,0.0,0.0,0.0,0.0,0.0,0.0,-0.8782,-0.7458,0.0,0.0,0.0,0.0,0.0,0.0,0.0,0.0,0.0,0.0,0.0,0.0,0.0,-0.4803,-0.5507,-0.5606,-0.6002,-0.6711,-0.8195,-0.9013,-0.9221,-0.9756,-1.0509,-1.1353,-1.0326,0.0,-0.6604,-0.4526,0.0,0.0,0.0,0.0,0.0,0.0,0.0,0.0,0.0,0.0,0.0,0.0,0.0,0.0,0.0,0.0,0.0,0.0,0.0,0.0,0.0,-0.3043,-0.3048,-0.2062,-0.067,0.1264,0.3834,0.4195,0.0,0.0,0.0,0.2033,0.1974,0.0127,-0.1443,-0.271,-0.4613,-0.5793,-0.6242,-0.6569,-0.7229,-0.8135,-0.7316,-0.5743,-0.3628,-0.2011,0.0,0.0,0.0,0.0,0.0,0.0,0.0,0.0,0.0,0.0,0.0,0.0,0.0,0.0,0.0,0.0,0.0,0.0,0.0,0.0,0.0,0.0,0.0,0.0,0.0,0.0,0.0,0.0,0.0,0.0,0.0,0.0,0.0,0.0,0.0,0.0,0.0,0.0,0.0,-0.9965,-1.0309,-0.9431,-0.7683,-0.5951,0.0,0.0,0.0,0.0,0.0,0.0,0.0,0.0,0.0,-0.6045,-0.5204,-0.5325,-0.657,-0.6833,-0.7456,-0.8483,-0.9299,-1.007,-1.0821,-1.1099,-1.1606,-1.2247,-1.1929,-1.1177,-0.9966,-0.7403,-0.4948,-0.2686,0.0,0.0,0.0,0.0,-0.2386,-0.2664,0.0,0.0,0.0,0.0,0.0,0.0,0.0,0.0,0.0,0.0,0.0,0.0,-0.4703,-0.519,-0.5032,-0.406,-0.2906,-0.0885,0.2299,0.2485,0.2886,0.0,0.1723,0.0504,0.0473,-0.1503,-0.3328,-0.495,-0.612,-0.6996,-0.7586,-0.8024,-0.8939,-1.0178,-1.0362,-0.8975,-0.6439,-0.5019,-0.4191,-0.3727,0.0,0.0,0.0,0.0,0.0,0.0,0.0,0.0,0.0,0.0,0.0,0.0,0.0,0.0,0.0,0.0,0.0,0.0,0.0,0.0,0.0,0.0,0.0,0.0,0.0,0.0,0.0,0.0,0.0,0.0,0.0,0.0,0.0,0.0,0.0,0.0,0.0,-1.1765,-1.1513,-1.0894,-0.9388,-0.764,0.0,0.0,0.0,0.0,0.0,0.0,-0.5885,-0.5165,-0.525,-0.6322,-0.5705,-0.6059,-0.752,-0.7948,-0.8706,-0.9752,-0.9856,-1.0406,-1.1342,-1.1197,-1.1401,-1.1858,-1.176,-1.1712,-1.1544,-0.9206,-0.7357,-0.5924,-0.4864,-0.4166,-0.3896,-0.518,-0.5249,-0.4776,0.0,0.0,0.0,0.0,0.0,0.0,0.0,0.0,0.0,0.0,0.0,-0.523,-0.8206,-0.833,-0.7849,-0.696,-0.5909,-0.3674,0.0112,0.1299,0.2182,0.2933,0.1084,-0.0018,-0.0156,-0.3041,-0.51,-0.6214,-0.7222,-0.774,-0.7819,-0.9471,-1.0306,-1.0408,-1.1057,-1.0792,-0.9794,-0.8889,-0.8025,-0.7074,-0.5028,0.0,0.0,0.0,0.0,0.0,0.0,0.0,0.0,0.0,0.0,0.0,0.0,0.0,0.0,0.0,0.0,0.0,0.0,0.0,0.0,0.0,0.0,0.0,0.0,0.0,0.0,0.0,0.0,0.0,0.0,0.0,0.0,0.0,0.0,0.0,0.0,0.0,0.0,-1.2604,-1.0556,0.0,0.0,0.0,0.0,-0.4874,-0.491,-0.492,-0.4794,-0.4853,-0.5377,-0.6464,-0.6573,-0.6923,-0.7589,-0.8304,-0.908,-0.9903,-0.9892,-1.0062,-1.0354,-0.9842,-0.962,-0.966,-0.9796,-0.9838,-0.983,-0.9743,-0.9552,-0.9117,-0.6662,-0.631,-0.7044,-0.6122,-0.6155,-0.6596,0.0,0.0,0.0,0.1824,0.16,0.0998,-0.0479,-0.1449,-0.2737,-0.4769,-0.5785,-0.6999,-0.8788,-0.8791,-0.8308,-0.7436,-0.6223,-0.4149,-0.0968,-0.0412,0.0178,0.0996,-0.092,-0.2608,-0.3898,-0.5118,-0.5848,-0.6112,-0.659,-0.7173,-0.7817,-0.9098,-1.0044,-1.0697,-1.1573,-1.1804,-1.1477,-1.0861,-1.0346,-0.9863,-0.9042,-0.7989,0.0,0.0,0.0,0.0,0.0,0.0,0.0,0.0,0.0,0.0,0.0,0.0,0.0,0.0,0.0,0.0,0.0,0.0,0.0,0.0,0.0,0.0,0.0,0.0,0.0,0.0,0.0,0.0,0.0,0.0,0.0,0.0,0.0,0.0,0.0,0.0,0.0,-1.1444,-1.0259,0.0,-0.6811,-0.662,-0.6456,-0.6019,-0.5942,-0.5956,-0.5972,-0.6021,-0.6241,-0.662,-0.677,-0.7161,-0.785,-0.8215,-0.8814,-0.964,-0.964,-0.974,-0.9917,-0.9715,-0.9635,-0.9644,-0.9803,-0.989,-0.9852,-0.9172,-0.8997,-0.9028,-0.7729,-0.7239,-0.7215,-0.6852,-0.6639,-0.6508,0.0,0.0,0.0,0.0953,0.0786,0.0233,-0.1272,-0.2333,-0.3813,-0.619,-0.6796,-0.7638,-0.9358,-0.875,-0.7979,-0.7349,-0.6199,-0.4446,-0.1938,-0.1812,-0.1289,-0.0054,-0.1673,-0.3351,-0.499,-0.515,-0.5156,-0.5015,-0.5527,-0.6112,-0.6773,-0.8152,-0.914,-0.9828,-1.0832,-1.1465,-1.1741,-1.142,-1.1426,-1.1574,-1.0742,-0.9815,-0.881,0.0,0.0,0.0,0.0,0.0,0.0,0.0,0.0,0.0,0.0,0.0,0.0,0.0,0.0,0.0,0.0,0.0,0.0,0.0,0.0,0.0,0.0,0.0,0.0,0.0,0.0,0.0,0.0,0.0,0.0,0.0,0.0,0.0,0.0,-1.0507,-1.0556,-1.0198,-0.9545,-0.8503,-0.6916,-0.6729,-0.6702,-0.6702,-0.6627,-0.6614,-0.6695,-0.6749,-0.6755,-0.6755,-0.714,-0.7476,-0.7788,-0.8356,-0.8812,-0.9198,-0.9198,-0.9142,-0.9057,-0.8879,-0.8698,-0.8524,-0.8767,-0.8858,-0.8767,-0.7798,-0.751,-0.7708,-0.7534,-0.7235,-0.6936,-0.6936,-0.6587,-0.6067,0.0,0.0,0.0,0.0,0.0,-0.0296,-0.1181,-0.232,-0.4152,-0.7074,-0.6585,-0.7082,-0.9992,-0.8319,-0.6932,-0.6829,-0.5967,-0.4631,-0.2792,-0.2774,-0.2015,-0.0128,-0.1082,-0.2101,-0.3083,-0.3102,-0.3102,-0.3102,-0.4137,-0.4647,-0.4686,-0.6734,-0.7702,-0.7748,-0.8751,-0.9734,-1.0606,-1.0606,-1.1218,-1.2033,-0.9988,-0.9457,-0.9701,0.0,0.0,0.0,0.0,0.0,0.0,0.0,0.0,0.0,0.0,0.0,0.0,0.0,0.0,0.0,0.0,0.0,0.0,0.0,0.0,0.0,0.0,0.0,0.0,0.0,0.0,0.0,0.0,0.0,0.0,0.0,0.0,0.0,-0.8749,-0.9401,-0.9606,-0.9078,-0.8506,-0.7824,-0.6969,-0.6769,-0.6681,-0.6688,-0.6667,-0.6667,-0.6674,-0.6787,-0.6875,-0.6896,-0.7687,-0.7893,-0.7373,-0.8707,-0.9092,-0.8528,-0.8551,-0.8263,-0.7731,-0.7219,-0.6681,-0.6192,-0.6422,-0.6519,-0.6452,-0.5662,-0.5334,-0.54,-0.6052,-0.6322,-0.6297,-0.6297,-0.5947,-0.5283,0.0,0.0,0.0,0.0,0.0,-0.0342,-0.1353,-0.2427,-0.3934,-0.6253,-0.5682,-0.5943,-0.8261,-0.5929,-0.45,-0.5243,-0.4272,-0.3135,-0.1977,-0.1801,-0.1569,-0.1176,-0.2139,-0.2811,-0.3102,-0.3102,-0.3102,-0.3102,-0.3398,-0.3534,-0.3573,-0.4872,-0.5479,-0.5528,-0.6577,-0.765,-0.8676,-0.8676,-0.934,-1.0419,-1.0398,-1.0146,-0.9788,0.0,0.0,0.0,0.0,0.0,0.0,0.0,0.0,0.0,0.0,0.0,0.0,0.0,0.0,0.0,0.0,0.0,0.0,0.0,0.0,0.0,0.0,0.0,0.0,0.0,0.0,0.0,0.0,0.0,0.0,0.0,-0.7042,-0.723,-0.7299,-0.7462,-0.7524,-0.7371,-0.7222,-0.7027,-0.6777,-0.641,-0.6241,-0.6327,-0.6014,-0.5878,-0.597,-0.6005,-0.6245,-0.6751,-0.6608,-0.6665,-0.697,-0.6963,-0.6915,-0.6864,-0.7267,-0.7221,-0.6781,-0.6433,-0.5982,-0.5459,-0.4928,-0.4714,-0.4661,-0.405,-0.3795,-0.3872,-0.4433,-0.4419,-0.408,-0.408,-0.3453,-0.2488,0.0,0.0,0.0,0.0,0.0,-0.0215,-0.0842,-0.1812,-0.3055,-0.4679,-0.439,-0.4656,-0.629,-0.4457,-0.3331,-0.3888,-0.2977,-0.2103,-0.1522,-0.1026,-0.0809,-0.0916,-0.1066,-0.0937,-0.0506,-0.0506,-0.0506,-0.0506,-0.0934,-0.1128,-0.1167,-0.2647,-0.3351,-0.3398,-0.4436,-0.5267,-0.5888,-0.5888,-0.6303,-0.7034,-0.8148,-0.8811,-0.9287,-1.0561,-1.1113,-1.1437,-1.3,-1.3313,-1.2883,-1.21,0.0,0.0,0.0,0.0,0.0,0.0,0.0,0.0,0.0,0.0,0.0,0.0,0.0,0.0,0.0,0.0,0.0,0.0,0.0,0.0,0.0,0.0,0.0,0.0,-0.5792,-0.587,-0.5357,-0.5984,-0.6369,-0.6069,-0.5905,-0.5699,-0.5438,-0.516,-0.5018,-0.5104,-0.4847,-0.4894,-0.529,-0.5323,-0.5759,-0.6716,-0.6484,-0.652,-0.687,-0.6655,-0.6286,-0.5792,-0.611,-0.5837,-0.5061,-0.4896,-0.4546,-0.4005,-0.3595,-0.3409,-0.3356,-0.268,-0.2254,-0.2113,0.0,0.0,0.0,0.0,-0.1467,-0.0564,0.0169,0.0236,0.0303,0.0303,0.031,0.0263,0.0158,-0.0749,-0.1805,-0.2803,-0.2819,-0.3128,-0.4143,-0.3154,-0.245,-0.2569,-0.1752,-0.1172,-0.0976,-0.024,0.0229,0.035,0.127,0.2192,0.3083,0.3102,0.3102,0.3102,0.2199,0.1771,0.1758,-0.016,-0.103,-0.1057,-0.1954,-0.2417,-0.255,-0.2685,-0.283,-0.3088,-0.4754,-0.6502,-0.825,-0.9755,-1.0532,-1.1083,-1.3318,-1.4392,-1.4608,-1.3753,0.0,0.0,0.0,0.0,0.0,0.0,0.0,0.0,0.0,0.0,0.0,0.0,0.0,0.0,0.0,0.0,0.0,0.0,0.0,0.0,0.0,0.0,0.0,0.0,-0.4182,-0.4428,-0.3473,-0.4779,-0.5605,-0.5012,-0.4656,-0.4243,-0.366,-0.3549,-0.353,-0.3515,-0.347,-0.3754,-0.4461,-0.4512,0.0,0.0,0.0,-0.6501,-0.6566,-0.6699,-0.6117,-0.4897,-0.4937,-0.4328,-0.3112,-0.3091,-0.2744,-0.2162,-0.2201,-0.2162,-0.2056,-0.1282,-0.0644,-0.0279,-0.1462,-0.1604,-0.1069,-0.0534,0.0216,0.0985,0.119,0.1659,0.2178,0.2178,0.2176,0.1921,0.1172,0.0179,-0.0815,-0.1758,-0.113,-0.0999,-0.2071,0.0256,0.1242,-0.0418,0.0378,0.0988,0.1036,0.1197,0.1658,0.2474,0.2694,0.2911,0.3102,0.3102,0.3102,0.3102,0.2908,0.2858,0.297,0.254,0.2432,0.2584,0.238,0.1754,0.0791,-0.0179,-0.1165,-0.2256,-0.4604,-0.5794,-0.6409,-0.8939,-1.0801,-1.2252,-1.3716,-1.5139,-1.6302,-1.6355,-1.5886,-1.4814,-1.2294,-1.0265,0.0,0.0,0.0,0.0,0.0,0.0,0.0,0.0,0.0,0.0,0.0,0.0,0.0,0.0,0.0,0.0,0.0,0.0,0.0,-0.372,-0.379,-0.3791,-0.357,-0.3529,-0.3617,-0.3861,-0.3827,-0.3749,-0.3616,-0.326,-0.3037,-0.3043,-0.2683,-0.2546,-0.2694,-0.2697,-0.3055,-0.3794,-0.343,-0.3439,-0.3929,-0.3533,-0.3209,-0.2939,0.0,0.0,-0.2539,-0.2342,-0.1684,-0.068,-0.0055,0.0502,0.0948,0.112,0.1262,0.1345,0.1085,0.1055,0.1166,0.1305,0.2196,0.3342,0.2965,0.2795,0.2693,0.2693,0.2693,0.2546,0.2069,0.1572,0.1123,0.0801,0.1158,0.1279,0.0809,0.2097,0.2363,0.0782,0.1241,0.1605,0.1605,0.2071,0.3043,0.4588,0.4646,0.5129,0.6187,0.6207,0.6207,0.6207,0.6339,0.6434,0.649,0.5545,0.5152,0.5202,0.4089,0.3311,0.2761,0.215,0.1215,-0.0072,-0.2016,-0.3599,-0.5169,-0.8525,-1.0431,-1.1482,-1.2913,-1.4005,-1.4805,-1.5141,-1.4831,-1.3986,-1.2129,-1.0802,-0.9429,0.0,0.0,0.0,0.0,0.0,0.0,0.0,0.0,0.0,0.0,0.0,0.0,0.0,0.0,-0.1118,0.0,0.0,-0.1826,-0.1896,-0.1834,-0.1799,-0.1799,-0.1592,-0.1763,-0.2598,-0.248,-0.2202,-0.1839,-0.1583,-0.1622,-0.2015,-0.1454,-0.1444,-0.2268,-0.191,-0.2144,-0.3128,-0.2634,-0.2633,-0.3188,-0.2678,-0.2048,-0.134,-0.1629,-0.1239,-0.0296,-0.0165,0.0221,0.0775,0.1173,0.1514,0.185,0.2606,0.3192,0.3636,0.3946,0.3583,0.2996,0.3779,0.4505,0.5146,0.4706,0.3975,0.3296,0.3296,0.3284,0.3212,0.3076,0.3019,0.3009,0.3092,0.3163,0.3253,0.3368,0.3442,0.3071,0.2012,0.1898,0.2073,0.2473,0.3285,0.4646,0.6705,0.6801,0.7592,0.9263,0.9301,0.9301,0.9301,0.9572,0.9704,0.9715,0.8255,0.7594,0.7525,0.556,0.4728,0.478,0.4085,0.3236,0.2187,0.0344,-0.169,-0.3976,-0.7377,-0.9352,-1.0467,-1.1807,-1.2549,-1.2942,-1.3204,-1.3116,-1.2654,-1.123,-1.0661,-1.0046,-0.7552,-0.6573,0.0,0.0,0.0,0.0,0.0,0.0,0.0,0.0,0.0,-0.0305,-0.1447,-0.0691,0.0148,0.0144,0.0362,0.051,0.0406,0.0595,0.0785,0.0785,0.0643,0.0188,-0.0796,-0.0897,-0.0651,-0.0047,0.0,-0.0263,-0.0911,-0.036,-0.0556,-0.1871,-0.1312,-0.1399,-0.238,-0.1986,-0.19,-0.2235,-0.18,-0.1016,0.0107,0.0109,0.0796,0.2061,0.2062,0.2214,0.2492,0.2634,0.2662,0.2772,0.3946,0.4892,0.5644,0.6288,0.5866,0.5003,0.5954,0.6399,0.6566,0.5649,0.554,0.5461,0.5461,0.5364,0.5059,0.44,0.4149,0.3799,0.3181,0.3817,0.4335,0.4351,0.5121,0.5237,0.4236,0.3399,0.3709,0.5566,0.5892,0.6904,0.8874,0.895,0.9064,0.9301,0.9301,0.9301,0.9301,0.9572,0.9766,0.9888,0.9964,1.0077,1.0144,0.8985,0.8493,0.8306,0.5132,0.3712,0.3282,-0.0326,-0.1946,-0.2397,-0.4027,-0.7135,-1.069,-1.0984,-1.203,-1.3261,-1.3281,-1.3281,-1.2982,-1.1512,-1.1042,-1.0707,-0.9084,-0.7594,-0.6685,-0.7714,-0.6213,-0.4031,-0.2574,-0.1161,-0.0326,0.0,0.0,-0.0098,-0.0431,0.0144,0.0719,0.0716,0.1692,0.2335,0.1857,0.278,0.3563,0.3563,0.2946,0.2443,0.2291,0.0853,-0.0095,0.0,0.0,-0.0048,-0.0122,-0.0049,-0.0074,-0.0251,-0.0179,0.0052,0.044,0.05,0.077,0.1247,0.1297,0.1417,0.1554,0.1553,0.204,0.2957,0.2961,0.3689,0.5027,0.556,0.5787,0.5815,0.5982,0.6093,0.6288,0.7121,0.767,0.7858,0.6733,0.6788,0.7537,0.6035,0.5922,0.5861,0.6056,0.5892,0.5608,0.5302,0.5194,0.5045,0.4828,0.5059,0.5261,0.526,0.5013,0.4668,0.4244,0.4096,0.4675,0.6223,0.7103,0.8491,1.0609,1.1058,1.1298,1.1335,1.1689,1.1993,1.2274,1.1757,1.203,1.3012,1.1834,1.1384,1.152,0.9842,0.9148,0.9081,0.7007,0.5281,0.377,0.2158,0.0077,-0.207,-0.2706,-0.4596,-0.6925,-0.6974,-0.8002,0.0,-0.9434,-0.9984,-1.0534,-0.9991,-0.9729,-0.9328,-0.7995,-0.6942,-0.6182,-0.6001,-0.4242,-0.2307,-0.17,-0.0537,0.0586,0.1054,0.1759,0.2304,0.2211,0.2436,0.2669,0.2665,0.312,0.3436,0.0,0.3632,0.3999,0.3999,0.3705,0.3509,0.3509,0.2114,0.098,0.051,0.0466,0.0272,-0.0199,0.0529,0.0788,0.0308,0.0782,0.1159,0.1423,0.142,0.1784,0.2536,0.2553,0.3017,0.3901,0.3901,0.4278,0.4975,0.4975,0.531,0.595,0.6177,0.6594,0.7066,0.7066,0.7565,0.8374,0.8733,0.9251,0.9664,0.8699,0.8782,0.9444,0.6151,0.6069,0.6015,0.6259,0.6096,0.5947,0.5947,0.5888,0.589,0.5979,0.5876,0.5786,0.5745,0.5145,0.4763,0.4798,0.5526,0.6444,0.7529,0.8722,1.0324,1.2467,1.3029,1.3444,1.3796,1.4219,1.4609,1.4934,1.4265,1.4404,1.5278,1.3675,1.2879,1.2708,1.0882,0.9926,0.9621,0.8241,0.6411,0.4404,0.4088,0.2192,-0.0438,-0.0877,-0.1639,-0.2658,-0.3853,-0.5009,-0.5963,-0.6063,-0.6743,-0.7556,-0.7705,-0.76,-0.73,-0.6457,-0.5941,-0.5153,-0.2933,-0.1657,-0.0726,0.0052,0.0977,0.1946,0.2899,0.3588,0.4043,0.4185,0.4232,0.4225,0.4224,0.4529,0.4718,0.4568,0.4868,0.5127,0.5182,0.5006,0.4766,0.4561,0.3344,0.2289,0.1708,0.1365,0.112,0.0971,0.1889,0.2216,0.1643,0.2201,0.2625,0.2786,0.2805,0.3186,0.3978,0.3972,0.4554,0.5644,0.5644,0.6005,0.6677,0.6904,0.7059,0.7091,0.7091,0.7584,0.8342,0.8342,0.9077,1.0202,1.0202,1.0592,1.1065,1.062,1.0556,1.0715,0.6012,0.6152,0.6286,0.63,0.6293,0.6286,0.6286,0.6118,0.5986,0.5993,0.5876,0.5745,0.5627,0.622,0.6672,0.6797,0.8253,0.9593,1.0596,1.136,1.2672,1.4608,1.4729,1.5215,1.6268,1.6308,1.6327,1.6344,1.6635,1.6265,1.5298,1.5491,1.5026,1.401,1.2964,1.1838,1.0612,0.8298,0.6643,0.5445,0.4272,0.3737,0.3506,0.2313,0.1839,0.1249,-0.2985,-0.4521,-0.4554,-0.4557,-0.4583,-0.4646,-0.4782,-0.4832,-0.4842,-0.4927,-0.4857,-0.378,0.0616,0.0816,0.0422,0.3161,0.3869,0.3917,0.3946,0.3992,0.4146,0.4668,0.4772,0.4772,0.4772,0.5847,0.6556,0.6027,0.703,0.7942,0.8139,0.7488,0.6726,0.5948,0.4665,0.3845,0.0,0.2793,0.2758,0.4232,0.4397,0.4401,0.4374,0.4394,0.468,0.5277,0.5281,0.5584,0.62,0.6204,0.6232,0.626,0.626,0.6733,0.7593,0.8436,0.8931,0.9115,0.9115,0.9539,1.0228,1.0228,1.0632,1.1236,1.1236,1.161,1.2155,1.2126,1.1524,1.077,0.5993,0.6152,0.63,0.63,0.63,0.63,0.63,0.6233,0.6112,0.5908,0.6403,0.0,0.0,0.0,0.0,0.0,0.8282,0.9332,1.0827,1.1378,1.2748,1.5291,1.5818,1.626,1.6727,1.7159,1.7536,1.7802,1.6975,1.6968,1.7712,1.616,1.5338,1.5082,1.3365,1.2369,1.1893,1.0433,0.8614,0.6702,0.6379,0.5282,0.3764,0.3558,0.335,0.3003,0.0,-0.0569,-0.2843,-0.2944,-0.3562,-0.434,-0.4501,-0.4428,-0.3856,-0.1956,-0.0849,0.028,0.2776,0.3102,0.3024,0.4238,0.504,0.5576,0.5812,0.6276,0.67,0.688,0.709,0.7265,0.7265,0.7701,0.8006,0.7822,0.8086,0.835,0.843,0.8203,0.7929,0.7652,0.6442,0.0,0.0,0.0,0.0,0.4007,0.4484,0.4705,0.4705,0.533,0.5794,0.5982,0.5991,0.6371,0.7149,0.7149,0.7454,0.802,0.8161,0.8373,0.8683,0.9071,0.9259,0.9364,0.976,1.0076,1.033,1.0792,1.1339,1.1885,1.1885,1.2259,1.2869,1.3488,1.3504,1.3161,0.6098,0.6253,0.6375,0.6375,0.6668,0.0,0.0,0.0,0.0,0.0,0.0,0.0,0.0,0.0,0.0,0.0,0.0,1.0002,1.1248,1.2177,1.3706,1.6036,1.702,1.7741,1.8211,1.8651,1.905,1.9461,1.8418,1.8351,1.9175,1.7259,1.6086,1.5491,1.411,1.3123,1.2429,1.142,0.9901,0.8157,0.7708,0.6606,0.5191,0.4888,0.4376,0.0,0.394,0.2035,-0.0581,-0.0731,-0.1635,-0.272,-0.2845,-0.2387,-0.1316,0.1145,0.249,0.3498,0.4959,0.5714,0.6274,0.7018,0.7922,0.8557,0.827,0.8585,0.882,0.8295,0.8391,0.856,0.856,0.8642,0.873,0.8757,0.8662,0.8581,0.8635,0.8648,0.8535,0.8207,0.7425,0.7271,0.0,0.0,0.0,0.5598,0.604,0.6274,0.6274,0.689,0.7238,0.7238,0.7238,0.7487,0.8069,0.814,0.8476,0.9068,0.922,0.926,0.9267,0.9362,0.9437,0.9492,1.0128,1.0574,1.0883,1.1536,1.218,1.2734,1.2734,1.317,1.3896,1.4504,1.4926,1.5095,0.6272,0.6455,0.6591,0.0,0.0,0.0,0.0,0.0,0.0,0.0,0.0,0.0,0.0,0.0,0.0,0.0,0.0,0.0,1.1984,1.3764,1.5455,1.6879,1.8235,1.9435,2.0527,2.0546,2.0723,2.1093,2.0723,2.0213,1.9568,1.8704,1.7239,1.5358,1.5192,1.4125,1.2347,1.1322,1.0507,0.9743,0.8282,0.7726,0.7656,0.6397,0.512,0.4027,0.4155,0.3337,0.2159,0.198,0.1165,0.022,0.0216,0.1206,0.2666,0.4253,0.5088,0.5845,0.73,0.8648,0.9989,1.1235,1.218,1.2438,1.1035,1.069,1.0309,0.8905,0.8755,0.8865,0.0,0.0,0.89,0.9016,0.8852,0.8743,0.8892,0.8912,0.8602,0.0,0.0,0.0,0.0,0.0,0.0,0.8768,0.0,0.883,0.883,0.8885,0.8912,0.8912,0.8912,0.8912,0.8919,0.9117,0.9267,0.941,0.9417,0.9424,0.9424,0.946,0.9541,0.9708,1.0391,1.1129,1.1881,1.2513,1.3144,1.3792,1.3792,1.4391,1.5207,1.5266,1.585,1.6568,0.0,0.0,0.0,0.0,0.0,0.0,0.0,0.0,0.0,0.0,0.0,0.0,0.0,0.0,0.0,0.0,0.0,0.0,1.3212,1.4405,1.5808,1.7441,1.783,1.8526,1.9609,1.9628,1.9686,1.9785,1.9686,1.9538,1.9353,1.8651,1.7609,1.6316,1.5782,1.4957,1.3848,1.2654,1.1614,1.0668,0.9378,0.8379,0.7631,0.7504,0.7168,0.6798,0.6935,0.6052,0.4703,0.3861,0.3375,0.3141,0.3125,0.3706,0.4805,0.7113,0.8078,0.8897,1.1009,1.1821,1.2169,1.24,1.2703,1.2565,1.1036,1.069,1.0655,1.0465,1.061,1.1167,0.0,0.0,0.0,1.107,0.9824,0.0,0.8906,0.8912,0.0,0.8602,0.0,0.8574,0.8574,0.838,0.0,0.0,0.8291,0.7925,0.7925,0.8546,0.8912,0.8912,0.8912,0.896,0.9124,0.9274,0.9369,0.941,0.9496,0.9551,0.9557,1.0167,1.0448,1.0552,1.1687,1.2282,1.2513,1.3174,1.4079,1.5033,1.5033,1.5775,1.6902,1.7603,1.8016,1.8306,0.0,0.0,0.0,0.0,0.0,0.0,0.0,0.0,0.0,0.0,0.0,0.0,0.0,0.0,0.0,0.0,0.0,0.0,0.0,1.5248,1.6368,1.7441,1.8064,1.8579,1.8986,1.8986,1.918,1.9551,1.8643,1.8558,1.9222,1.7728,1.6473,1.5456,1.5178,1.4551,1.3658,1.2159,1.1314,0.0,0.0,0.8001,0.7539,0.7685,0.7335,0.6851,0.757,0.7563,0.7229,0.7098,0.0,0.4776,0.5814,0.6572,0.762,1.0099,0.0,1.1817,1.3115,1.3948,1.4428,1.4346,1.4387,1.4153,1.3016,1.2565,1.2351,1.2121,1.2441,1.3022,1.3865,1.2794,1.1808,0.0,0.0,0.0,0.9035,0.9035,0.9008,0.0,0.8912,0.0,0.8912,0.8912,0.8912,0.0,0.8463,0.818,0.818,0.8716,0.9035,0.9035,0.9349,0.9603,0.9816,0.9873,0.9951,1.0015,1.0375,1.0606,1.071,1.1164,1.1432,1.1587,1.3053,1.3664,1.3756,1.4862,1.5735,1.6342,1.6342,1.7032,1.8079,1.8619,1.9059,1.9485,0.0,0.0,0.0,0.0,0.0,0.0,0.0,0.0,0.0,1.0761,1.1377,0.0,0.0,0.0,0.0,0.0,0.0,0.0,0.0,0.0,1.7054,1.7314,1.8476,1.8906,1.8442,1.8442,1.8737,1.9326,1.7521,1.7297,1.8491,1.6341,1.4804,1.3879,1.4115,1.3724,1.2796,1.1105,1.0546,1.0578,0.8247,0.7343,0.7396,0.0,0.6688,0.5867,0.7191,0.8318,0.9376,1.0372,0.8608,0.6376,0.8519,0.9666,1.068,1.2915,1.3965,1.4433,1.454,1.5503,1.6458,1.6458,1.6405,1.6127,1.553,1.4916,1.4325,1.3769,1.4162,1.4594,1.4572,1.3412,1.2407,1.2308,0.0,0.9426,0.9187,0.9152,0.9132,0.9037,0.9023,0.9051,0.9134,0.9092,0.9134,0.9348,0.9175,0.9071,0.905,0.9244,0.9383,0.9468,1.0133,1.0551,1.0732,1.0754,1.0815,1.0974,1.155,1.2012,1.2339,1.2432,1.264,1.3012,1.456,1.5245,1.5339,1.6806,1.7488,1.7646,1.7646,1.8243,1.9098,1.9098,1.9632,2.0317,0.0,0.0,0.0,0.0,0.0,0.0,0.0,0.0,0.0,0.0,1.1921,1.2002,0.0,0.0,0.0,0.0,0.0,0.0,0.0,0.0,0.0,1.7848,1.8098,1.8027,1.7617,1.7614,1.7182,1.6258,1.5889,1.5531,1.5138,1.5035,1.4543,1.3753,1.4189,1.4026,1.3372,1.2026,1.1133,1.0514,0.9026,0.8005,0.7396,0.7396,0.0,0.0,0.7764,0.8746,0.9921,1.0502,1.0672,1.0827,1.1913,1.267,1.3409,1.4665,1.545,1.6074,1.6803,1.7173,1.7371,1.7371,1.6829,1.6127,1.553,1.4604,0.0,0.0,1.5544,1.6113,1.7745,1.6829,1.5378,1.3974,1.2251,1.0611,0.9154,0.8946,0.9134,0.0,0.9651,0.9844,1.0339,1.0039,0.0,0.0,1.0697,1.0016,0.9905,1.0024,1.0342,1.0925,1.1179,1.132,1.1353,1.1519,1.1679,1.1895,1.1987,1.2595,1.3621,1.416,1.4894,1.5742,1.6589,0.0,1.7002,1.728,1.8025,1.8963,1.8963,1.9662,2.0697,2.0697,2.0792,2.0949,0.0,0.0,0.0,0.0,0.0,0.0,0.0,1.2945,1.3357,1.3806,1.4305,1.4276,1.3387,1.3748,1.4374,0.0,0.0,0.0,0.0,0.0,0.0,0.0,0.0,0.0,0.0,0.0,0.0,0.0,0.0,1.416,1.4328,1.3667,1.3123,1.2781,1.3147,1.3093,1.2656,1.1651,1.1121,1.0828,0.9763,0.9191,0.8965,0.0,0.0,0.0,0.0,1.0632,1.158,1.2395,1.3241,1.3965,1.4096,1.4803,1.5838,1.72,1.7726,1.7963,1.8513,1.833,1.795,1.7661,1.6366,1.5396,1.634,0.0,0.0,0.0,1.702,1.7559,1.8498,1.75,1.6261,1.5579,1.3867,1.2182,1.0909,1.0976,1.1137,1.0954,1.1469,1.1935,1.2238,1.2171,1.2448,1.3237,1.2755,1.2159,1.1492,1.112,1.149,1.2727,1.2128,1.2462,1.3833,1.3548,1.3726,1.4354,1.4693,1.5215,1.5878,1.6202,1.6685,1.7278,1.8172,1.856,1.8592,1.9124,1.97,2.0223,2.0223,2.0598,2.1109,2.1109,2.1109,2.1109,0.0,0.0,0.0,0.0,0.0,0.0,1.3459,1.4113,1.4858,1.5805,1.6457,1.6338,1.5008,1.5112,1.5708,0.0,0.0,0.0,0.0,0.0,0.0,0.0,0.0,0.0,0.0,0.0,0.0,0.0,0.0,0.0,0.0,0.0,0.0,0.0,1.2122,1.2136,1.1948,1.144,1.1239,0.0,0.0,1.0419,0.0,0.0,0.0,0.0,0.0,1.2387,1.3191,1.4171,1.5197,1.6022,1.571,1.6625,1.8031,1.9316,1.9632,1.9528,1.958,1.8916,1.8134,1.7714,1.5823,1.4701,1.7067,1.5943,0.0,1.7159,1.7996,1.8317,1.8384,1.7548,1.6807,1.6639,1.5344,1.395,1.2841,1.313,1.3232,0.0,1.34,0.0,1.4169,1.4266,0.0,1.4817,1.5095,1.4694,1.3385,1.2912,1.3303,1.469,1.3756,1.4237,1.6274,1.5721,1.5856,1.6686,1.7205,1.7684,1.8104,1.8104,1.8316,1.8708,1.9571,1.9922,1.9985,2.0761,2.1109,2.1109,2.1109,2.1149,2.1203,2.1203,2.1243,2.1296,0.0,0.0,0.0,0.0,0.0,0.0,1.4581,1.4907,1.5658,1.7668,1.6805,1.6257,1.694,1.7674,1.8034,0.0,0.0,0.0,0.0,0.0,0.0,0.0,0.0,0.0,0.0,0.0,0.0,0.0,0.0,0.0,0.0,0.0,0.0,0.0,0.0,1.2056,1.2278,1.2515,0.0,0.0,0.0,0.0,0.0,0.0,0.0,0.0,0.0,1.2716,1.3858,1.4346,0.0,1.6668,1.6933,1.839,2.0023,2.0049,0.0,0.0,1.9717,1.8655,1.7661,1.7608,1.5823,1.4701,1.7067,0.0,1.4519,1.7068,1.7648,1.7756,1.8009,1.8378,1.8164,1.6594,1.6403,1.5762,1.3843,1.3834,1.4099,1.4344,0.0,0.0,1.5631,1.5345,1.5689,1.7175,1.7738,1.7244,1.5435,1.606,1.6586,1.6729,1.6845,1.703,1.7276,1.7207,1.7301,1.7579,1.7642,1.8285,1.9438,1.9438,1.9928,2.0824,2.0919,2.0951,0.0,2.1046,2.1109,2.1109,2.1109,2.1269,2.1542,2.1542,2.1716,2.1911,0.0,0.0,0.0,0.0,0.0,0.0,1.4967,1.5834,1.7051,1.9019,1.8545,1.8226,1.886,1.8614,1.7977,1.6841,0.0,0.0,0.0,0.0,0.0,0.0,0.0,0.0,0.0,0.0,0.0,0.0,0.0,0.0,0.0,0.0,0.0,0.0,0.0,0.0,1.2852,1.2973,0.0,0.0,0.0,0.0,0.0,0.0,0.0,0.0,0.0,0.0,1.5083,0.0,1.5821,1.6635,1.7668,1.93,2.0782,2.0452,2.0784,2.1097,2.0354,1.9138,1.8003,1.7687,1.6234,1.537,1.7173,0.0,1.5267,1.7213,1.7608,1.7675,1.7942,1.8343,1.8481,1.7945,1.7963,1.7553,1.6231,1.6442,1.6594,1.622,1.6855,0.0,0.0,0.0,1.8068,1.8872,1.9278,1.9146,1.8419,1.7652,1.7497,1.8076,1.7773,1.8163,1.9372,1.8943,1.9078,1.9758,1.9758,1.9998,2.0507,2.0507,2.0729,2.1122,2.1296,2.1408,0.0,2.1596,2.163,2.163,2.163,2.171,2.185,2.185,2.1917,2.1991,0.0,0.0,0.0,0.0,0.0,1.427,1.5999,1.7008,1.8218,1.9994,1.9551,1.911,1.917,1.8008,1.6796,1.5657,1.6044,0.0,0.0,0.0,0.0,0.0,0.0,0.0,0.0,0.0,0.0,1.2673,0.0,0.0,0.0,0.0,0.0,0.0,0.0,0.0,0.0,0.0,0.0,0.0,0.0,0.0,0.0,0.0,0.0,0.0,0.0,0.0,0.0,0.0,0.0,1.7006,1.8057,1.9907,2.1691,2.1591,2.1709,2.1713,2.1171,1.9628,1.8082,1.7687,1.6499,1.5796,0.0,0.0,1.5823,1.7305,1.7608,1.7675,1.7849,1.8143,1.845,1.8716,1.877,1.8625,1.8183,1.851,1.8548,1.7915,0.0,1.9145,1.9065,1.9319,1.9613,1.9907,2.0201,2.0361,2.0361,1.9168,1.8778,1.9338,1.895,1.9399,2.0802,2.0308,2.0412,2.1109,2.1109,2.1149,2.1243,2.1243,2.1283,2.1376,2.1622,2.1716,2.1729,2.193,2.1991,2.1991,2.1991,2.2044,2.2111,2.2111,2.2164,2.2278,0.0,0.0,0.0,0.0,0.0,0.0,1.7991,1.8496,1.902,2.0508,1.9376,1.8104,1.7319,1.5619,1.4544,1.4531,1.5863,0.0,0.0,0.0,0.0,0.0,0.0,0.0,0.0,0.0,1.3327,1.3586,1.36,1.36,1.36,0.0,0.0,0.0,0.0,0.0,0.0,0.0,0.0,0.0,0.0,0.0,0.0,0.0,0.0,0.0,0.0,0.0,0.0,0.0,0.0,0.0,0.0,2.0344,2.3128,2.3849,2.2936,2.1793,2.2182,1.9986,1.7608,1.7608,1.6499,1.5796,0.0,0.0,1.5823,1.7305,1.7608,1.7608,1.7608,1.7809,1.8116,1.845,1.849,1.8704,1.9308,1.9388,1.9388,0.0,1.9613,1.9679,1.9415,1.9626,1.992,2.0184,2.0508,2.0699,2.0699,2.0949,2.0931,2.0681,2.0917,2.1064,2.1109,2.1077,2.1077,2.1109,2.1109,2.1269,2.1582,2.1582,2.1743,2.1977,2.1977,2.201,2.201,2.1991,2.1991,2.1991,2.1991,2.2164,2.2418,2.2418,2.2605,2.2893,0.0,0.0,0.0,0.0,0.0,0.0,0.0,1.8173,1.8807,1.9437,1.8346,1.7365,1.6971,1.547,1.4501,1.4501,1.4545,0.0,0.0,0.0,0.0,0.0,0.0,0.0,0.0,0.0,1.3634,1.3948,1.4951,1.5142,1.4571,1.5397,1.5311,1.4424,0.0,0.0,0.0,0.0,0.0,0.0,0.0,0.0,0.0,0.0,0.0,0.0,0.0,0.0,0.0,0.0,0.0,0.0,0.0,0.0,0.0,2.381,2.3724,2.303,2.2878,2.1836,2.0585,1.9682,1.9086,1.8553,1.778,1.7226,1.7041,1.7503,1.7608,1.7608,1.7608,1.7809,1.8116,1.8437,1.8651,1.8918,1.9348,1.9401,0.0,1.9401,1.9655,1.984,1.9947,2.0227,2.0441,2.0535,2.0802,2.0975,2.0975,2.1056,2.1069,2.0975,2.1069,2.1109,2.1109,2.1341,2.1448,2.1448,2.1617,2.175,2.1877,2.1877,2.193,2.1991,2.2191,2.2285,2.2298,2.2532,2.2612,2.2612,2.2612,2.2679,2.276,2.276,2.2813,2.2893,0.0,0.0,0.0,0.0,0.0,0.0,0.0,1.7692,1.799,1.7786,1.6976,1.6335,1.6148,1.5069,1.4381,1.4487,1.4167,0.0,0.0,0.0,0.0,0.0,0.0,0.0,0.0,1.37,1.4253,1.5184,1.6204,1.65,1.6114,1.6964,1.6574,1.5133,1.4839,0.0,0.0,0.0,0.0,0.0,0.0,0.0,1.5808,0.0,0.0,0.0,0.0,0.0,0.0,0.0,0.0,0.0,0.0,0.0,0.0,0.0,2.4064,2.387,2.3447,2.2724,2.1748,2.0372,2.0031,1.9619,1.7965,1.7608,1.7608,1.7608,1.7608,1.7608,1.7608,1.7742,1.8131,1.8959,1.9305,1.9612,2.01,2.0296,2.0259,1.9916,1.992,2.008,2.0374,2.0575,2.0753,2.0828,2.1002,2.1109,2.1109,2.1216,2.1269,2.1269,2.1269,2.1269,2.1269,2.1596,2.1743,2.1756,2.193,2.2044,2.2151,2.2151,2.2205,2.2358,2.2512,2.2579,0.0,2.2813,2.2893,2.2893,2.2893,2.2893,2.2893,2.2893,2.2893,2.2893,0.0,0.0,0.0,0.0,0.0,0.0,0.0,1.7099,1.6735,1.5746,1.5423,1.5221,1.4958,1.4437,1.4202,1.4474,0.0,0.0,0.0,0.0,0.0,0.0,0.0,0.0,0.0,1.4122,1.5034,1.6919,1.7236,1.756,1.7829,1.8153,1.7274,1.5444,1.516,1.4839,0.0,0.0,0.0,0.0,1.5311,1.5591,0.0,0.0,0.0,0.0,0.0,0.0,0.0,0.0,0.0,0.0,0.0,0.0,0.0,0.0,0.0,0.0,0.0,2.27,2.154,2.0148,1.9709,1.9294,1.7924,1.7608,0.0,1.7608,1.7687,1.7714,1.7635,1.7701,1.8283,1.9867,2.023,2.0575,2.131,2.1654,2.1625,2.0999,2.0502,2.0418,2.0894,2.0815,2.0828,2.1122,2.1149,2.1149,2.1176,2.1462,2.1622,2.1622,2.1636,2.1636,2.1622,2.1903,2.2017,2.2017,2.2031,2.2191,2.2458,2.2458,2.2605,2.2893,2.2893,2.2893,2.2893,2.2893,2.2893,2.2893,2.2893,2.2893,2.2893,2.2893,2.2893,2.2893,0.0,0.0,0.0,0.0,0.0,0.0,0.0,0.0,0.0,0.0,1.5133,1.5046,1.437,1.4175,1.4202,0.0,0.0,0.0,0.0,0.0,0.0,0.0,0.0,0.0,0.0,1.4416,1.4958,1.6071,1.7118,1.7392,1.7004,1.7993,1.7615,1.607,1.5548,1.5003,0.0,0.0,0.0,0.0,1.5605,1.5741,0.0,0.0,0.0,0.0,1.5808,1.5808,0.0,0.0,0.0,0.0,0.0,0.0,0.0,0.0,2.0801,2.1152,2.1281,0.0,2.3354,2.2011,2.0893,1.9678,0.0,1.7608,1.7608,1.7608,1.8434,1.8883,1.805,1.8562,1.9403,2.027,2.0521,2.0803,2.1311,2.0939,2.1232,2.2886,2.1602,2.1321,2.3218,2.1943,2.1136,2.1462,2.1475,2.1582,2.1764,2.1844,2.1917,2.1917,2.2098,2.2111,2.1917,2.2178,2.2311,2.2325,2.2586,2.2719,2.2786,2.2786,2.2827,2.2893,2.2893,2.2893,2.2893,2.2893,2.2893,2.2893,2.2893,2.2893,2.2893,2.2893,2.2893,2.2893,0.0,0.0,0.0,0.0,0.0,0.0,0.0,0.0,0.0,0.0,0.0,1.4411,1.4139,1.4103,0.0,0.0,0.0,0.0,0.0,0.0,0.0,0.0,0.0,0.0,0.0,1.4501,1.5241,1.6763,1.7451,1.7816,1.787,1.836,1.783,1.6433,1.5712,1.515,0.0,0.0,0.0,1.5418,1.5688,0.0,0.0,0.0,0.0,0.0,1.5808,1.5808,0.0,1.7416,1.8317,1.8932,0.0,0.0,0.0,0.0,1.9883,2.0369,2.0544,2.1705,2.2603,2.1383,2.0508,1.9564,1.7951,1.7608,1.7608,1.7608,1.8173,1.8503,1.7929,1.8381,1.9168,2.0169,2.0764,2.1658,2.3271,2.1847,2.1441,2.3707,2.2286,2.1601,2.2861,2.1997,2.1462,2.1756,2.1783,2.185,2.1977,2.2111,2.2178,2.2178,2.2472,2.2485,2.2191,2.2472,2.2619,2.2619,2.2813,2.2893,2.2893,2.2893,2.2893,2.2893,2.2893,2.2893,2.2893,2.2893,2.2893,2.2893,2.2893,2.2893,2.2893,2.2893,2.2893,2.2893,0.0,0.0,0.0,0.0,0.0,0.0,0.0,0.0,0.0,0.0,0.0,0.0,0.0,0.0,0.0,0.0,0.0,0.0,0.0,0.0,0.0,0.0,0.0,0.0,1.4576,1.4589,1.5586,1.7665,1.7686,1.8113,1.8897,1.8636,1.7839,1.6607,1.5818,1.5297,0.0,0.0,0.0,1.5484,1.5701,0.0,0.0,0.0,0.0,0.0,0.0,0.0,0.0,1.7323,1.7917,1.8234,1.9036,0.0,0.0,0.0,0.0,0.0,2.0103,2.0211,2.0172,1.9707,1.9446,1.8994,1.7858,1.7608,1.7608,1.7608,1.7766,1.7886,1.7809,1.8117,1.8888,2.0485,2.1486,2.2879,2.5208,2.297,2.1882,2.4019,2.2676,2.1752,2.2092,2.1838,2.177,2.2031,2.2044,2.2071,2.2111,2.2352,2.2485,2.2485,2.276,2.2773,2.2485,2.2773,2.2893,2.2893,2.2893,2.2893,2.2893,2.2893,2.2893,2.2893,2.2893,2.2893,2.2893,2.2893,2.2893,2.2893,2.2893,2.2893,2.2893,2.2893,2.2893,2.2893,0.0,0.0,0.0,0.0,0.0,0.0,0.0,0.0,0.0,0.0,0.0,0.0,0.0,0.0,0.0,0.0,0.0,0.0,0.0,0.0,0.0,0.0,0.0,0.0,0.0,0.0,1.5462,1.6545,1.6766,1.7093,1.75,1.7679,1.7277,1.6351,1.5915,1.5581,1.5337,1.5378,1.5538,1.5741,1.5781,0.0,0.0,0.0,0.0,0.0,0.0,0.0,0.0,1.6062,1.7027,1.7903,1.6786,0.0,0.0,0.0,0.0,0.0,1.7879,1.7095,1.6674,1.9017,1.876,1.7845,1.7661,1.7608,1.7608,1.7608,1.8499,1.9161,1.8765,1.9485,2.0891,2.3271,2.3974,2.402,2.3475,2.2047,2.1965,2.4253,2.2803,2.2387,2.4371,2.2967,2.2044,2.2338,2.2352,2.2458,2.2746,2.28,2.2827,2.2827,2.288,2.288,2.2827,2.288,2.2893,2.2893,2.2893,2.2893,2.2893,2.2893,2.2893,2.2893,2.2893,2.2893,2.2893,2.2893,2.2893,2.2893,2.2893,2.2893,2.2893,2.2893,2.2893,2.2893,0.0,0.0,0.0,0.0,0.0,0.0,0.0,0.0,0.0,0.0,0.0,0.0,0.0,0.0,0.0,0.0,0.0,0.0,0.0,0.0,0.0,0.0,0.0,0.0,0.0,0.0,1.5735,1.6297,1.7281,1.7939,1.8277,1.8223,1.7521,1.6284,1.5941,1.5728,1.5631,1.5631,1.5688,1.5808,0.0,0.0,0.0,0.0,0.0,0.0,0.0,0.0,0.0,0.0,1.6747,1.7194,1.6346,0.0,0.0,0.0,0.0,0.0,1.722,1.6951,1.6669,1.733,1.6476,1.5724,1.6584,1.6787,1.7033,1.79,1.8576,1.8986,1.8896,1.9456,2.0444,2.2082,2.2452,2.2837,2.3706,2.2528,2.2406,2.4609,2.3192,2.2442,2.3534,2.2785,2.2338,2.2632,2.2659,2.2746,2.2893,2.2893,2.2893,2.2893,2.2893,2.2893,2.2893,2.2893,2.2893,2.2893,2.2893,2.2893,2.2893,2.2893,2.2893,2.2893,2.2893,2.2893,2.2893,2.2893,2.2893,2.2893,2.2893,2.2893,2.2893,2.2893,2.2893,2.2893,0.0,0.0,0.0,0.0,0.0,0.0,0.0,0.0,0.0,0.0,0.0,0.0,0.0,0.0,0.0,0.0,0.0,0.0,0.0,0.0,0.0,0.0,0.0,0.0,0.0,0.0,1.6484,1.6856,1.8488,1.9298,1.9304,1.8975,1.7957,1.6391,1.6139,1.5928,1.5808,1.5875,1.5915,1.5901,0.0,0.0,0.0,0.0,0.0,0.0,0.0,0.0,0.0,0.0,0.0,0.0,0.0,0.0,0.0,1.6551,1.6658,1.6887,1.7287,1.7279,1.6942,1.601,1.5205,1.4854,1.5855,1.6394,1.7018,1.832,1.8651,1.8784,1.9078,1.9732,2.0383,2.0748,2.1171,2.2055,2.3749,2.285,2.2613,2.4283,2.3228,2.2445,2.2512,2.2525,2.2619,2.288,2.2893,2.2893,2.2893,2.2893,2.2893,2.2893,2.2893,2.2893,2.2893,2.2893,2.2893,2.2893,2.2893,2.2893,2.2893,2.2893,2.2893,2.2893,2.2893,2.2893,2.2893,2.2893,2.2893,2.2893,2.2893,2.2893,2.2893,2.2893,2.2893,2.2893,0.0,0.0,0.0,0.0,0.0,0.0,0.0,0.0,0.0,0.0,0.0,0.0,0.0,0.0,0.0,0.0,0.0,0.0,0.0,0.0,0.0,0.0,0.0,0.0,0.0,1.7221,1.8007,1.8513,2.0213,2.0539,1.9557,1.9294,1.8264,1.6673,1.6647,0.0,0.0,0.0,1.627,1.6244,1.5939,0.0,0.0,0.0,0.0,0.0,0.0,0.0,0.0,0.0,0.0,0.0,0.0,0.0,1.6754,1.7033,1.7152,1.7274,1.7796,1.6915,1.5873,1.6021,1.6708,1.7102,1.6287,1.7257,1.8418,1.881,1.9118,1.9428,1.9679,2.1438,2.2439,2.1267,2.2585,2.3394,2.2351,2.2076,2.2164,2.2546,2.2485,2.2525,2.284,2.2867,2.288,2.2893,2.2893,2.2893,2.2893,2.2893,2.2893,2.2893,2.2893,2.2893,2.2893,2.2893,2.2893,2.2893,2.2893,2.2893,2.2893,2.2893,2.2893,2.2893,2.2893,2.2893,2.2893,2.2893,2.2893,2.2893,2.2893,2.2893,2.2893,2.2893,2.2893,2.2893,0.0,0.0,0.0,0.0,0.0,0.0,0.0,0.0,0.0,0.0,0.0,0.0,0.0,0.0,0.0,0.0,0.0,0.0,0.0,0.0,0.0,0.0,0.0,1.8099,1.7671,1.9169,2.0055,2.0237,2.1089,2.1309,2.088,1.974,1.8409,1.6993,0.0,0.0,0.0,0.0,1.654,1.6526,1.642,1.6339,0.0,0.0,0.0,0.0,0.0,0.0,0.0,0.0,1.67,1.6622,1.6248,1.654,1.6993,1.6926,1.7033,1.7286,1.7649,1.746,1.6924,1.6078,1.6997,1.7906,1.6877,1.7112,1.798,1.9391,1.9797,2.0232,2.1282,2.1855,2.2219,2.2435,2.2638,2.2631,2.2304,2.2258,2.2365,2.2659,2.2699,2.2773,2.288,2.2893,2.2893,2.2893,2.2893,2.2893,2.2893,2.2893,2.2893,2.2893,2.2893,2.2893,2.2893,2.2893,2.2893,2.2893,2.2893,2.2893,2.2893,2.2893,2.2893,2.2893,2.2893,2.2893,2.2893,2.2893,2.2893,2.2893,2.2893,2.2893,2.2893,2.2893,2.2893,2.2893,0.0,0.0,0.0,0.0,0.0,0.0,0.0,0.0,0.0,0.0,0.0,0.0,0.0,0.0,0.0,0.0,0.0,0.0,0.0,0.0,0.0,0.0,0.0,1.9606,1.9907,2.1569,2.2219,2.1779,2.2153,2.1887,2.1008,1.9765,1.8466,0.0,0.0,0.0,0.0,0.0,0.0,0.0,1.6647,1.6591,0.0,0.0,0.0,0.0,0.0,0.0,0.0,0.0,1.6647,1.6526,1.6313,1.6593,1.7033,1.6994,1.722,1.7501,1.7675,1.7862,1.7791,1.6919,1.761,1.8397,1.811,1.7931,1.8356,2.0028,2.0374,2.0706,2.1842,2.171,2.1755,2.2719,2.2475,2.2231,2.2525,2.2565,2.2632,2.2867,2.2893,2.2893,2.2893,2.2893,2.2893,2.2893,2.2893,2.2893,2.2893,2.2893,2.2893,2.2893,2.2893,2.2893,2.2893,2.2893,2.2893,2.2893,2.2893,2.2893,2.2893,2.2893,2.2893,2.2893,2.2893,2.2893,2.2893,2.2893,2.2893,2.2893,2.2893,2.2893,2.2907,2.3014,2.3041,2.302,0.0,0.0,0.0,0.0,0.0,0.0,0.0,0.0,0.0,0.0,0.0,0.0,0.0,0.0,0.0,0.0,0.0,0.0,1.3909,1.6274,1.7834,1.8076,0.0,2.2317,2.2979,2.4355,2.4398,2.2991,2.3478,2.2265,1.9602,1.9324,0.0,0.0,0.0,0.0,0.0,0.0,0.0,0.0,1.6538,1.6683,1.7139,0.0,0.0,0.0,0.0,0.0,0.0,0.0,1.6513,1.6404,1.7018,1.6966,1.682,1.7434,1.7796,1.7995,1.7995,1.7995,1.8142,1.8743,1.8704,1.8811,1.9943,2.0013,1.9973,2.0592,2.0712,2.0806,2.1056,2.1122,2.1309,2.1917,2.2231,2.2525,2.2853,2.2893,2.2893,2.2893,2.2893,2.2893,2.2893,2.2893,2.2893,2.2893,2.2893,2.2893,2.2893,2.2893,2.2893,2.2893,2.2893,2.2893,2.2893,2.2893,2.2893,2.2893,2.2893,2.2893,2.2893,2.2893,2.2893,2.2893,2.2893,2.2893,2.2893,2.2893,2.2893,2.2893,2.2893,2.2907,2.2947,2.322,2.3292,2.3345,0.0,0.0,0.0,0.0,0.0,0.0,0.0,0.0,0.0,0.0,0.0,0.0,0.0,0.0,0.0,0.0,0.0,0.0,1.4939,1.6682,1.7624,1.746,2.0377,2.1943,2.1802,2.273,2.3297,2.3478,2.269,2.138,1.9576,0.0,0.0,0.0,0.0,0.0,0.0,0.0,0.0,0.0,0.0,1.7045,1.7206,0.0,0.0,0.0,0.0,0.0,0.0,0.0,0.0,0.0,1.678,1.7061,1.7341,1.7314,1.7635,1.7969,1.7782,1.8183,1.8623,1.8624,1.9172,1.9783,2.0117,2.0321,2.0672,2.1462,2.1462,2.166,2.2811,2.2452,2.2347,2.3359,2.3095,2.28,2.288,2.2893,2.2893,2.2893,2.2893,2.2893,2.2893,2.2893,2.2893,2.2893,2.2893,2.2893,2.2893,2.2893,2.2893,2.2893,2.2893,2.2893,2.2893,2.2893,2.2893,2.2893,2.2893,2.2893,2.2893,2.2893,2.2893,2.2893,2.2893,2.2893,2.2893,2.2893,2.3027,2.3193,2.3193,2.3313,2.3549,2.3607,2.3634,2.3647,0.0,0.0,0.0,0.0,0.0,0.0,0.0,0.0,1.5402,1.4734,1.532,1.551,0.0,0.0,0.0,1.5795,1.6103,0.0,1.6044,1.798,1.8969,1.8619,2.1234,2.2478,2.1982,2.2589,2.2635,2.2064,2.1158,2.0056,0.0,0.0,0.0,0.0,0.0,0.0,0.0,0.0,0.0,0.0,0.0,1.7273,1.7354,0.0,0.0,0.0,0.0,0.0,0.0,0.0,0.0,0.0,1.6872,1.7153,1.7448,1.7515,1.7929,1.8356,1.8303,1.8771,1.9292,1.9345,1.98,2.0317,2.0828,2.0975,2.1208,2.1729,2.1796,2.2043,2.305,2.2794,2.2693,2.3544,2.3261,2.2893,2.2893,2.2893,2.2893,2.2893,2.2893,2.2893,2.2893,2.2893,2.2893,2.2893,2.2893,2.2893,2.2893,2.2893,2.2893,2.2893,2.2893,2.2893,2.2893,2.2893,2.2893,2.2893,2.2893,2.2893,2.2893,2.2893,2.2893,2.2893,2.2893,2.2893,2.2907,2.2993,2.3153,2.3305,2.346,2.3607,2.3817,2.3937,2.3941,2.3955,0.0,0.0,0.0,0.0,0.0,0.0,0.0,1.5565,1.5498,1.5768,1.5808,1.5808,0.0,0.0,0.0,1.5974,1.6978,1.7505,1.7198,1.9743,2.1059,2.0604,2.2452,2.3279,2.2827,2.3128,2.2038,1.9557,1.9309,1.8665,0.0,0.0,1.7367,0.0,0.0,0.0,0.0,0.0,0.0,0.0,0.0,1.7327,1.7582,1.734,0.0,0.0,0.0,0.0,0.0,0.0,0.0,0.0,1.7127,1.7246,1.7327,1.7809,1.8409,1.8943,1.9254,1.9559,1.9973,2.0539,2.0494,2.061,2.1737,2.1836,2.1676,2.1703,2.189,2.2111,2.2405,2.2458,2.2552,2.2853,2.2893,2.2893,2.2893,2.2893,2.2893,2.2893,2.2893,2.2893,2.2893,2.2893,2.2893,2.2893,2.2893,2.2893,2.2893,2.2893,2.2893,2.2893,2.2893,2.2893,2.2893,2.2893,2.2893,2.2893,2.2893,2.2893,2.2893,2.2893,2.2907,2.2934,2.2934,2.296,2.3,2.3247,2.3345,2.3399,2.3701,2.3857,2.3888,2.4142,2.4249,2.4275,0.0,0.0,0.0,0.0,0.0,0.0,1.5431,1.5431,1.5498,1.5768,1.5808,1.5808,1.5808,1.5808,0.0,1.7194,1.72,1.7576,1.859,2.0013,2.0523,1.9794,2.0636,2.1247,2.1443,2.05,1.9769,1.9304,1.9229,1.8665,0.0,0.0,0.0,0.0,0.0,0.0,0.0,0.0,0.0,0.0,0.0,0.0,1.7595,1.7541,1.7515,0.0,0.0,0.0,0.0,0.0,0.0,0.0,1.7421,1.7515,1.7541,1.7649,1.8263,1.8863,1.8718,1.9399,2.0144,2.0264,2.0802,2.1422,2.1871,2.2111,2.2298,2.2572,2.2445,2.2418,2.2746,2.28,2.2827,2.288,2.2893,2.2893,2.2893,2.2893,2.2893,2.2893,2.2893,2.2893,2.2893,2.2893,2.2893,2.2893,2.2893,2.2893,2.2893,2.2893,2.2893,2.2893,2.2893,2.2893,2.2893,2.2893,2.2893,2.2893,2.2893,2.2893,2.2893,2.2893,2.2993,2.322,2.322,2.3354,2.3616,2.3683,2.3808,2.4022,2.4088,2.4249,2.4412,2.4479,2.4506,2.4519,0.0,0.0,0.0,0.0,0.0,0.0,0.0,0.0,1.5605,1.5618,1.5715,1.5954,1.6327,1.6383,0.0,0.0,1.7763,1.7941,1.8638,1.9446,1.9961,2.0022,2.0464,2.058,2.0332,1.9654,1.9005,1.8414,1.8298,1.7953,0.0,0.0,0.0,0.0,0.0,0.0,0.0,0.0,0.0,0.0,0.0,0.0,0.0,0.0,1.7608,1.7608,1.7608,0.0,0.0,0.0,0.0,0.0,0.0,0.0,1.7635,1.7756,1.8303,1.893,1.9078,1.9773,2.0508,2.0788,2.1416,2.2004,2.2164,2.2418,2.2672,2.2867,2.2773,2.2672,2.2867,2.2893,2.2893,2.2893,2.2893,2.2893,2.2893,2.2893,2.2893,2.2893,2.2893,2.2893,2.2893,2.2893,2.2893,2.2893,2.2893,2.2893,2.2893,2.2893,2.2893,2.2893,2.2893,2.2893,2.2893,2.2893,2.2893,2.2893,2.2893,2.2974,2.3086,2.3086,2.318,2.3305,2.3474,2.3621,2.3817,2.3928,2.4062,2.4222,2.4356,2.4466,2.4599,2.4599,2.4599,2.4599,0.0,0.0,0.0,0.0,0.0,0.0,0.0,0.0,0.0,1.5418,1.5581,1.6043,1.6896,1.6777,1.7078,0.0,0.0,0.0,1.8333,1.8719,1.9327,2.02,2.0303,2.0002,1.9265,1.9221,1.8594,1.7435,1.7274,0.0,0.0,0.0,0.0,0.0,0.0,0.0,0.0,0.0,0.0,0.0,0.0,0.0,0.0,0.0,0.0,0.0,1.7608,1.7608,1.7608,1.7608,0.0,0.0,0.0,0.0,1.7635,1.7862,1.8521,1.9285,1.9804,2.0468,2.114,2.162,2.2071,2.2432,2.2485,2.2686,2.2893,2.2893,2.2893,2.2893,2.2893,2.2893,2.2893,2.2893,2.2893,2.2893,2.2893,2.2893,2.2893,2.2893,2.2893,2.2893,2.2893,2.2893,2.2893,2.2893,2.2893,2.2893,2.2893,2.2893,2.2893,2.2893,2.2893,2.2893,2.2893,2.2893,2.2893,2.2893,2.2947,2.31,2.3407,2.3425,2.3474,2.3452,2.3741,2.391,2.3977,2.4182,2.4275,2.4302,2.4506,2.4599,2.4599,2.4599,2.4599,2.4599,0.0,0.0,0.0,0.0,0.0,0.0,0.0,0.0,0.0,0.0,1.5431,1.5833,1.6904,1.5951,1.6115,1.8186,1.7433,1.7464,1.8891,0.0,0.0,1.8748,1.8106,1.7766,1.7858,1.7639,1.7279,1.682,1.7073,0.0,0.0,0.0,0.0,0.0,0.0,0.0,0.0,0.0,0.0,0.0,0.0,0.0,0.0,0.0,0.0,0.0,0.0,0.0,1.7608,1.7608,1.7608,0.0,0.0,0.0,1.7622,1.7635,1.8898,2.0294,2.0382,2.1409,2.2405,2.2314,2.2365,2.2485,2.2773,2.2867,2.2893,2.2893,2.2893,2.2893,2.2893,2.2893,2.2893,2.2893,2.2893,2.2893,2.2893,2.2893,2.2893,2.2893,2.2893,2.2893,2.2893,2.2893,2.2893,2.2893,2.2893,2.2893,2.2893,2.2893,2.2893,2.2893,2.2893,2.2893,2.2893,2.2893,2.2893,2.2893,2.314,2.342,2.375,2.3968,2.4088,2.4088,2.4128,2.4289,2.4492,2.4532,2.4546,2.4546,2.4586,2.4599,2.4599,2.4599,2.4599,2.4599,0.0,0.0,0.0,0.0,0.0,0.0,0.0,0.0,0.0,0.0,0.0,1.5915,1.6691,1.6241,1.6417,1.7679,1.6743,1.6311,1.6766,1.6988,1.7141,1.7243,1.7229,1.7179,1.7088,1.7153,1.7033,1.67,0.0,0.0,0.0,1.7569,1.7876,0.0,0.0,0.0,0.0,0.0,0.0,0.0,0.0,0.0,0.0,0.0,0.0,0.0,0.0,0.0,0.0,1.7809,1.7729,1.7608,1.7608,0.0,0.0,0.0,2.0144,2.1748,2.1821,2.2363,2.2853,2.2496,2.2539,2.2699,2.2867,2.2893,2.2893,2.2893,2.2893,2.2893,2.2893,2.2893,2.2893,2.2893,2.2893,2.2893,2.2893,2.2893,2.2893,2.2893,2.2893,2.2893,2.2893,2.2893,2.2893,2.2893,2.2893,2.2893,2.2893,2.2893,2.2893,2.2893,2.2893,2.2893,2.2893,2.2893,2.2987,2.3126,2.3434,2.3728,2.4022,2.4142,2.4209,2.4209,2.4382,2.4479,2.4599,2.4599,2.4599,2.4599,2.4599,2.4599,2.4599,2.4599,2.4599,2.4599,0.0,0.0,0.0,0.0,0.0,0.0,0.0,0.0,0.0,0.0,0.0,1.5874,1.6625,0.0,0.0,0.0,1.6018,1.5276,1.5013,1.5668,1.611,1.6152,1.6752,1.6953,1.6714,1.6953,1.6913,1.6593,0.0,0.0,1.7622,1.8022,1.8396,0.0,1.8223,0.0,0.0,0.0,0.0,0.0,1.8162,1.8347,0.0,0.0,0.0,0.0,0.0,0.0,0.0,0.0,0.0,0.0,0.0,0.0,0.0,0.0,0.0,2.3178,2.3499,2.3666,2.358,2.286,2.2975,2.3181,2.2969,2.2893,2.2893,2.2893,2.2893,2.2893,2.2893,2.2893,2.2893,2.2893,2.2893,2.2893,2.2893,2.2893,2.2893,2.2893,2.2893,2.2893,2.2893,2.2893,2.2893,2.2893,2.2893,2.2893,2.2893,2.2893,2.2893,2.2893,2.2893,2.2893,2.2893,2.2974,2.3166,2.3519,2.3781,2.4035,2.4315,2.4315,2.4315,2.4329,2.4506,2.4599,2.4599,2.4599,2.4599,2.4599,2.4599,2.4599,2.4599,2.4599,2.4599,2.4613,0.0,0.0,0.0,0.0,0.0,0.0,0.0,0.0,0.0,0.0,0.0,1.5535,1.6845,1.5553,1.503,1.6074,1.5182,1.4695,1.4981,1.528,1.5565,1.5821,1.6395,0.0,1.67,1.6727,1.658,0.0,0.0,0.0,1.7622,1.8464,1.9038,1.9308,1.8396,1.8736,1.9944,0.0,0.0,0.0,0.0,1.9421,0.0,0.0,0.0,0.0,0.0,0.0,0.0,0.0,0.0,0.0,0.0,0.0,0.0,0.0,0.0,0.0,2.5305,2.5559,2.5247,2.3896,2.3852,2.3919,2.31,2.2893,2.2893,2.2893,2.2893,2.2893,2.2893,2.2893,2.2893,2.2893,2.2893,2.2893,2.2893,2.2893,2.2893,2.2893,2.2893,2.2893,2.2893,2.2893,2.2893,2.2893,2.2893,2.2893,2.2893,2.2893,2.2893,2.2893,2.2893,2.2893,2.2893,2.3153,2.3559,2.4155,2.4168,2.4329,2.4572,2.4572,2.4572,2.4572,2.4586,2.4599,2.4599,2.4599,2.4599,2.4599,2.4599,2.4599,2.4599,2.4599,2.4599,2.4639,0.0,0.0,0.0,0.0,0.0,0.0,0.0,0.0,0.0,0.0,0.0,0.0,0.0,0.0,0.0,1.483,1.4816,0.0,0.0,1.5404,1.5701,1.5808,1.6393,1.662,1.6458,1.6607,0.0,0.0,0.0,1.714,1.7622,1.8317,1.8905,1.9361,1.8637,1.8699,1.9306,1.8792,0.0,0.0,0.0,0.0,0.0,0.0,0.0,0.0,0.0,0.0,0.0,0.0,0.0,0.0,0.0,0.0,0.0,0.0,0.0,2.5716,2.5991,2.568,2.5131,2.4574,2.447,2.4511,2.444,2.4013,2.3611,2.3611,2.3236,2.2893,2.2893,2.2893,2.2893,2.2893,2.2893,2.2893,2.2893,2.2893,2.2893,2.2893,2.2893,2.2893,2.2893,2.2893,2.2893,2.2893,2.2893,2.2893,2.2893,2.2893,2.2893,2.2893,2.2893,2.2987,2.3153,2.3647,2.3995,2.4209,2.4359,2.4492,2.4599,2.4599,2.4599,2.4599,2.4599,2.4599,2.4599,2.4599,2.4599,2.4599,2.4599,2.4719,2.4917,2.4917,2.5037,2.5173,0.0,0.0,0.0,0.0,0.0,0.0,0.0,0.0,0.0,0.0,0.0,0.0,0.0,0.0,0.0,1.4282,1.4705,1.5008,1.5008,1.5418,1.5661,1.5661,1.6339,1.6567,1.631,0.0,0.0,0.0,0.0,0.0,0.0,0.0,1.8838,1.9199,1.8704,0.0,0.0,0.0,0.0,1.8586,0.0,0.0,1.9663,0.0,0.0,0.0,0.0,0.0,0.0,0.0,0.0,0.0,0.0,0.0,0.0,0.0,0.0,0.0,2.6796,2.6224,2.5676,2.5591,2.5291,2.5219,2.5881,2.5365,2.4746,2.4848,2.4312,2.3665,2.3338,2.3065,2.2893,2.2893,2.2893,2.2893,2.2893,2.2893,2.2893,2.2893,2.2893,2.2893,2.2893,2.2893,2.2893,2.2893,2.2893,2.2893,2.2893,2.2893,2.2947,2.302,2.3148,2.3313,2.3585,2.4008,2.4249,2.4356,2.4506,2.4599,2.4599,2.4599,2.4599,2.4599,2.4599,2.4599,2.4599,2.4599,2.4653,2.4783,2.4783,2.497,2.5224,2.5224,2.5344,2.5531,0.0,0.0,0.0,0.0,0.0,0.0,0.0,0.0,0.0,0.0,0.0,0.0,0.0,0.0,0.0,0.0,1.4839,1.5035,1.4999,1.5267,1.5404,1.5404,0.0,0.0,0.0,0.0,0.0,0.0,0.0,0.0,0.0,0.0,1.8876,0.0,1.8624,1.8664,1.8988,0.0,1.9946,1.8695,0.0,2.06,1.9105,0.0,0.0,0.0,2.0537,2.1087,0.0,0.0,0.0,0.0,0.0,0.0,0.0,0.0,0.0,0.0,0.0,0.0,0.0,2.6925,2.6308,2.6028,2.7227,2.6833,2.6259,2.652,2.5956,2.5166,2.4156,2.3372,2.2893,2.2893,2.2893,2.2893,2.2893,2.2893,2.2893,2.2893,2.2928,2.2928,2.2928,2.2962,2.2962,2.2928,2.2928,2.2928,2.2893,2.2907,2.3054,2.3292,2.3634,2.395,2.4195,2.4209,2.4356,2.4599,2.4599,2.4599,2.4599,2.4599,2.4599,2.4599,2.4613,2.4613,2.4613,2.4613,2.4823,2.509,2.509,2.5277,2.5531,2.5531,2.5531,2.5585,0.0,0.0,0.0,0.0,0.0,1.658,1.658,1.6446,0.0,0.0,0.0,0.0,0.0,0.0,0.0,0.0,1.5418,1.5498,1.5297,1.5551,1.5688,1.5688,1.6353,1.6673,0.0,0.0,0.0,0.0,0.0,0.0,0.0,0.0,0.0,0.0,1.881,1.8971,1.9269,1.9192,0.0,0.0,1.9807,2.0115,0.0,0.0,0.0,0.0,0.0,2.4174,0.0,0.0,2.5974,2.6035,0.0,0.0,0.0,0.0,0.0,0.0,2.7285,0.0,0.0,0.0,0.0,0.0,2.7589,2.6917,2.5975,2.5703,2.5076,2.4272,2.3358,2.303,2.2893,2.2893,2.2893,2.2893,2.2893,2.2893,2.2893,2.2893,2.3372,2.3679,2.3679,2.4122,2.4224,0.0,2.3679,2.3441,2.2928,2.3073,2.334,2.3634,2.3928,2.4115,2.4209,2.4372,2.4519,2.4599,2.4599,2.4599,2.4599,2.4599,2.4599,2.4613,2.4863,2.4957,2.4957,2.4957,2.513,2.5398,2.5398,2.5571,2.5877,2.5877,2.5972,2.6159,0.0,0.0,1.7301,1.7101,1.6967,1.6913,1.6913,1.678,0.0,0.0,0.0,0.0,0.0,0.0,0.0,0.0,1.6286,1.6337,1.6163,1.6166,1.6139,1.6019,1.6605,1.6834,1.6714,0.0,0.0,0.0,0.0,0.0,0.0,0.0,0.0,0.0,0.0,0.0,0.0,0.0,0.0,0.0,1.9803,0.0,0.0,2.2551,2.2651,0.0,0.0,0.0,2.464,2.6343,2.6946,0.0,0.0,0.0,0.0,0.0,0.0,0.0,0.0,0.0,0.0,0.0,0.0,0.0,0.0,2.8323,2.7594,2.7984,2.7455,2.6515,2.5155,2.5027,2.4824,2.3918,2.4142,2.4074,2.3065,2.2893,2.2893,2.2893,2.327,2.3543,2.3543,2.3884,2.3952,2.3577,2.3543,2.3393,2.3081,2.346,2.3768,2.3941,2.4235,2.4382,2.4382,2.4519,2.4599,2.4599,2.4599,2.4599,2.4599,2.4599,2.4666,2.4836,2.501,2.5262,2.5489,2.5489,2.5583,2.5692,2.5692,2.5917,2.6172,2.6172,2.6279,2.6386,0.0,0.0,1.7608,1.7608,1.7421,1.7286,1.7259,1.706,1.6887,0.0,0.0,0.0,0.0,0.0,0.0,0.0,0.0,1.7233,1.7206,1.6899,1.6593,1.6351,1.6872,1.7073,1.6807,1.706,0.0,0.0,0.0,0.0,0.0,0.0,0.0,0.0,1.889,1.9164,1.9606,1.9135,0.0,1.9796,2.0399,2.0408,0.0,0.0,2.2254,0.0,2.3747,2.4543,2.4921,2.6054,2.6818,0.0,0.0,0.0,0.0,0.0,2.8318,0.0,0.0,0.0,0.0,0.0,0.0,0.0,0.0,2.9911,2.9755,3.1015,3.0714,2.9665,2.7818,2.7703,2.7277,2.5371,2.5895,2.5704,2.3359,2.3099,2.3099,2.303,2.3167,2.3236,2.3133,2.3201,2.3201,2.303,2.2968,2.306,2.3372,2.3915,2.4222,2.4249,2.4466,2.4599,2.4599,2.4599,2.4599,2.4599,2.4599,2.4613,2.4653,2.4653,2.485,2.5168,2.5157,2.5516,2.5998,2.6038,2.6038,2.6038,2.6038,2.6198,2.6386,2.6386,2.6386,2.6386,1.7555,1.7608,1.7608,1.7608,1.7742,1.7756,1.7555,1.7889,0.0,0.0,0.0,0.0,0.0,0.0,0.0,0.0,0.0,0.0,1.7219,1.6899,1.6687,1.662,1.6993,1.726,1.7434,1.7286,1.7408,0.0,0.0,0.0,0.0,0.0,0.0,0.0,0.0,1.9749,2.1088,0.0,0.0,2.1816,2.0725,0.0,2.1811,2.2664,2.3534,2.4411,2.5393,2.6493,2.7619,0.0,2.8525,2.8491,0.0,0.0,0.0,0.0,0.0,0.0,0.0,0.0,0.0,0.0,0.0,0.0,0.0,2.791,2.793,2.7482,2.7029,2.6539,2.6107,2.6073,2.598,2.5545,2.5847,2.558,2.4026,2.4258,2.4394,2.385,2.48,2.5225,2.4665,2.5124,2.5003,2.385,2.3445,2.3474,2.4008,2.4142,2.4315,2.4506,2.4572,2.4599,2.4599,2.4599,2.4599,2.4599,2.4599,2.4719,2.4997,2.4997,2.5157,2.5438,2.5717,2.5891,2.6011,2.6252,2.6306,2.6306,2.6306,2.6333,2.6386,2.6386,2.6386,2.6386,1.7582,1.7608,1.7635,1.7782,1.8036,1.8183,1.8063,1.8424,0.0,0.0,0.0,0.0,0.0,0.0,0.0,0.0,0.0,0.0,0.0,1.7542,1.7235,1.6966,1.7355,1.7595,1.7608,1.7769,1.7969,1.8236,0.0,0.0,0.0,0.0,0.0,0.0,0.0,0.0,0.0,0.0,2.1104,2.2008,2.142,0.0,2.2779,2.4108,2.4993,2.5644,2.6383,2.6894,2.7227,2.7263,2.7397,0.0,0.0,2.6663,2.7078,0.0,2.7714,2.7758,0.0,0.0,0.0,2.6855,0.0,0.0,0.0,0.0,2.835,2.8549,2.8248,2.7778,2.724,2.7541,2.7611,2.6772,2.7574,2.7774,2.6205,2.5119,2.436,2.402,2.4631,2.5037,2.5003,2.5341,2.5163,2.4279,2.4484,2.4508,2.4218,2.4693,2.4879,2.4599,2.4599,2.4599,2.4599,2.4599,2.4599,2.4599,2.4783,2.493,2.5077,2.5237,2.5451,2.5745,2.5931,2.6078,2.6225,2.6333,2.6386,2.6386,2.6386,2.6386,2.6386,2.6386,2.6386,2.6386,1.7622,1.7608,1.7675,1.7942,1.8263,1.849,1.849,1.8784,0.0,0.0,0.0,0.0,0.0,0.0,0.0,0.0,0.0,0.0,0.0,0.0,1.809,1.7648,1.7929,1.8063,1.8009,1.833,1.8544,1.8664,1.8838,0.0,0.0,0.0,0.0,0.0,0.0,0.0,0.0,0.0,0.0,2.26,0.0,2.3151,2.3811,2.5573,2.6196,2.6216,2.6637,2.6383,2.5853,2.5502,0.0,2.6139,2.5738,2.6078,0.0,0.0,0.0,0.0,0.0,0.0,0.0,0.0,0.0,2.7266,0.0,0.0,0.0,0.0,0.0,0.0,0.0,0.0,0.0,2.7907,0.0,0.0,0.0,2.5939,0.0,2.4751,2.468,2.4805,2.5353,2.5271,2.4989,2.4539,2.5554,2.5682,2.4589,2.5331,2.5433,2.4636,2.4599,2.4599,2.4599,2.4599,2.4599,2.4599,2.4943,2.5141,2.517,2.5464,2.5758,2.6078,2.6078,2.6212,2.6386,2.6386,2.6386,2.6386,2.6386,2.6386,2.6386,2.6386,2.6386,2.6386,1.7662,1.7608,1.7675,1.7942,1.8263,1.849,1.849,1.8986,0.0,0.0,0.0,0.0,0.0,0.0,0.0,0.0,0.0,0.0,1.9693,0.0,0.0,1.9147,1.8705,1.8784,1.9533,1.8851,1.8744,1.9294,1.9038,0.0,0.0,0.0,0.0,0.0,1.9933,0.0,0.0,0.0,2.3859,0.0,2.5389,2.5282,0.0,2.6407,2.655,2.6278,2.5535,2.5206,2.5094,0.0,2.5685,2.6872,0.0,2.7255,0.0,0.0,0.0,0.0,0.0,0.0,0.0,0.0,2.8406,0.0,0.0,0.0,0.0,0.0,0.0,0.0,0.0,0.0,0.0,0.0,0.0,0.0,2.7783,0.0,0.0,0.0,2.7115,2.6825,2.6773,2.6233,2.5603,2.4904,2.6062,2.6439,2.5665,2.5735,2.5433,2.4636,2.4599,2.4599,2.4599,2.4599,2.4599,2.4599,2.4943,2.5211,2.5478,2.5772,2.6105,2.6333,2.6333,2.636,2.6386,2.6386,2.6386,2.6386,2.6386,2.6386,2.6386,2.6386,2.6386,2.6386,1.7889,1.7996,1.8196,1.8476,1.8798,1.9027,1.9027,1.9374,0.0,0.0,0.0,0.0,0.0,0.0,0.0,0.0,0.0,2.0428,0.0,0.0,0.0,0.0,1.8784,1.8918,1.925,1.9105,1.9147,1.9401,1.9267,0.0,0.0,0.0,0.0,0.0,2.009,0.0,2.2886,0.0,0.0,0.0,0.0,0.0,0.0,2.6408,2.6059,2.5553,2.5137,2.4733,2.4413,0.0,2.5277,0.0,0.0,0.0,0.0,0.0,0.0,0.0,0.0,0.0,0.0,0.0,0.0,0.0,2.8027,0.0,2.8184,0.0,0.0,0.0,0.0,0.0,0.0,0.0,0.0,0.0,0.0,0.0,0.0,0.0,0.0,0.0,0.0,0.0,0.0,0.0,2.6068,2.6067,2.4948,2.5921,2.591,2.4636,2.4599,2.4599,2.4599,2.481,2.489,2.4903,2.5409,2.592,2.6466,2.63,2.6541,2.7083,2.6584,2.6386,2.6386,2.6386,2.6386,2.6386,2.6386,2.6386,2.6386,2.6386,2.6386,2.6386,1.8303,0.0,0.0,1.885,1.9105,1.9308,1.9388,1.9181,0.0,0.0,0.0,0.0,1.9325,1.91,0.0,0.0,0.0,1.9576,0.0,0.0,1.9266,0.0,1.8976,0.0,0.0,1.9495,1.9401,1.9401,1.9401,1.9441,0.0,0.0,0.0,0.0,0.0,2.1485,2.2365,0.0,0.0,2.5671,2.579,2.5957,2.6178,2.5851,2.5286,2.4728,2.4662,2.4436,2.416,2.416,2.5303,0.0,2.6569,0.0,0.0,0.0,0.0,0.0,2.9401,0.0,0.0,0.0,0.0,0.0,0.0,0.0,0.0,0.0,0.0,0.0,0.0,0.0,0.0,0.0,0.0,0.0,0.0,0.0,0.0,0.0,0.0,0.0,0.0,0.0,0.0,0.0,0.0,2.6023,2.49,2.6213,2.6371,2.4954,2.4931,2.4861,2.4756,2.5194,2.5493,2.5574,2.632,2.6954,2.7494,2.6946,2.7057,2.7555,2.6742,2.6386,2.6386,2.6386,2.6386,2.6386,2.6386,2.644,2.6493,2.6413,2.6386,2.64,1.8863,1.8677,0.0,1.885,1.8903,1.9038,1.9348,1.8081,0.0,0.0,0.0,0.0,0.0,0.0,0.0,0.0,0.0,1.741,1.6942,0.0,1.8893,0.0,0.0,2.0043,0.0,2.0124,1.9401,1.9401,1.9401,1.9535,1.9773,0.0,0.0,0.0,0.0,2.2811,2.2692,2.5853,2.6444,2.537,2.6088,2.5596,2.4521,0.0,2.4444,2.4002,2.3879,0.0,0.0,2.4483,2.6079,0.0,0.0,0.0,0.0,0.0,0.0,0.0,0.0,0.0,0.0,2.9308,0.0,0.0,0.0,0.0,2.8789,0.0,0.0,0.0,0.0,0.0,0.0,0.0,0.0,0.0,0.0,0.0,0.0,0.0,0.0,0.0,0.0,0.0,0.0,0.0,0.0,0.0,2.6434,2.6778,2.6626,2.58,2.5763,2.5548,2.5101,2.5851,2.6416,2.6747,2.7822,2.8326,2.8341,2.7806,2.7594,2.7555,2.6742,2.6386,2.6386,2.6386,2.6386,2.6386,2.6386,2.656,2.6774,2.6493,2.6386,2.6426,0.0,0.0,1.9134,1.9227,1.9212,1.9319,1.9613,1.9197,0.0,0.0,0.0,0.0,0.0,1.644,1.6674,0.0,0.0,1.7171,1.6708,1.8025,0.0,0.0,0.0,2.0267,0.0,0.0,1.9653,1.9653,1.9495,1.9441,1.9535,0.0,0.0,0.0,0.0,2.3262,0.0,0.0,0.0,0.0,0.0,2.5498,2.5338,0.0,0.0,2.4596,2.4524,2.5474,0.0,2.6681,2.8295,3.0396,3.0983,3.1789,3.2656,3.3442,3.3313,0.0,0.0,0.0,3.3144,3.1103,0.0,0.0,0.0,0.0,0.0,0.0,0.0,0.0,0.0,0.0,0.0,0.0,0.0,0.0,0.0,0.0,0.0,0.0,0.0,0.0,0.0,0.0,0.0,0.0,0.0,0.0,0.0,2.597,2.6156,2.5028,2.6056,2.6381,2.5888,2.6871,2.7543,2.786,2.8448,2.8725,2.8725,2.7944,2.7594,2.7555,2.6742,2.6386,2.6386,2.6386,2.6386,2.6413,2.66,2.6734,2.6774,2.6707,2.68,2.7028,1.7015,0.0,1.9401,1.9401,1.9481,1.9615,0.0,0.0,0.0,0.0,1.6478,0.0,1.4876,0.0,1.4911,0.0,1.5387,1.5579,1.581,1.6898,0.0,1.8972,1.958,0.0,0.0,0.0,0.0,2.0107,1.9813,1.9679,1.9696,2.047,0.0,0.0,0.0,2.3566,2.347,0.0,2.4937,0.0,0.0,2.5672,0.0,0.0,2.559,2.5682,0.0,2.657,2.7831,2.8344,2.9724,3.1447,3.2543,3.3259,3.3854,3.4589,3.457,3.4245,3.3965,3.4277,0.0,3.2422,3.2187,0.0,2.9707,0.0,0.0,0.0,0.0,0.0,0.0,0.0,0.0,0.0,0.0,0.0,0.0,0.0,0.0,0.0,0.0,0.0,0.0,0.0,0.0,0.0,0.0,0.0,0.0,0.0,2.6186,2.5456,2.6852,2.7254,2.6505,2.7859,2.8714,2.9002,2.952,2.9625,2.9314,2.8769,2.8182,2.7555,2.7057,2.6663,2.6386,2.6386,2.6453,2.656,2.6747,2.6947,2.7121,2.7014,2.7161,2.7443,1.7032,0.0,1.9441,1.9441,1.9626,0.0,0.0,0.0,1.5929,0.0,1.3424,1.1705,1.164,1.1732,1.1813,1.1807,1.1979,0.0,1.4176,1.4726,0.0,0.0,1.9772,2.0436,2.2385,0.0,0.0,0.0,0.0,0.0,2.0184,1.9843,0.0,0.0,2.3702,0.0,2.2185,2.6504,2.6662,2.412,2.5146,2.6257,2.7403,2.8361,2.8213,2.7408,2.7284,2.7557,2.8235,2.955,3.0553,3.1595,3.3727,3.4383,3.459,3.5655,3.5982,3.584,3.5,3.4766,3.4453,3.3203,3.2871,0.0,0.0,0.0,3.1572,0.0,0.0,0.0,0.0,0.0,0.0,0.0,0.0,0.0,0.0,0.0,0.0,0.0,0.0,0.0,0.0,0.0,0.0,0.0,0.0,0.0,0.0,0.0,2.666,2.7012,2.8084,2.8044,2.6875,2.8752,2.9847,3.0168,3.0994,3.0956,3.009,3.0052,2.9158,2.7594,2.7555,2.7097,2.6413,2.6413,2.6587,2.6841,2.6854,2.7215,2.7682,2.7456,2.7523,2.7682,1.7297,1.8753,1.9983,0.0,1.9893,1.9515,0.0,0.0,0.0,0.0,1.3929,1.3122,1.2079,1.2081,1.2128,1.2013,1.2077,0.0,0.0,0.0,0.0,1.7963,2.0148,2.176,2.276,2.167,0.0,2.1689,0.0,0.0,2.0258,2.2467,2.3423,0.0,0.0,0.0,2.6263,2.7077,2.7411,2.741,2.7665,2.9129,0.0,0.0,3.1288,3.1867,3.0741,3.1334,3.268,3.3013,3.3865,3.4834,3.5382,3.5553,3.5621,3.5913,3.5982,3.5942,3.5742,3.5684,3.5449,3.4453,3.3984,3.3449,0.0,0.0,0.0,0.0,0.0,0.0,0.0,0.0,0.0,0.0,0.0,0.0,0.0,0.0,0.0,0.0,0.0,0.0,0.0,0.0,0.0,0.0,0.0,0.0,0.0,0.0,0.0,2.7382,2.7629,2.771,2.7708,2.8965,3.0115,3.1071,3.1279,3.0956,3.009,2.947,2.8612,2.7555,2.6978,2.6705,2.6707,2.6707,2.6881,2.7175,2.7388,2.7696,2.8058,2.7991,2.8005,2.8058,1.7617,0.0,0.0,2.0802,0.0,0.0,1.8398,1.7695,0.0,1.5399,1.4745,0.0,1.3192,1.258,1.2166,1.1972,1.2354,0.0,1.4106,0.0,0.0,1.9783,2.1252,2.2431,2.3295,2.2653,0.0,2.2178,0.0,0.0,2.1483,2.3014,2.4001,0.0,0.0,2.7995,2.7225,2.7925,2.8544,2.9122,2.9654,0.0,0.0,3.2751,3.3546,3.4596,3.3792,3.3519,3.3658,3.4142,3.4746,3.5386,3.6059,3.6309,3.6348,3.6523,3.6582,3.6582,3.6582,3.6445,3.6191,3.5684,3.5234,3.4629,3.3535,3.3633,3.3848,0.0,0.0,0.0,0.0,0.0,0.0,0.0,0.0,0.0,0.0,0.0,0.0,0.0,0.0,0.0,0.0,0.0,0.0,0.0,0.0,0.0,0.0,0.0,0.0,2.9029,2.9158,2.9054,2.8746,2.9685,3.0573,3.1395,3.1395,3.0763,2.9586,2.947,2.8607,2.7249,2.717,2.7107,2.7014,2.7014,2.7188,2.7482,2.7817,2.8031,2.8179,2.8179,2.8179,2.8179,0.0,0.0,0.0,0.0,0.0,0.0,0.0,1.7251,0.0,1.6167,0.0,1.4306,1.4107,1.3,1.2266,1.2237,0.0,1.4717,1.7157,1.7713,1.9448,2.2854,2.2543,2.2803,2.3821,2.379,0.0,0.0,0.0,0.0,2.3066,2.2718,2.3399,0.0,0.0,0.0,0.0,2.921,3.0161,3.0488,3.1596,3.2702,3.382,3.4463,3.533,3.6157,3.6157,3.4897,3.3366,3.4304,3.4633,3.4919,3.6344,3.6792,3.6851,3.7187,3.7305,3.7305,3.7305,3.7031,3.6773,3.6714,3.6387,3.5898,3.5059,3.4863,3.4863,3.4863,3.4277,3.4082,0.0,0.0,0.0,0.0,0.0,0.0,0.0,0.0,0.0,0.0,0.0,0.0,0.0,0.0,0.0,0.0,0.0,0.0,0.0,0.0,0.0,3.1129,3.1224,3.0762,2.9717,3.0447,3.1001,3.1395,3.1395,3.0678,2.931,2.9933,2.9159,2.7404,2.7965,2.793,2.7526,2.7403,2.7536,2.7789,2.8085,2.8179,2.8179,2.8179,2.8179,2.8179,0.0,0.0,0.0,0.0,0.0,1.542,1.7011,1.5695,1.4014,1.2674,1.2531,1.2531,1.2503,1.2851,1.3482,1.4433,1.5305,0.0,0.0,0.0,0.0,2.1306,2.2716,2.3696,2.4128,2.3647,2.3292,0.0,0.0,0.0,2.2944,2.3952,2.5276,0.0,0.0,0.0,3.137,3.1534,0.0,3.4095,3.4676,3.5552,3.6595,3.6735,3.6895,3.707,3.707,3.6592,3.6024,3.6232,3.6499,3.6825,3.7098,3.7187,3.7207,3.7266,3.7305,3.7305,3.7305,3.7246,3.7109,3.6792,3.6656,3.6426,3.5918,3.5747,3.5747,3.5747,3.563,3.541,3.4902,0.0,0.0,0.0,0.0,0.0,0.0,0.0,0.0,0.0,0.0,0.0,0.0,0.0,0.0,0.0,0.0,0.0,0.0,0.0,0.0,0.0,3.0612,0.0,0.0,0.0,3.0623,3.1395,3.1395,3.1383,3.1355,3.0831,3.0542,3.035,2.9079,2.8574,2.8647,2.7918,2.7844,2.8112,2.8165,2.8179,2.8179,2.8179,2.8179,2.8179,0.0,0.0,0.0,0.0,0.0,0.0,0.0,1.5486,1.4286,1.3176,1.359,1.4204,1.4846,1.4866,1.5322,1.6562,1.7475,1.8528,1.9738,2.1118,2.2154,2.2787,2.3736,0.0,2.4386,2.4119,2.3665,2.3086,0.0,0.0,2.4153,2.4665,2.6186,2.8578,0.0,3.2533,0.0,0.0,0.0,3.5915,3.6335,3.6791,3.7305,3.7305,3.7305,3.7305,3.7305,3.7305,3.7285,3.707,3.7129,3.7344,3.7559,3.7617,3.7676,3.7891,3.7949,3.7949,3.7949,3.7793,3.7519,3.709,3.6871,3.6597,3.6113,3.5982,3.5982,3.5982,3.5519,3.4671,3.3252,3.3058,0.0,0.0,0.0,0.0,0.0,0.0,0.0,0.0,0.0,0.0,0.0,0.0,0.0,0.0,0.0,0.0,0.0,0.0,0.0,0.0,0.0,0.0,0.0,0.0,3.2451,3.2577,3.2577,3.2213,3.1542,3.1145,3.0891,3.0749,2.9911,2.9676,2.988,2.9465,2.9383,2.9565,2.9565,2.9272,2.8852,2.8852,2.86,2.8179,0.0,2.1113,0.0,0.0,1.8461,1.7002,1.6535,1.6184,1.5655,1.4913,1.5605,1.6564,1.7569,1.7265,1.7492,1.8743,1.9708,2.078,2.1995,2.2769,2.3611,2.4562,2.4599,2.4599,2.4599,2.4599,2.4115,0.0,0.0,0.0,2.5474,2.5084,2.6765,0.0,0.0,0.0,0.0,0.0,3.6812,3.6973,3.7402,3.7578,3.7578,3.7578,3.7578,3.7578,3.7578,3.7773,3.8008,3.7676,3.7578,3.7617,3.7949,3.8066,3.8125,3.8476,3.8611,3.8611,3.8611,3.8262,3.7777,3.7402,3.6992,3.6597,3.6113,3.5982,3.5982,3.5982,3.5089,3.3798,3.2043,3.2547,0.0,0.0,0.0,0.0,0.0,0.0,0.0,0.0,0.0,0.0,0.0,0.0,0.0,0.0,0.0,0.0,0.0,0.0,0.0,0.0,0.0,3.4953,3.4865,0.0,3.4521,3.4098,3.4222,3.3586,3.2388,3.2108,3.1774,3.142,3.097,3.0666,3.0526,3.0526,3.0401,3.0234,3.0234,2.9816,2.923,2.923,2.8894,2.8473,0.0,0.0,0.0,0.0,0.0,1.5865,1.7504,1.7903,1.7556,1.6269,1.7156,1.7956,1.8221,1.8875,1.9833,2.1172,2.2039,2.3004,2.4214,2.4388,2.4488,2.4599,2.4599,2.4599,2.4599,2.4599,2.4329,0.0,0.0,2.3687,0.0,2.5284,2.7405,3.2003,0.0,0.0,0.0,3.6445,3.7109,3.7851,3.8281,3.8493,3.8493,3.8493,3.8493,3.8493,3.8493,3.8513,3.8552,3.8513,3.8493,3.8457,3.8496,3.8516,3.8552,3.8591,3.8611,3.8611,3.8611,3.8262,3.7777,3.7402,3.6992,3.6597,3.6113,3.5982,3.5982,3.5982,3.5089,3.4004,3.3051,3.2795,3.2487,0.0,0.0,0.0,0.0,0.0,0.0,0.0,0.0,0.0,0.0,0.0,0.0,0.0,0.0,0.0,0.0,0.0,0.0,3.5563,0.0,3.4734,3.4385,3.5113,3.5465,3.5422,3.5852,3.6107,3.6259,3.5055,3.4699,3.4823,3.2823,3.1064,2.9607,2.9607,2.9146,2.8431,2.8431,2.8389,2.8305,2.8305,2.8768,2.9398,0.0,0.0,0.0,0.0,0.0,0.0,0.0,1.9761,2.0277,2.0225,1.9573,1.9431,2.0188,2.1029,2.2028,2.3302,2.3685,2.4105,2.4562,2.4599,2.4599,2.4599,2.481,2.4903,2.4903,2.5077,2.4877,0.0,0.0,0.0,0.0,2.5423,2.7333,3.1958,3.3048,3.4717,3.6836,3.7555,3.8044,3.834,3.8496,3.8611,3.8611,3.8611,3.8611,3.8611,3.8611,3.8611,3.8611,3.8611,3.8611,3.8611,3.8611,3.8611,3.8611,3.8611,3.8611,3.8611,3.8611,3.8262,3.7777,3.7402,3.6463,3.5553,3.5081,3.4471,3.4022,3.4022,3.4195,3.3789,3.2102,3.2934,3.3397,3.188,0.0,0.0,0.0,0.0,0.0,0.0,0.0,0.0,0.0,0.0,0.0,0.0,0.0,0.0,0.0,0.0,0.0,3.5007,0.0,3.6632,3.6467,3.7351,3.7632,3.7387,3.759,3.7493,3.7082,3.6547,3.6395,3.6494,3.5608,3.4392,3.306,3.306,3.2417,3.1399,3.1399,3.1052,3.0582,3.0813,3.0759,3.062,1.5807,1.8338,1.9931,0.0,1.9874,2.1094,2.0444,2.1564,2.2732,2.3378,2.2256,2.1646,2.2409,2.3005,2.3648,2.4525,2.4599,2.4639,2.4719,2.477,2.4773,2.4853,2.509,0.0,2.5211,2.5411,2.5304,2.4853,2.4315,0.0,2.7209,2.6427,2.8285,3.23,3.3354,3.5235,3.7715,3.8356,3.8611,3.8611,3.8611,3.8611,3.8611,3.8611,3.8611,3.8611,3.8611,3.8611,3.8611,3.8611,3.8611,3.8611,3.8611,3.8611,3.8611,3.8611,3.8611,3.8611,3.8611,3.8164,3.7549,3.6939,3.5806,3.4703,3.4389,3.3692,3.3189,3.3189,3.3888,3.3994,3.2281,3.3349,3.4,3.2655,0.0,0.0,0.0,0.0,0.0,0.0,0.0,0.0,0.0,0.0,0.0,0.0,0.0,0.0,0.0,0.0,0.0,0.0,0.0,0.0,3.8105,3.9101,3.943,3.9162,3.9294,3.9034,3.8426,3.8029,3.7653,3.7295,3.6895,3.6109,3.4994,3.4571,3.3731,3.2752,3.3283,3.3067,3.2587,3.3343,3.3426,3.3106,1.6626,1.7787,1.8232,1.7046,1.9451,2.159,2.1601,2.3264,2.4706,2.5037,2.5039,2.4919,2.4589,2.4562,2.4599,2.4599,2.4599,2.4719,2.505,2.5077,2.5197,0.0,0.0,2.5504,2.5504,2.5518,2.5504,2.5504,0.0,0.0,2.712,2.8558,3.0778,3.3606,3.409,3.5901,3.8591,3.8611,3.8611,3.8611,3.8611,3.8611,3.8611,3.8611,3.8611,3.8611,3.8611,3.8611,3.8611,3.8611,3.8611,3.8611,3.8611,3.8611,3.8611,3.8611,3.8611,3.8611,3.8611,3.7949,3.7058,3.5903,3.4983,3.4314,3.4314,3.428,3.428,3.428,3.4666,3.4834,3.4354,3.4085,3.405,3.4583,0.0,0.0,0.0,0.0,0.0,0.0,0.0,3.1816,3.5043,0.0,0.0,0.0,0.0,0.0,0.0,0.0,0.0,3.7796,3.7874,0.0,3.8591,3.9863,4.0469,4.0489,4.0957,4.1172,4.1094,3.9765,3.8484,3.7215,3.5988,3.4953,3.4001,3.2705,3.1632,3.1013,3.2714,3.3406,3.3578,3.5259,3.645,3.7232,1.6333,1.9027,2.1148,2.0737,2.2665,2.4264,2.4264,2.4808,2.5264,2.5358,2.5371,2.5344,2.5237,2.5199,2.5199,0.0,2.5199,2.5277,0.0,2.5371,2.5411,2.5504,2.5705,2.585,2.585,2.6012,2.6106,2.6106,0.0,0.0,2.6381,2.8649,3.0942,3.3149,3.3946,3.5904,3.8611,3.8611,3.8611,3.8611,3.8611,3.875,3.8965,3.8691,3.875,3.8965,3.8708,3.8611,3.8611,3.8611,3.8611,3.8611,3.8611,3.8611,3.8611,3.8611,3.8007,3.7364,3.7364,3.693,3.6406,3.6027,3.5563,3.5172,3.5172,3.4587,3.4035,3.4035,3.4768,3.5356,3.519,3.5732,3.6281,3.6459,3.6204,0.0,0.0,0.0,0.0,0.0,0.0,3.3277,0.0,3.365,0.0,0.0,0.0,0.0,0.0,0.0,0.0,0.0,3.834,0.0,3.9004,4.0019,4.0664,4.0976,4.1152,4.1211,4.1172,4.0763,4.0333,3.9922,3.9529,3.8869,3.8043,3.7581,3.6927,3.6181,3.6712,3.697,3.7046,3.7806,3.8254,3.8557,1.7729,2.0373,2.2609,2.2918,2.4367,2.5518,2.5518,2.5518,2.5558,2.5665,2.5678,2.5718,2.5825,2.5838,0.0,2.5531,2.5518,2.5558,2.5678,2.5678,2.5732,2.5838,2.6065,2.6158,2.6158,2.64,0.0,2.6547,2.6293,2.6266,2.6519,2.8485,3.0748,3.3193,3.4118,3.6236,3.9099,3.9099,3.9099,3.9099,3.9099,3.9238,3.9434,3.918,3.9238,3.9414,3.8965,3.8845,3.8789,3.8669,3.8319,3.7934,3.7934,3.7934,3.8007,3.8465,3.808,3.7475,3.7475,3.7134,3.6667,3.6269,3.5897,3.5599,3.5599,3.5384,3.5187,3.5187,3.5854,3.643,3.6278,3.7096,3.7676,3.7344,3.7422,3.748,3.7324,0.0,0.0,0.0,0.0,0.0,0.0,3.4263,3.4301,0.0,0.0,0.0,0.0,0.0,0.0,3.7461,3.9199,0.0,3.9707,4.041,4.0898,4.1211,4.1211,4.1211,4.1211,4.1387,4.1445,4.1426,4.109,4.0628,4.0092,3.9608,3.9105,3.8683,3.9321,3.9581,3.9677,4.0515,4.081,4.0847,2.032,2.1841,2.3005,2.3763,2.4829,2.5571,2.5571,2.5571,2.5678,2.6011,2.6051,2.6172,2.6413,2.6453,2.6226,2.5678,2.5598,0.0,2.6011,2.6024,2.6158,2.6413,2.6413,2.6426,2.6453,2.672,2.6814,2.6814,2.7175,2.7322,2.7336,2.8274,3.048,3.3651,3.4625,3.6816,3.9902,3.9902,3.9902,3.9902,3.9902,3.9922,3.9941,3.9902,3.9922,3.9883,3.9414,3.9238,3.9141,3.8677,3.7806,3.6922,3.6738,3.6812,3.7144,3.8153,3.8465,3.8465,3.8392,3.81,3.7573,3.6489,3.6008,3.58,3.58,3.6639,3.7383,3.7383,3.7695,3.7816,3.7461,3.8027,3.832,3.7413,3.7572,3.7653,3.7103,3.4505,0.0,0.0,0.0,0.0,0.0,3.4319,3.5527,0.0,0.0,0.0,0.0,0.0,3.7868,3.9883,4.0351,4.0528,4.0528,4.0976,4.1211,4.1211,4.125,4.125,4.1269,4.166,4.1836,4.1776,4.0984,4.0646,4.0584,3.94,3.8925,3.9102,4.0721,4.1365,4.1545,4.3142,4.3711,4.3711,2.0977,2.3452,2.5531,2.5741,2.6016,2.6186,2.6186,2.6186,2.6293,2.6573,2.6613,2.6734,2.7068,2.7095,2.7041,2.6907,2.644,2.6213,2.6279,2.6332,2.6413,2.6707,2.672,2.6827,2.7095,2.7162,2.7161,2.7161,2.7269,2.7416,2.763,2.925,3.1366,3.3991,3.5568,3.7629,3.9902,3.9902,3.9902,3.9902,3.9902,4.0098,4.0332,4.0019,4.0098,4.0312,3.9883,3.9492,3.9031,3.8044,3.7907,3.7861,3.5997,3.6682,3.8044,3.7401,3.7217,3.7033,3.6108,3.6442,3.6773,3.5609,3.6606,3.79,3.79,3.8081,3.8281,3.8281,3.8359,3.8398,3.8317,3.8474,3.8241,3.7099,3.701,3.6478,3.4799,3.3477,3.2598,0.0,3.213,3.2278,3.3096,3.5368,3.6681,0.0,0.0,0.0,0.0,3.916,3.9512,4.0351,4.0801,4.1016,4.1016,4.1152,4.1211,4.1211,4.1504,4.166,4.166,4.209,4.2285,4.2245,4.2062,4.2154,4.2463,4.2178,4.2228,4.2535,4.2961,4.3101,4.3142,4.3548,4.3711,4.3711,2.3328,2.5092,2.6426,2.656,2.6587,2.6627,2.6814,2.6787,2.6841,2.7001,2.7028,2.7081,2.7282,2.7309,2.7309,2.7309,2.7015,2.6787,2.6787,2.6787,2.6854,2.7014,2.7028,2.7094,2.7309,2.7443,2.7576,2.771,2.771,2.7791,2.798,3.0374,3.2461,3.4394,3.6799,3.8827,4.0488,4.0488,4.0488,4.0488,4.0488,4.0625,4.0801,4.0566,4.0625,4.0685,3.9663,3.9147,3.8804,3.7915,3.7427,3.7054,3.6326,3.6868,3.764,3.6996,3.718,3.7494,3.683,3.7126,3.7494,3.683,3.764,3.8611,3.8611,3.8611,3.8611,3.8611,3.8611,3.8611,3.8611,3.8611,3.819,3.6996,3.7405,3.6887,3.4108,3.3583,3.3158,3.2287,3.1926,3.2304,3.3629,3.5619,3.6897,3.6998,3.8742,0.0,3.9805,4.0234,4.0586,4.082,4.1093,4.1211,4.1211,4.1367,4.1562,4.1758,4.1973,4.209,4.2109,4.2539,4.2715,4.2734,4.293,4.3144,4.3359,4.3359,4.3496,4.3711,4.3711,4.3711,4.3711,4.3711,4.3711,4.3711,2.5511,2.6281,2.66,2.6841,2.6894,2.6974,2.7269,2.7309,2.7322,2.7362,2.7376,2.7389,2.7429,2.7443,2.7443,2.7443,2.7443,2.7403,2.7309,2.7309,2.7322,2.7376,2.7376,2.7389,2.7443,2.7684,2.7896,2.8179,2.8179,2.8179,2.8263,3.1298,3.3422,3.4813,3.7852,3.9922,4.1211,4.1211,4.1211,4.1211,4.1211,4.1211,4.1211,4.1211,4.1211,4.0997,3.9505,3.8929,3.8796,3.821,3.7191,3.6292,3.6993,3.7259,3.7221,3.7035,3.7868,3.875,3.8411,3.8319,3.8392,3.8538,3.8611,3.8611,3.8611,3.8611,3.8611,3.8611,3.8611,3.8501,3.819,3.8226,3.7878,3.646,3.7277,3.6998,3.3861,3.3657,3.3464,3.2443,3.1693,3.2094,3.4211,3.5725,3.704,3.8117,3.9663,4.0644,4.0665,4.1074,4.1348,4.1367,4.1348,4.1348,4.1367,4.1719,4.207,4.2382,4.246,4.2519,4.2539,4.2969,4.3183,4.3183,4.3555,4.3711,4.3711,4.3711,4.3711,4.3711,4.3711,4.3711,4.3711,4.3711,4.3711,4.3711,2.371,2.5612,2.7188,2.7229,2.7242,2.7255,2.7296,2.7309,2.7389,2.7602,2.7629,2.7764,2.8018,2.8045,2.8045,2.8045,2.8045,2.7831,2.7336,2.7309,2.7416,2.7615,2.7629,2.7791,2.8045,2.8098,2.8138,2.8179,2.8179,2.8179,2.8263,3.1298,3.3422,3.4813,3.7852,3.9922,4.1211,4.1211,4.1211,4.1211,4.1211,4.1211,4.1211,4.1211,4.1211,4.1172,4.0899,4.055,4.0028,3.8951,3.8841,3.8898,3.7033,3.7836,3.9217,3.8217,3.8765,3.9344,3.7573,3.707,3.7328,3.8355,3.8611,3.8611,3.8611,3.8611,3.8611,3.8611,3.8611,3.808,3.6312,3.659,3.6312,3.4047,3.3334,3.2833,3.2195,3.161,3.1292,3.1372,3.283,3.3981,3.4345,3.6773,3.8372,3.8565,4.0144,4.123,4.1582,4.166,4.1855,4.2187,4.1894,4.1875,4.2226,4.2305,4.2323,4.2382,4.2793,4.2969,4.2988,4.3418,4.3613,4.3613,4.3672,4.3711,4.3711,4.3711,4.3711,4.3711,4.3711,4.3711,4.3711,4.3711,4.3711,4.3711,2.5149,2.6436,2.7362,2.7468,2.7495,2.759,2.775,2.7777,2.7831,2.7965,2.7978,2.8031,2.8165,2.8179,2.8179,2.8179,2.8179,2.8072,2.7791,2.7777,2.7844,2.7978,2.7978,2.8045,2.8179,2.8179,2.8179,2.8179,2.8179,2.8179,2.8263,3.2026,3.4099,3.4854,3.8606,4.0607,4.1211,4.1211,4.1211,4.1211,4.1211,4.1211,4.1211,4.1211,4.1211,4.1094,4.0372,3.9965,3.9716,3.9151,3.9083,3.9127,3.8705,3.9185,3.977,3.9241,3.9468,3.9692,3.8741,3.8476,3.8439,3.8308,3.8233,3.8008,3.711,3.6905,3.6775,3.6089,3.6105,3.5766,3.4148,3.4325,3.4126,3.2321,3.2846,3.2861,3.1041,3.2639,3.3602,3.2594,3.4378,3.6018,3.6898,3.842,3.9606,4.0332,4.1287,4.1933,4.2129,4.2129,4.2324,4.2754,4.2363,4.2344,4.2773,4.2773,4.2891,4.3125,4.332,4.3418,4.3418,4.3613,4.3711,4.3711,4.3711,4.3711,4.3711,4.3711,4.3711,4.3711,4.3711,4.3711,4.3711,4.3711,4.3711,4.3711,2.6163,2.7056,2.7576,2.7762,2.7802,2.7883,2.8152,2.8179,2.8179,2.8179,2.8179,2.8179,2.8179,2.8179,2.8179,2.8179,2.8179,2.8179,2.8179,2.8179,2.8179,2.8179,2.8179,2.8179,2.8179,2.8179,2.8179,2.8179,2.8179,2.8179,2.8305,3.2669,3.4692,3.4894,3.9256,4.1211,4.1211,4.1211,4.1211,4.1211,4.1211,4.1211,4.1211,4.1211,4.1211,4.1055,4.004,3.9647,3.9647,3.9647,3.9461,3.9391,4.0356,4.0449,4.0195,4.0195,4.0195,4.0156,3.9941,3.9694,3.9221,3.8234,3.7719,3.7091,3.5619,3.5298,3.5002,3.3869,3.3847,3.3602,3.2226,3.2327,3.2255,3.1254,3.2558,3.3076,3.1136,3.3878,3.5555,3.4307,3.6159,3.8043,3.9358,4.0093,4.0899,4.1854,4.2246,4.2461,4.2578,4.2578,4.2773,4.3203,4.2891,4.2891,4.3223,4.3223,4.3379,4.3711,4.3711,4.3711,4.3711,4.3711,4.3711,4.3711,4.3711,4.3711,4.3711,4.3711,4.3711,4.3711,4.3711,4.3711,4.3711,4.3711,4.3711,4.3711,2.4442,2.6326,2.8125,2.8152,2.8152,2.8165,2.8179,2.8179,2.8179,2.8179,2.8179,2.8179,2.8179,2.8179,2.8179,2.8179,2.8179,2.8179,2.8179,2.8179,2.8179,2.8179,2.8179,2.8179,2.8179,2.8179,2.8179,2.8179,2.8179,2.8179,2.8305,3.2669,3.4692,3.4894,3.9256,4.1211,4.1211,4.1211,4.1211,4.1211,4.1211,4.1211,4.1211,4.1211,4.1211,4.1172,4.1094,4.1055,4.1055,4.1055,4.1036,4.0997,4.1133,4.1152,4.1113,4.1113,4.1113,4.0937,4.0117,3.9032,3.8119,3.8005,3.7067,3.5892,3.4968,3.4757,3.4523,3.363,3.345,3.2821,3.0824,3.1134,3.1533,3.1081,3.0574,3.1081,3.3464,3.3839,3.434,3.5647,3.8092,3.9844,4.0375,4.1501,4.2263,4.2343,4.2362,4.2598,4.3048,4.3027,4.3223,4.3652,4.3633,4.3633,4.3652,4.3652,4.3672,4.3711,4.3711,4.3711,4.3711,4.3711,4.3711,4.3711,4.3711,4.3711,4.3711,4.3711,4.3711,4.3711,4.3711,4.3711,4.3711,4.3711,4.3711,4.3711,2.6558,2.7461,2.8179,2.8179,2.8179,2.8179,2.8179,2.8179,2.8179,2.8179,2.8179,2.8179,2.8179,2.8179,2.8179,2.8179,2.8179,2.8272,2.846,2.843,2.8379,2.8192,2.8179,2.8179,2.8179,2.8179,2.8179,2.8179,2.8179,2.8179,2.8263,3.182,3.3463,3.3651,3.8011,3.9529,3.888,4.0529,4.0724,4.004,4.086,4.1211,4.1211,4.1211,4.1211,4.1211,4.1211,4.1211,4.1211,4.1211,4.1211,4.1211,4.1211,4.1211,4.1211,4.1211,4.1211,4.0822,3.9116,3.8711,3.8418,3.7088,3.5782,3.4335,3.2424,3.196,3.1657,3.056,3.0519,3.0366,2.9422,2.9659,3.0126,3.0549,3.1496,3.272,3.4278,3.6224,3.7851,3.8689,4.0344,4.1506,4.1679,4.2374,4.2832,4.2832,4.3066,4.3301,4.3457,4.3457,4.3535,4.3691,4.3711,4.3711,4.3711,4.3711,4.3711,4.3711,4.3711,4.3711,4.3711,4.3711,4.3711,4.3711,4.3711,4.3711,4.3711,4.3711,4.3711,4.3711,4.3711,4.3711,4.3711,4.3711,4.3711,4.3711,2.7431,2.7963,2.8299,2.8205,2.8179,2.8179,2.8179,2.8179,2.8179,2.8179,2.8179,2.8219,2.8326,2.8326,2.8366,2.846,2.8473,2.8511,2.8724,2.8751,2.8644,2.8473,2.8473,2.8473,2.8473,2.8379,2.8326,2.8326,2.8232,2.8179,2.8263,3.1008,3.2273,3.2479,3.6436,3.7932,3.7614,3.9668,4.0294,3.9922,4.0821,4.1289,4.1367,4.1367,4.1367,4.1367,4.1367,4.1328,4.1211,4.1211,4.1211,4.1211,4.1211,4.1211,4.1133,4.0685,4.0392,3.9746,3.7834,3.7237,3.6797,3.5349,3.4026,3.252,3.0498,3.0027,2.9723,2.8647,2.8813,2.9131,2.9061,2.9408,3.02,3.167,3.3135,3.4523,3.5733,3.8319,4.0245,4.0655,4.185,4.2676,4.2812,4.3105,4.3281,4.3281,4.3535,4.3711,4.3711,4.3711,4.3711,4.3711,4.3711,4.3711,4.3711,4.3711,4.3711,4.3711,4.3711,4.3711,4.3711,4.3711,4.3711,4.3711,4.3711,4.3711,4.3711,4.3711,4.3711,4.3711,4.3711,4.3711,4.3711,4.3711,4.3711,4.3711,2.6451,2.7452,2.8511,2.8245,2.8192,2.8192,2.8192,2.8192,2.8192,2.8192,2.8192,2.8312,2.8577,2.8604,2.8724,2.8975,2.9001,2.9001,2.9001,2.9001,2.9001,2.9001,2.9001,2.9001,2.9001,2.8764,2.8604,2.8604,2.8339,2.8192,2.8234,3.0399,3.1407,3.1531,3.4603,3.6677,3.7954,3.884,3.9981,4.1133,4.1191,4.1426,4.1797,4.1797,4.1797,4.1797,4.1797,4.1523,4.1211,4.1211,4.1211,4.1211,4.1172,4.1172,4.0938,3.9569,3.8566,3.7578,3.6316,3.4376,3.27,3.27,3.1741,3.0582,2.9691,2.9523,2.9286,2.8403,2.8908,2.9635,2.9986,3.075,3.2176,3.4803,3.5229,3.6041,3.8277,3.9732,4.0696,4.1167,4.2332,4.3242,4.3672,4.3711,4.3711,4.3711,4.3711,4.3711,4.3711,4.3711,4.3711,4.3711,4.3711,4.3711,4.3711,4.3711,4.3711,4.3711,4.3711,4.3711,4.3711,4.3711,4.3711,4.3711,4.3711,4.3711,4.3711,4.3711,4.3711,4.3711,4.3711,4.3711,4.3711,4.3711,4.3711,4.3711,2.7971,2.8108,2.8366,2.8444,2.847,2.8537,2.8738,2.8764,2.8764,2.8764,2.8764,2.8804,2.8855,2.8868,2.8908,2.8988,2.9001,2.9081,2.9339,2.9539,2.9615,2.9615,2.9215,2.9001,2.9001,2.8908,2.8868,2.8868,2.8818,2.8764,2.8764,3.0068,3.105,3.1773,3.4211,3.5394,3.5659,3.776,3.835,3.7901,3.8838,3.9862,4.0785,4.0483,4.1158,4.2168,4.1562,4.1465,4.1621,4.1621,4.1621,4.1444,4.0576,3.9657,3.8645,3.7334,3.6489,3.5522,3.3591,3.2738,3.2311,3.1885,3.0991,3.0099,2.9888,3.0014,3.0254,3.0681,3.1022,3.1675,3.3345,3.3866,3.4822,3.7207,3.8341,3.9272,4.0281,4.1509,4.2498,4.2922,4.331,4.3574,4.3691,4.3711,4.3711,4.3711,4.3711,4.3711,4.3711,4.3711,4.3711,4.3711,4.3711,4.3711,4.3711,4.3711,4.3711,4.3711,4.3711,4.3711,4.3711,4.3711,4.3711,4.3711,4.3711,4.3711,4.3711,4.3711,4.3711,4.3711,4.3711,4.3711,4.3711,4.3711,4.3711,4.3711,2.8778,2.8631,2.8551,2.8751,2.8778,2.8788,2.8975,2.9001,2.9001,2.9001,2.9001,2.9041,2.9161,2.9219,2.9259,2.9335,2.9348,2.9415,2.9646,2.982,2.9913,2.9913,2.9535,2.9348,2.9348,2.9228,2.9219,2.9219,2.9055,2.9001,2.8988,2.9596,3.016,3.0765,3.2822,3.3885,3.4308,3.6618,3.7467,3.7301,3.8647,3.9782,4.0689,4.0995,4.1758,4.2617,4.2109,4.1973,4.1971,4.1453,4.0874,4.0312,3.9527,3.8478,3.7235,3.5991,3.4849,3.3662,3.2194,3.1663,3.1551,3.1579,3.0849,3.0211,3.0638,3.0866,3.1181,3.1783,3.2169,3.3038,3.506,3.5726,3.6787,3.9384,4.0455,4.1249,4.2071,4.2869,4.3418,4.3672,4.3711,4.3711,4.3711,4.3711,4.3711,4.3711,4.3711,4.3711,4.3711,4.3711,4.3711,4.3711,4.3711,4.3711,4.3711,4.3711,4.3711,4.3711,4.3711,4.3711,4.3711,4.3711,4.3711,4.3711,4.3711,4.3711,4.3711,4.3711,4.3711,4.3711,4.3711,4.3711,4.3711,4.3711,4.3711,4.3711,2.9041,2.9015,2.9001,2.9028,2.9041,2.9041,2.9068,2.9068,2.9068,2.9068,2.9068,2.9219,2.9499,2.9526,2.9633,2.99,2.9913,2.9913,2.9913,2.9913,2.9913,2.9913,2.9913,2.9913,2.9913,2.9659,2.9526,2.9526,2.9245,2.9068,2.9068,2.9068,2.9155,2.9417,3.1109,3.2629,3.4005,3.5628,3.7028,3.8276,3.9618,4.0454,4.0994,4.2373,4.2942,4.2962,4.2783,4.2409,4.1777,4.048,3.9194,3.8164,3.8081,3.7325,3.6234,3.4935,3.343,3.2096,3.1784,3.1167,3.0835,3.1856,3.144,3.0951,3.187,3.2099,3.2157,3.2371,3.3029,3.4131,3.5995,3.6971,3.8487,4.1388,4.1863,4.2322,4.3526,4.3711,4.3711,4.3711,4.3711,4.3711,4.3711,4.3711,4.3711,4.3711,4.3711,4.3711,4.3711,4.3711,4.3711,4.3711,4.3711,4.3711,4.3711,4.3711,4.3711,4.3711,4.3711,4.3711,4.3711,4.3711,4.3711,4.3711,4.3711,4.3711,4.3711,4.3711,4.3711,4.3711,4.3711,4.3711,4.3711,4.3711,4.3711,4.3711,2.9392,2.9205,2.9068,2.9352,2.9392,2.9459,2.9686,2.9682,2.9682,2.9682,2.9682,2.9753,2.982,2.982,2.9847,2.9913,2.9913,2.9913,2.9913,2.9913,2.9913,2.9913,2.9913,2.9913,2.9913,2.986,2.982,2.982,2.9753,2.9682,2.9682,2.9682,3.0513,3.1899,3.2295,3.3493,3.5205,3.5595,3.594,3.6328,3.7683,3.8891,4.0024,4.1068,4.1699,4.1805,4.0413,3.9375,3.8474,3.7476,3.693,3.6508,3.5508,3.4296,3.3059,3.1782,3.1296,3.1192,3.1119,3.1639,3.2441,3.3464,3.3552,3.336,3.3306,3.3501,3.4206,3.601,3.6527,3.7443,3.9976,4.0583,4.1249,4.2969,4.3297,4.3361,4.367,4.3711,4.3711,4.3711,4.3711,4.3711,4.3711,4.3711,4.3711,4.3711,4.3711,4.3711,4.3711,4.3711,4.3711,4.3711,4.3711,4.3711,4.3711,4.3711,4.3711,4.3711,4.3711,4.3711,4.3711,4.3711,4.3711,4.3711,4.3711,4.3711,4.3711,4.3711,4.3711,4.3711,4.3711,4.3711,4.3711,4.3711,4.3711,4.3711,2.9659,2.9446,2.9339,2.9633,2.9686,2.974,2.99,2.9913,2.9913,2.9913,2.9913,2.9913,2.9913,2.9913,2.9913,2.9913,2.9913,2.9913,2.9913,2.9913,2.9913,2.9913,2.9913,2.9913,2.9913,2.9913,2.9913,2.9913,2.9913,2.9913,2.9913,3.0348,3.1106,3.207,3.2999,3.3983,3.4962,3.5399,3.5965,3.6557,3.6827,3.7757,3.8945,3.899,3.9169,3.925,3.8264,3.7208,3.6181,3.5693,3.509,3.4414,3.3751,3.276,3.1758,3.1568,3.1303,3.1312,3.2237,3.2925,3.3675,3.4612,3.4875,3.4828,3.4641,3.5257,3.6166,3.7378,3.8135,3.9186,4.1318,4.1695,4.2155,4.3504,4.3711,4.3711,4.3711,4.3711,4.3711,4.3711,4.3711,4.3711,4.3711,4.3711,4.3711,4.3711,4.3711,4.3711,4.3711,4.3711,4.3711,4.3711,4.3711,4.3711,4.3711,4.3711,4.3711,4.3711,4.3711,4.3711,4.3711,4.3711,4.3711,4.3711,4.3711,4.3711,4.3711,4.3711,4.3711,4.3711,4.3711,4.3711,4.3711,4.3711,4.3711,4.3711,2.9873,2.9726,2.9633,2.9873,2.9913,2.9913,2.9913,2.9913,2.9913,2.9913,2.9913,2.9913,2.9913,2.9913,2.9913,2.9913,2.9913,2.9913,2.9913,2.9913,2.9913,2.9913,2.9913,2.9913,2.9913,2.9913,2.9913,2.9913,2.9913,3.0003,3.0182,3.0928,3.1493,3.1863,3.3455,3.4305,3.4481,3.5268,3.6139,3.6973,3.6421,3.6777,3.7535,3.7003,3.6658,3.6442,3.6269,3.5245,3.3966,3.3966,3.319,3.2233,3.241,3.1937,3.1493,3.241,3.2292,3.2173,3.3778,3.4305,3.47,3.5704,3.5922,3.6009,3.621,3.6989,3.7705,3.822,3.9186,4.0397,4.1779,4.203,4.2406,4.3546,4.3711,4.3711,4.3711,4.3711,4.3711,4.3711,4.3711,4.3711,4.3711,4.3711,4.3711,4.3711,4.3711,4.3711,4.3711,4.3711,4.3711,4.3711,4.3711,4.3711,4.3711,4.3711,4.3711,4.3711,4.3711,4.3711,4.3711,4.3711,4.3711,4.3711,4.3711,4.3711,4.3711,4.3711,4.3711,4.3711,4.3711,4.3711,4.3711,4.3711,4.3711,4.3711,2.9913,2.9887,2.9873,2.9913,2.9913,2.9913,2.9913,2.9913,2.9913,2.9913,2.9913,2.9913,2.9913,2.9913,2.9913,2.9913,2.9913,2.9913,2.9913,2.9913,2.9913,2.9913,2.9913,2.9913,2.9913,2.9913,2.9913,2.9913,2.9913,3.0316,3.1106,3.124,3.2218,3.3822,3.4086,3.4656,3.5399,3.553,3.5225,3.4728,3.5771,3.5826,3.5391,3.6415,3.6069,3.4956,3.417,3.244,3.0571,3.0571,3.0437,3.0406,3.1226,3.1404,3.1493,3.241,3.322,3.3866,3.413,3.4787,3.5704,3.7032,3.7334,3.7619,3.8785,3.8289,3.8263,4.0644,4.1276,4.1821,4.3195,4.3421,4.3504,4.367,4.3711,4.3711,4.3711,4.3711,4.3711,4.3711,4.3711,4.3711,4.3711,4.3711,4.3711,4.3711,4.3711,4.3711,4.3711,4.3711,4.3711,4.3711,4.3711,4.3711,4.3711,4.3711,4.3711,4.3711,4.3711,4.3711,4.3711,4.3711,4.3711,4.3711,4.3711,4.3711,4.3711,4.3711,4.3711,4.3711,4.3711,4.3711,4.3711,4.3711,4.3711,4.3711,2.9913,2.9913,2.9913,2.9913,2.9913,2.9913,2.9913,2.9913,2.9913,2.9913,2.9913,2.9913,2.9913,2.9913,2.9913,2.9913,2.9913,2.9913,2.9913,2.9913,2.9913,2.9913,2.9913,2.9913,2.9913,2.9913,2.9913,2.9913,2.9913,3.0392,3.1315,3.1848,3.2822,3.4218,3.4744,3.4919,3.4831,3.4831,3.4728,3.4478,3.3762,3.3703,3.3951,3.3204,3.2558,3.2012,3.1612,3.0781,2.9958,3.0526,3.066,3.0839,3.1804,3.2056,3.2292,3.3264,3.3851,3.4305,3.4831,3.5819,3.686,3.7447,3.8177,3.91,4.0457,4.0331,4.0222,4.1444,4.2281,4.2988,4.3587,4.3711,4.3711,4.3711,4.3711,4.3711,4.3711,4.3711,4.3711,4.3711,4.3711,4.3711,4.3711,4.3711,4.3711,4.3711,4.3711,4.3711,4.3711,4.3711,4.3711,4.3711,4.3711,4.3711,4.3711,4.3711,4.3711,4.3711,4.3711,4.3711,4.3711,4.3711,4.3711,4.3711,4.3711,4.3711,4.3711,4.3711,4.3711,4.3711,4.3711,4.3711,4.3711,4.3711,4.3711,4.3711]},{"header":{"parameterUnit":"m.s-1","parameterCategory":1,"la1":30.6,"la2":28.766,"lo1":-90.7593,"lo2":-88.6598,"dx":0.0162,"dy":0.0183,"nx":116,"ny":114,"refTime":"2022-11-23T18:00:00:Z","depth":0,"parameterNumber":3,"parameterNumberName":"V-component_of_WINDS"},"data":[0.0,0.0,0.0,0.0,0.0,0.0,0.0,0.0,0.0,0.0,0.0,0.0,0.0,0.0,0.0,0.0,0.0,0.0,0.0,0.0,0.0,0.0,0.0,0.0,0.0,0.0,0.0,0.0,0.0,0.0,0.0,0.0,0.0,0.0,0.0,0.0,0.0,0.0,0.0,0.0,0.0,0.0,0.0,0.0,0.0,0.0,0.0,0.0,0.0,0.0,0.0,0.0,0.0,0.0,0.0,0.0,0.0,0.0,0.0,0.0,0.0,0.0,0.0,0.0,0.0,0.0,0.0,0.0,0.0,0.0,0.0,0.0,0.0,0.0,0.0,0.0,0.0,0.0,0.0,0.0,0.0,0.0,0.0,0.0,0.0,0.0,0.0,0.0,0.0,0.0,0.0,0.0,0.0,0.0,0.0,0.0,0.0,0.0,0.0,0.0,0.0,0.0,0.0,0.0,0.0,0.0,0.0,0.0,0.0,0.0,0.0,0.0,0.0,0.0,0.0,0.0,0.0,0.0,0.0,0.0,0.0,0.0,0.0,0.0,0.0,0.0,0.0,0.0,0.0,0.0,0.0,0.0,0.0,0.0,0.0,0.0,0.0,0.0,0.0,0.0,0.0,0.0,0.0,0.0,0.0,0.0,0.0,0.0,0.0,0.0,0.0,0.0,0.0,0.0,0.0,0.0,0.0,0.0,0.0,0.0,0.0,0.0,0.0,0.0,0.0,0.0,0.0,0.0,0.0,0.0,0.0,0.0,0.0,0.0,0.0,0.0,0.0,0.0,0.0,0.0,0.0,0.0,0.0,0.0,0.0,0.0,0.0,0.0,0.0,0.0,0.0,0.0,0.0,0.0,0.0,0.0,0.0,0.0,0.0,0.0,0.0,0.0,0.0,0.0,0.0,0.0,0.0,0.0,0.0,0.0,0.0,0.0,0.0,0.0,0.0,0.0,0.0,0.0,0.0,0.0,0.0,0.0,0.0,0.0,0.0,0.0,0.0,0.0,0.0,0.0,0.0,0.0,0.0,0.0,0.0,0.0,0.0,0.0,0.0,0.0,0.0,0.0,0.0,0.0,0.0,0.0,0.0,0.0,0.0,0.0,0.0,0.0,0.0,0.0,0.0,0.0,0.0,0.0,0.0,0.0,0.0,0.0,0.0,0.0,0.0,0.0,0.0,0.0,0.0,0.0,0.0,0.0,0.0,0.0,0.0,0.0,0.0,0.0,0.0,0.0,0.0,0.0,0.0,0.0,0.0,0.0,0.0,0.0,0.0,0.0,0.0,0.0,0.0,0.0,0.0,0.0,0.0,0.0,0.0,0.0,0.0,0.0,0.0,0.0,0.0,0.0,0.0,0.0,0.0,0.0,0.0,0.0,0.0,0.0,0.0,0.0,0.0,0.0,0.0,0.0,0.0,0.0,0.0,0.0,0.0,0.0,0.0,0.0,0.0,0.0,0.0,0.0,0.0,0.0,0.0,0.0,0.0,0.0,0.0,0.0,0.0,0.0,0.0,0.0,0.0,0.0,0.0,0.0,0.0,0.0,0.0,0.0,0.0,0.0,0.0,0.0,0.0,0.0,0.0,0.0,0.0,0.0,0.0,0.0,0.0,0.0,0.0,0.0,0.0,0.0,0.0,0.0,0.0,0.0,0.0,0.0,0.0,0.0,0.0,0.0,0.0,0.0,0.0,0.0,0.0,0.0,0.0,0.0,0.0,0.0,0.0,0.0,0.0,0.0,0.0,0.0,0.0,0.0,0.0,0.0,0.0,0.0,0.0,0.0,0.0,0.0,0.0,0.0,0.0,0.0,0.0,0.0,0.0,0.0,0.0,0.0,0.0,0.0,0.0,0.0,0.0,0.0,0.0,0.0,0.0,0.0,0.0,0.0,0.0,0.0,0.0,0.0,0.0,0.0,0.0,0.0,0.0,0.0,0.0,0.0,0.0,0.0,0.0,0.0,0.0,0.0,0.0,0.0,0.0,0.0,0.0,0.0,0.0,0.0,0.0,0.0,0.0,0.0,0.0,0.0,0.0,0.0,0.0,0.0,0.0,0.0,0.0,0.0,0.0,0.0,0.0,0.0,0.0,0.0,0.0,0.0,0.0,0.0,0.0,0.0,0.0,0.0,0.0,0.0,0.0,0.0,0.0,0.0,0.0,0.0,0.0,0.0,0.0,0.0,0.0,0.0,0.0,0.0,0.0,0.0,0.0,0.0,0.0,0.0,0.0,0.0,0.0,0.0,0.0,0.0,0.0,0.0,0.0,0.0,0.0,0.0,0.0,0.0,0.0,0.0,0.0,0.0,0.0,0.0,0.0,0.0,0.0,0.0,0.0,0.0,0.0,0.0,0.0,0.0,0.0,0.0,0.0,0.0,0.0,0.0,0.0,0.0,0.0,0.0,0.0,0.0,0.0,0.0,0.0,0.0,0.0,0.0,0.0,0.0,0.0,0.0,0.0,0.0,0.0,0.0,0.0,0.0,0.0,0.0,0.0,0.0,0.0,0.0,0.0,0.0,0.0,0.0,0.0,0.0,0.0,0.0,0.0,0.0,0.0,0.0,0.0,0.0,0.0,0.0,0.0,0.0,0.0,0.0,0.0,0.0,0.0,0.0,0.0,0.0,0.0,0.0,0.0,0.0,0.0,0.0,0.0,0.0,0.0,0.0,0.0,0.0,0.0,0.0,0.0,0.0,0.0,0.0,0.0,0.0,0.0,0.0,0.0,0.0,0.0,0.0,0.0,0.0,0.0,0.0,0.0,0.0,0.0,0.0,0.0,0.0,0.0,0.0,0.0,0.0,0.0,0.0,0.0,0.0,0.0,0.0,0.0,0.0,0.0,0.0,0.0,0.0,0.0,0.0,0.0,0.0,0.0,0.0,0.0,0.0,0.0,0.0,0.0,0.0,0.0,0.0,0.0,0.0,0.0,0.0,0.0,0.0,0.0,0.0,0.0,0.0,0.0,0.0,0.0,0.0,0.0,0.0,0.0,0.0,0.0,0.0,0.0,0.0,0.0,0.0,0.0,0.0,0.0,0.0,0.0,0.0,0.0,0.0,0.0,0.0,0.0,0.0,0.0,0.0,0.0,0.0,0.0,0.0,0.0,0.0,0.0,0.0,0.0,0.0,0.0,0.0,0.0,0.0,0.0,0.0,0.0,0.0,0.0,0.0,0.0,0.0,0.0,0.0,0.0,0.0,0.0,0.0,0.0,0.0,0.0,0.0,0.0,0.0,0.0,0.0,0.0,0.0,0.0,0.0,0.0,0.0,0.0,0.0,0.0,0.0,0.0,0.0,0.0,0.0,0.0,0.0,0.0,0.0,0.0,0.0,0.0,0.0,0.0,0.0,0.0,0.0,0.0,0.0,0.0,0.0,0.0,0.0,0.0,0.0,0.0,0.0,0.0,0.0,0.0,0.0,0.0,0.0,0.0,0.0,0.0,0.0,0.0,0.0,0.0,0.0,0.0,0.0,0.0,0.0,0.0,0.0,0.0,0.0,0.0,0.0,0.0,0.0,0.0,0.0,0.0,0.0,0.0,0.0,0.0,0.0,0.0,0.0,0.0,0.0,0.0,0.0,0.0,0.0,0.0,0.0,0.0,0.0,0.0,0.0,0.0,0.0,0.0,0.0,0.0,0.0,0.0,0.0,0.0,0.0,0.0,0.0,0.0,0.0,0.0,0.0,0.0,0.0,0.0,0.0,0.0,0.0,0.0,0.0,0.0,0.0,0.0,0.0,0.0,0.0,0.0,0.0,0.0,0.0,0.0,0.0,0.0,0.0,0.0,0.0,0.0,0.0,0.0,0.0,0.0,0.0,0.0,0.0,0.0,0.0,0.0,0.0,0.0,0.0,0.0,0.0,0.0,0.0,0.0,0.0,0.0,0.0,0.0,0.0,0.0,0.0,0.0,0.0,0.0,0.0,0.0,0.0,0.0,0.0,0.0,0.0,0.0,0.0,0.0,0.0,0.0,0.0,0.0,0.0,0.0,0.0,0.0,0.0,0.0,0.0,0.0,0.0,0.0,0.0,0.0,0.0,0.0,0.0,0.0,0.0,0.0,0.0,0.0,0.0,0.0,0.0,0.0,0.0,0.0,0.0,0.0,0.0,0.0,0.0,0.0,0.0,0.0,0.0,0.0,0.0,0.0,0.0,0.0,0.0,0.0,0.0,0.0,0.0,0.0,0.0,0.0,0.0,0.0,0.0,0.0,0.0,0.0,0.0,0.0,0.0,0.0,0.0,0.0,0.0,0.0,0.0,0.0,0.0,0.0,0.0,0.0,0.0,0.0,0.0,0.0,0.0,0.0,0.0,0.0,0.0,0.0,0.0,0.0,0.0,0.0,0.0,0.0,0.0,0.0,0.0,0.0,0.0,0.0,0.0,0.0,0.0,0.0,0.0,0.0,0.0,0.0,0.0,0.0,0.0,0.0,0.0,0.0,0.0,0.0,0.0,0.0,0.0,0.0,0.0,0.0,0.0,0.0,0.0,0.0,0.0,0.0,0.0,0.0,0.0,0.0,0.0,0.0,0.0,0.0,0.0,0.0,0.0,0.0,0.0,0.0,0.0,0.0,0.0,0.0,0.0,0.0,0.0,0.0,0.0,0.0,0.0,0.0,0.0,0.0,0.0,0.0,0.0,0.0,0.0,0.0,0.0,0.0,0.0,0.0,0.0,0.0,0.0,0.0,0.0,0.0,0.0,0.0,0.0,0.0,0.0,0.0,0.0,0.0,0.0,0.0,0.0,0.0,0.0,0.0,0.0,0.0,0.0,0.0,0.0,0.0,0.0,0.0,0.0,0.0,0.0,0.0,0.0,0.0,0.0,0.0,0.0,0.0,0.0,0.0,0.0,0.0,0.0,0.0,0.0,0.0,0.0,0.0,0.0,0.0,0.0,0.0,0.0,0.0,0.0,0.0,0.0,0.0,0.0,0.0,0.0,0.0,0.0,0.0,0.0,0.0,0.0,0.0,0.0,0.0,0.0,0.0,0.0,0.0,0.0,0.0,0.0,0.0,0.0,0.0,0.0,0.0,0.0,0.0,0.0,0.0,0.0,0.0,0.0,0.0,0.0,0.0,0.0,0.0,0.0,0.0,0.0,0.0,0.0,0.0,0.0,0.0,0.0,0.0,0.0,0.0,0.0,0.0,0.0,0.0,0.0,0.0,0.0,0.0,0.0,0.0,0.0,0.0,0.0,0.0,0.0,0.0,0.0,0.0,0.0,0.0,0.0,0.0,0.0,0.0,0.0,0.0,0.0,0.0,0.0,0.0,0.0,0.0,0.0,0.0,0.0,0.0,0.0,0.0,0.0,0.0,0.0,0.0,0.0,0.0,0.0,0.0,0.0,0.0,0.0,0.0,0.0,0.0,0.0,0.0,0.0,0.0,0.0,0.0,0.0,0.0,0.0,0.0,0.0,0.0,0.0,0.0,0.0,0.0,0.0,0.0,0.0,0.0,0.0,0.0,0.0,0.0,0.0,0.0,0.0,0.0,0.0,0.0,0.0,0.0,0.0,0.0,0.0,0.0,0.0,0.0,0.0,0.0,0.0,0.0,0.0,0.0,0.0,0.0,0.0,0.0,0.0,0.0,0.0,0.0,0.0,0.0,0.0,0.0,0.0,0.0,0.0,0.0,0.0,0.0,0.0,0.0,0.0,0.0,0.0,0.0,0.0,0.0,0.0,0.0,0.0,0.0,0.0,0.0,0.0,0.0,0.0,0.0,0.0,0.0,0.0,0.0,0.0,0.0,0.0,0.0,0.0,0.0,0.0,0.0,0.0,0.0,0.0,0.0,0.0,0.0,0.0,0.0,0.0,0.0,0.0,0.0,0.0,0.0,0.0,0.0,0.0,0.0,0.0,0.0,0.0,0.0,0.0,0.0,0.0,0.0,0.0,0.0,0.0,0.0,0.0,0.0,0.0,0.0,0.0,0.0,0.0,0.0,0.0,0.0,0.0,0.0,0.0,0.0,0.0,0.0,0.0,0.0,0.0,0.0,0.0,0.0,0.0,0.0,0.0,0.0,0.0,0.0,0.0,0.0,0.0,0.0,0.0,0.0,0.0,0.0,0.0,0.0,0.0,0.0,0.0,0.0,0.0,3.2391,0.0,0.0,0.0,0.0,0.0,0.0,0.0,0.0,0.0,0.0,0.0,0.0,0.0,0.0,0.0,0.0,0.0,0.0,0.0,0.0,0.0,0.0,0.0,0.0,2.5622,2.6584,2.6537,2.6836,0.0,0.0,0.0,0.0,0.0,0.0,0.0,0.0,0.0,2.2765,2.3589,2.4168,2.5143,2.6509,2.6195,2.5948,2.5636,0.0,0.0,0.0,0.0,0.0,0.0,0.0,0.0,0.0,0.0,0.0,0.0,0.0,0.0,0.0,0.0,0.0,0.0,0.0,0.0,0.0,0.0,0.0,0.0,0.0,0.0,0.0,0.0,0.0,0.0,0.0,0.0,0.0,0.0,0.0,0.0,0.0,0.0,0.0,0.0,0.0,0.0,0.0,0.0,0.0,0.0,0.0,0.0,0.0,0.0,0.0,0.0,0.0,0.0,0.0,0.0,0.0,0.0,0.0,0.0,0.0,0.0,0.0,0.0,0.0,0.0,0.0,0.0,0.0,0.0,0.0,3.3633,0.0,0.0,0.0,0.0,0.0,0.0,0.0,0.0,0.0,0.0,0.0,0.0,0.0,0.0,0.0,0.0,0.0,0.0,0.0,0.0,0.0,2.4592,2.4776,2.7432,2.925,2.9342,2.9977,3.0365,3.0372,2.9066,0.0,0.0,0.0,0.0,2.3326,2.4053,2.4845,2.5661,2.6978,2.8075,2.9077,3.0133,3.0017,2.8801,2.6828,0.0,0.0,0.0,0.0,0.0,0.0,0.0,0.0,0.0,0.0,0.0,0.0,0.0,0.0,0.0,0.0,0.0,0.0,0.0,0.0,0.0,0.0,0.0,0.0,0.0,0.0,0.0,0.0,0.0,0.0,0.0,0.0,0.0,0.0,0.0,0.0,0.0,0.0,0.0,0.0,0.0,0.0,0.0,0.0,0.0,0.0,0.0,0.0,0.0,0.0,0.0,0.0,0.0,0.0,0.0,0.0,0.0,0.0,0.0,0.0,0.0,0.0,0.0,3.5184,3.5878,3.6468,3.6449,3.6693,3.7122,3.6044,3.5016,3.4103,3.4023,0.0,0.0,0.0,0.0,0.0,0.0,0.0,0.0,0.0,0.0,0.0,0.0,0.0,0.0,0.0,0.0,0.0,0.0,0.0,2.6553,2.7106,2.8143,2.9081,2.9921,2.9859,2.994,3.0201,2.9963,0.0,0.0,0.0,0.0,2.7263,2.7352,2.7844,2.8711,3.0909,3.2372,3.3163,3.1694,3.1722,3.2815,2.9782,2.803,2.7325,0.0,0.0,0.0,0.0,0.0,0.0,0.0,0.0,0.0,0.0,0.0,0.0,0.0,0.0,0.0,0.0,0.0,0.0,0.0,0.0,0.0,0.0,0.0,0.0,0.0,0.0,0.0,0.0,0.0,0.0,0.0,0.0,0.0,0.0,0.0,0.0,0.0,0.0,0.0,0.0,0.0,3.1534,3.1673,0.0,0.0,0.0,0.0,0.0,0.0,0.0,0.0,0.0,0.0,0.0,0.0,0.0,3.4314,3.4287,3.4904,3.5512,3.61,3.6033,3.6401,3.7154,3.7057,3.7338,3.7947,3.7875,0.0,3.6636,3.7029,0.0,0.0,0.0,0.0,0.0,0.0,0.0,0.0,0.0,0.0,0.0,0.0,0.0,0.0,0.0,0.0,0.0,0.0,0.0,0.0,0.0,2.9727,3.0944,3.1456,3.1477,3.1733,3.2391,3.1598,0.0,0.0,0.0,2.9539,2.8682,2.914,3.0043,3.1367,3.3354,3.4161,3.3883,3.3025,3.2607,3.2553,3.1144,3.0161,2.9544,2.8758,0.0,0.0,0.0,0.0,0.0,0.0,0.0,0.0,0.0,0.0,0.0,0.0,0.0,0.0,0.0,0.0,0.0,0.0,0.0,0.0,0.0,0.0,0.0,0.0,0.0,0.0,0.0,0.0,0.0,0.0,0.0,0.0,0.0,0.0,0.0,0.0,0.0,0.0,0.0,3.298,3.3202,3.4151,3.4747,3.5323,0.0,0.0,0.0,0.0,0.0,0.0,0.0,0.0,0.0,3.4395,3.5756,3.6173,3.5451,3.6753,3.7269,3.6929,3.7296,3.758,3.7737,3.7697,3.8034,3.8694,3.9324,3.9382,3.9061,3.911,3.8393,3.7247,0.0,0.0,0.0,0.0,3.7346,3.7797,0.0,0.0,0.0,0.0,0.0,0.0,0.0,0.0,0.0,0.0,0.0,0.0,2.9589,3.1014,3.2108,3.2482,3.2605,3.3113,3.422,3.2953,3.2175,0.0,3.1554,3.0777,2.9918,3.094,3.2172,3.3622,3.4818,3.4971,3.4128,3.3747,3.3071,3.2097,3.1832,3.1561,3.1298,3.0607,2.9587,2.831,0.0,0.0,0.0,0.0,0.0,0.0,0.0,0.0,0.0,0.0,0.0,0.0,0.0,0.0,0.0,0.0,0.0,0.0,0.0,0.0,0.0,0.0,0.0,0.0,0.0,0.0,0.0,0.0,0.0,0.0,0.0,0.0,0.0,0.0,0.0,0.0,0.0,3.4535,3.4661,3.6413,3.6548,3.6833,0.0,0.0,0.0,0.0,0.0,0.0,3.5888,3.6748,3.6775,3.5853,3.734,3.772,3.6858,3.8006,3.828,3.7624,3.8283,3.8582,3.8521,3.8808,3.9196,3.9713,4.0678,4.1098,4.1105,4.0891,4.0311,3.9638,3.9978,4.0057,4.0006,4.0018,4.0206,4.054,0.0,0.0,0.0,0.0,0.0,0.0,0.0,0.0,0.0,0.0,0.0,3.168,3.1729,3.1293,3.1336,3.2226,3.2276,3.2881,3.4375,3.3529,3.3014,3.3112,3.3107,3.2656,3.1796,3.3299,3.4508,3.5356,3.5204,3.5094,3.4997,3.3653,3.2998,3.2884,3.1887,3.1565,3.1726,3.0936,3.0687,3.0719,2.9259,0.0,0.0,0.0,0.0,0.0,0.0,0.0,0.0,0.0,0.0,0.0,0.0,0.0,0.0,0.0,0.0,0.0,0.0,0.0,0.0,0.0,0.0,0.0,0.0,0.0,0.0,0.0,0.0,0.0,0.0,0.0,0.0,0.0,0.0,0.0,0.0,0.0,0.0,3.6932,3.578,0.0,0.0,0.0,0.0,3.6867,3.761,3.7688,3.6877,3.7657,3.7665,3.6661,3.7514,3.7928,3.7721,3.765,3.7912,3.8553,3.8596,3.8996,3.9768,4.0702,4.1156,4.1227,4.2118,4.2509,4.2471,4.2411,4.1894,4.1231,4.1619,4.1752,4.1674,4.1741,4.2289,4.3013,0.0,0.0,0.0,2.9044,2.9018,2.9045,2.9254,3.0512,3.1483,3.1674,3.2497,3.3016,3.2869,3.2666,3.2711,3.3201,3.2296,3.2195,3.3462,3.281,3.2617,3.3188,3.3737,3.3845,3.3406,3.4505,3.4944,3.4661,3.5129,3.5254,3.5077,3.4403,3.3976,3.3735,3.3197,3.2991,3.2982,3.1542,3.0644,3.0187,2.975,2.9241,0.0,0.0,0.0,0.0,0.0,0.0,0.0,0.0,0.0,0.0,0.0,0.0,0.0,0.0,0.0,0.0,0.0,0.0,0.0,0.0,0.0,0.0,0.0,0.0,0.0,0.0,0.0,0.0,0.0,0.0,0.0,0.0,0.0,0.0,0.0,0.0,0.0,3.743,3.6759,0.0,3.7432,3.7546,3.7574,3.7607,3.7382,3.734,3.7575,3.7884,3.7927,3.7546,3.8392,3.8758,3.8584,3.9067,3.9657,4.0349,4.0349,4.0767,4.1608,4.1976,4.2155,4.2193,4.2998,4.3379,4.3428,4.4095,4.3852,4.3168,4.3974,4.4295,4.4299,4.4357,4.4587,4.4882,0.0,0.0,0.0,2.9594,3.0029,3.0468,3.0677,3.1868,3.2826,3.2899,3.3497,3.3756,3.332,3.3162,3.3075,3.298,3.1983,3.1761,3.2559,3.2215,3.2357,3.3242,3.406,3.4604,3.4682,3.5251,3.5289,3.4718,3.5273,3.5454,3.5254,3.4961,3.4715,3.4486,3.4225,3.4018,3.38,3.2588,3.1715,3.1162,3.1087,3.0778,3.0349,0.0,0.0,0.0,0.0,0.0,0.0,0.0,0.0,0.0,0.0,0.0,0.0,0.0,0.0,0.0,0.0,0.0,0.0,0.0,0.0,0.0,0.0,0.0,0.0,0.0,0.0,0.0,0.0,0.0,0.0,0.0,0.0,0.0,0.0,3.7177,3.6512,3.8395,3.7757,3.7485,3.8366,3.8161,3.8007,3.8007,3.7465,3.7388,3.7969,3.8277,3.8434,3.8434,3.9238,3.9732,3.9951,4.0395,4.1017,4.1813,4.1813,4.2105,4.2722,4.3039,4.3235,4.3349,4.4456,4.4916,4.4974,4.5984,4.6111,4.5603,4.5632,4.568,4.5727,4.5727,4.5778,4.589,0.0,0.0,3.0625,2.9805,3.1094,3.1913,3.0915,3.2926,3.4281,3.3639,3.3977,3.3957,3.3135,3.283,3.2352,3.1455,3.1431,3.1576,3.1909,3.1911,3.2359,3.3398,3.4202,3.4976,3.5687,3.5686,3.5686,3.5686,3.562,3.5596,3.5591,3.5261,3.5102,3.5132,3.4856,3.4513,3.4091,3.4091,3.4018,3.3863,3.3585,3.2845,3.1918,0.0,0.0,0.0,0.0,0.0,0.0,0.0,0.0,0.0,0.0,0.0,0.0,0.0,0.0,0.0,0.0,0.0,0.0,0.0,0.0,0.0,0.0,0.0,0.0,0.0,0.0,0.0,0.0,0.0,0.0,0.0,0.0,0.0,3.8471,3.7794,3.7823,3.9718,3.8565,3.8032,3.915,3.8511,3.8011,3.8049,3.8053,3.8053,3.8092,3.8865,3.9365,3.9361,4.001,4.0846,4.1816,4.1519,4.1876,4.2871,4.2866,4.2883,4.3022,4.4021,4.4541,4.4769,4.6433,4.7129,4.7217,4.8066,4.8457,4.8332,4.6561,4.5895,4.5898,4.5898,4.5945,4.6144,3.0898,3.0898,3.082,3.0586,3.1953,3.2967,3.2628,3.4172,3.5211,3.4794,3.5011,3.5046,3.4574,3.4732,3.4473,3.3577,3.3006,3.2741,3.2909,3.2333,3.2658,3.4198,3.4974,3.5475,3.5686,3.5686,3.5686,3.5686,3.5698,3.5685,3.5681,3.5369,3.5596,3.6182,3.5926,3.5993,3.6402,3.6402,3.6359,3.6186,3.5175,3.5167,3.5674,0.0,0.0,0.0,0.0,0.0,0.0,0.0,0.0,0.0,0.0,0.0,0.0,0.0,0.0,0.0,0.0,0.0,0.0,0.0,0.0,0.0,0.0,0.0,0.0,0.0,0.0,0.0,0.0,0.0,0.0,0.0,3.87,3.8427,3.8215,3.7945,3.7933,3.848,3.8151,3.8028,3.8311,3.8176,3.8323,3.8982,3.9071,3.9329,3.9947,4.0179,4.0577,4.1169,4.1429,4.1934,4.2795,4.2757,4.32,4.4118,4.4013,4.4338,4.5039,4.5958,4.6413,4.6556,4.7636,4.8129,4.8134,4.8425,4.8563,4.8518,4.7959,4.7804,4.7834,4.7834,4.7883,4.7982,3.0898,3.0898,3.0898,3.0898,3.1992,3.289,3.2841,3.421,3.5141,3.4804,3.5275,3.5516,3.5224,3.5502,3.5194,3.3958,3.3814,3.3489,3.2816,3.2992,3.3701,3.4988,3.5531,3.5769,3.5699,3.5699,3.5699,3.5699,3.5652,3.5646,3.5645,3.5879,3.6252,3.6757,3.6961,3.7326,3.7707,3.7707,3.7917,3.8186,3.7724,3.7695,3.7862,3.7526,3.7896,3.8534,3.7622,3.7595,3.8157,3.9272,0.0,0.0,0.0,0.0,0.0,0.0,0.0,0.0,0.0,0.0,0.0,0.0,0.0,0.0,0.0,0.0,0.0,0.0,0.0,0.0,0.0,0.0,0.0,0.0,3.9341,3.9132,3.8733,3.8601,3.8579,3.8588,3.893,3.9158,3.9155,3.9193,3.9448,3.9949,4.002,4.0408,4.1224,4.1299,4.1635,4.2401,4.2437,4.2827,4.3682,4.3715,4.4204,4.5138,4.545,4.588,4.6444,4.7325,4.7753,4.788,4.8735,4.914,4.9143,4.9576,4.9754,4.9642,0.0,0.0,0.0,0.0,4.8884,4.9254,3.0898,3.0858,3.0858,3.0858,3.16,3.2186,3.2187,3.3468,3.4445,3.4417,3.5082,3.5527,3.5501,3.5603,3.5032,3.3339,3.4135,3.4081,3.2524,3.3866,3.4999,3.5662,3.5798,3.5831,3.5687,3.5686,3.5686,3.5686,3.5635,3.5659,3.5777,3.6562,3.7017,3.7251,3.8075,3.8479,3.8588,3.8696,3.9234,4.0076,4.0739,4.0339,3.9339,3.9034,3.9479,4.022,3.9659,3.9947,4.0617,4.0955,0.0,0.0,0.0,0.0,0.0,0.0,0.0,0.0,0.0,0.0,0.0,0.0,0.0,0.0,0.0,0.0,0.0,0.0,0.0,0.0,0.0,0.0,0.0,0.0,3.9584,3.944,3.9692,3.9635,3.9566,3.9567,4.0279,4.0795,4.0813,4.0822,4.0863,4.0943,4.0947,4.1353,4.2226,4.226,0.0,0.0,0.0,4.3659,4.4597,4.4656,4.5134,4.6108,4.6968,4.7381,4.7476,4.8378,4.879,4.8897,4.9795,5.0149,5.0231,5.1078,5.1363,5.1171,4.9627,4.8997,4.9012,4.8981,4.9492,5.0146,3.0719,3.0697,3.0665,3.0665,3.137,3.1974,3.2049,3.2851,3.3975,3.5386,3.5099,3.522,3.6465,3.6054,3.5017,3.3357,3.4685,3.5494,3.518,3.4823,3.4922,3.5656,3.5719,3.5741,3.5686,3.5686,3.5686,3.5686,3.5702,3.6059,3.6716,3.6905,3.7734,3.9094,3.9264,3.9688,4.0305,4.1054,4.1859,4.2596,4.2682,4.2576,4.2409,4.2627,4.3523,4.4557,4.4087,4.428,4.4864,4.5551,4.4474,4.2946,4.341,4.2247,0.0,0.0,0.0,0.0,0.0,0.0,0.0,0.0,0.0,0.0,0.0,0.0,0.0,0.0,0.0,0.0,0.0,0.0,0.0,4.1474,4.0997,4.0526,4.0546,4.0589,4.0581,4.0559,4.068,4.0805,4.0817,4.0847,4.1177,4.1882,4.1985,4.2384,4.3275,4.3314,4.3682,4.4487,4.4516,4.4947,4.5769,4.6507,4.7,4.7213,0.0,0.0,4.8449,4.9319,4.9776,4.9878,5.0742,5.113,5.1124,5.1316,5.1391,5.1349,5.1004,5.0887,5.0885,5.0882,5.0929,5.0984,3.1698,3.1164,3.0585,3.0585,3.0977,3.1264,3.1299,3.1993,3.3184,3.4952,3.4785,3.4977,3.6163,3.5563,3.4607,3.335,3.447,3.5432,3.5862,3.5447,3.522,3.5446,3.5439,3.5372,3.5202,3.5199,3.5199,3.5199,3.5612,3.6031,3.6458,3.7522,3.8485,3.9345,3.9947,4.0647,4.1431,4.1898,4.2834,4.4023,4.3977,4.419,4.4505,4.3986,4.4737,4.6051,4.6076,4.6532,4.7226,4.8021,4.7218,4.5925,4.5966,4.5212,4.4121,0.0,0.0,0.0,0.0,0.0,0.0,0.0,0.0,0.0,0.0,0.0,0.0,0.0,0.0,4.3618,0.0,0.0,4.2891,4.2888,4.2539,4.2266,4.2266,4.2275,4.1955,4.1011,4.1293,4.1582,4.16,4.204,4.2469,4.2921,4.2983,4.3374,4.42,4.4295,4.4636,4.5439,4.594,4.6371,4.6688,4.762,4.812,4.8145,4.8957,4.9359,4.9413,5.0312,5.0703,5.0775,5.1197,5.1384,5.1373,5.134,5.1268,5.1199,5.1215,5.1242,5.128,5.1228,5.1169,5.1109,3.271,3.1941,3.1036,3.1036,3.092,3.0888,3.1059,3.1535,3.2556,3.4471,3.4425,3.4574,3.5583,3.4948,3.4237,3.3807,3.4088,3.4821,3.5931,3.5748,3.5439,3.5108,3.5089,3.4966,3.4723,3.4713,3.4713,3.4713,3.549,3.598,3.6179,3.802,3.8954,3.9166,4.0361,4.1293,4.1955,4.2421,4.3552,4.5025,4.4999,4.5554,4.6314,4.4985,4.5334,4.6613,4.7137,4.7875,4.8619,4.9277,4.9058,4.8493,4.8161,4.809,4.7903,4.7014,4.6767,0.0,0.0,0.0,0.0,0.0,0.0,0.0,0.0,0.0,4.66,4.4938,4.5229,4.5351,4.3945,4.4256,4.4489,4.3787,4.3668,4.3626,4.3626,4.3667,4.3124,4.1672,4.2178,4.2651,4.2656,4.3281,4.3788,4.3936,4.3944,4.4293,4.5117,4.5372,4.5799,4.6384,4.7263,4.7696,4.7604,4.8521,4.9013,4.9062,4.9922,5.0345,5.0348,5.1052,5.1358,5.1307,5.1339,5.1337,5.1292,5.1215,5.1094,5.1017,5.0981,5.0992,5.1084,5.1021,5.0967,5.0946,3.2877,3.2777,3.2632,3.2632,3.2054,3.1827,3.2595,3.2195,3.271,3.5247,3.4162,3.3785,3.5437,3.4781,3.4527,3.5294,3.4128,3.4214,3.6294,3.5689,3.5109,3.4784,3.4765,3.4735,3.4713,3.4713,3.4713,3.4713,3.549,3.6287,3.6982,3.7932,3.879,3.958,4.074,4.1284,4.1521,4.3566,4.4964,4.5859,4.5936,4.6913,4.8261,4.7211,4.704,4.7483,4.8298,4.8933,4.9383,4.9459,4.9459,4.9417,4.974,4.9806,4.9839,5.0081,5.025,5.0142,4.9401,4.7998,4.6662,4.6217,4.6274,4.6014,0.0,0.0,4.5,4.3943,4.3867,4.3939,4.3744,4.3678,4.3648,4.3632,4.3505,4.3448,4.3448,4.3494,4.3447,4.326,4.3429,4.3554,4.3555,4.3633,4.4023,4.4804,4.4844,4.5234,4.6093,4.6875,4.7344,4.742,4.8239,4.8666,4.8617,4.9514,4.9941,4.9976,5.0836,5.1209,5.1086,5.1164,5.1156,5.1042,5.1026,5.104,5.1037,5.1018,5.1004,5.0981,5.0871,5.0752,5.0683,5.0924,5.0917,5.0811,3.4119,3.3583,3.3237,3.4234,3.3311,3.2528,3.2896,3.2676,3.3015,3.4626,3.3724,3.3219,3.3931,3.3296,3.2952,3.3364,3.413,3.4923,3.5632,3.6224,3.6325,3.5887,3.5137,3.4773,3.4884,3.419,3.4043,3.4482,3.5074,3.5889,3.6873,3.7677,3.8509,3.9364,4.0702,4.1584,4.2158,4.3779,4.5043,4.5978,4.6512,4.7226,4.8002,4.8596,4.8847,4.8887,4.9235,4.9474,0.0,5.0136,4.9909,4.9557,5.0227,4.9761,4.9281,5.1018,5.0186,4.8593,4.8222,4.8487,4.8578,4.7196,4.6872,4.6715,4.6003,4.606,4.588,4.4515,4.4621,4.4842,4.4373,4.4618,4.4908,0.0,4.4892,4.4861,4.4861,4.4886,4.4902,4.4902,4.5028,4.4911,4.4489,4.4919,4.5351,4.5664,4.6169,4.6595,4.6991,4.7806,4.8306,4.8299,4.912,4.9538,4.9427,5.0287,5.0691,5.0631,5.0984,5.1149,5.1086,5.1086,5.1053,5.0982,5.0994,5.0942,5.0879,5.0879,5.0807,5.072,5.0659,5.0527,5.045,5.0625,5.0611,5.0492,3.4773,3.4311,3.4003,3.5269,3.4465,3.3619,3.3619,3.3391,3.351,3.4129,3.3433,3.2814,3.2583,3.1813,3.1399,3.163,3.3928,3.5196,3.486,3.6592,3.7228,3.6401,3.5497,3.4965,3.4912,3.4065,3.39,3.4398,3.4976,3.5763,3.6714,3.7507,3.8282,3.9038,4.0436,4.1445,4.2198,4.3404,4.4383,4.5216,4.6147,4.6706,4.7185,4.8703,4.923,4.9186,4.9655,4.9748,4.9682,4.9828,4.9543,4.9268,4.9877,4.9379,4.903,5.1432,5.0432,4.8516,4.8388,4.8995,4.9291,4.7734,4.7138,4.6913,4.6981,4.6894,4.6504,4.5276,4.5507,4.5703,4.5154,4.5478,4.5852,4.5867,4.5836,4.5886,4.6155,4.6175,4.6318,4.6574,4.6716,4.6584,4.6023,4.6347,4.6666,4.6826,4.7423,4.7761,4.7784,4.8583,4.907,4.9061,4.9882,5.029,5.0194,5.0821,5.1086,5.1017,5.1017,5.0976,5.0931,5.094,5.1037,5.127,5.127,5.1318,5.1398,5.1398,5.1313,5.1141,5.1141,5.1061,5.0961,5.1056,5.075,5.0277,3.4202,3.4891,3.5423,3.55,3.5462,3.5423,3.5423,3.4699,3.4167,3.4205,3.3433,3.2583,3.1811,3.0744,3.0409,3.1222,3.341,3.4593,3.4258,3.6516,3.7198,3.5596,3.5504,3.5255,3.4739,3.4677,3.4668,3.4703,3.5473,3.6159,3.6705,3.7513,3.8206,3.8756,3.99,4.0615,4.1033,4.2319,4.3005,4.337,4.4365,4.5276,4.6156,4.7092,4.7464,4.7679,4.9245,4.9795,4.9557,4.7869,4.7867,4.8528,4.8554,4.9059,5.0,5.1758,5.2235,5.2011,5.1363,4.9876,4.8318,4.7434,4.6558,4.5927,4.5964,4.592,4.5946,4.5857,4.5885,4.5885,4.5885,4.5761,4.5743,4.5777,4.5673,4.592,4.6758,4.6946,4.7297,4.8228,4.8448,4.852,0.0,4.7809,4.7655,4.837,4.8434,4.8472,4.8475,4.9297,4.9741,4.9681,5.0506,5.0984,5.0952,5.0991,5.0988,5.0984,5.0984,5.0924,5.0803,5.0749,5.114,5.1861,5.1861,5.2262,5.2927,5.2927,5.2847,5.2722,5.2722,5.2641,5.2518,5.2525,5.158,5.0265,3.4205,3.4891,3.55,3.55,3.55,3.55,3.55,3.5234,3.4661,3.3506,3.2938,0.0,0.0,0.0,0.0,0.0,3.1952,3.3368,3.4145,3.6019,3.7089,3.7088,3.6271,3.5732,3.5516,3.47,3.4555,3.5033,3.5095,3.5574,3.6517,3.6889,3.7492,3.8226,3.9726,4.0456,4.0639,4.1844,4.2575,4.3075,4.4506,4.5475,4.6214,4.8228,4.8282,4.7405,0.0,4.7379,4.6476,4.6469,4.623,4.6124,4.7286,4.7058,4.6716,4.8437,5.0227,5.1327,4.9845,4.8964,4.8147,4.6683,4.6485,4.6463,4.5883,4.5743,4.5683,4.5696,4.6573,4.7376,4.7376,4.7782,4.8167,4.8197,4.7679,4.7355,4.7658,4.7738,4.7863,4.8146,4.8322,0.0,0.0,0.0,0.0,4.8546,4.9092,4.9425,4.9425,5.0186,5.0607,5.0546,5.0859,5.097,5.0867,5.0867,5.0823,5.0816,5.1348,5.159,5.1539,5.2107,5.251,5.2769,5.2658,5.2757,5.2987,5.2895,5.278,5.266,5.266,5.2574,5.2468,5.2272,5.1865,5.1469,3.4584,3.535,3.5923,3.5923,3.587,0.0,0.0,0.0,0.0,0.0,0.0,0.0,0.0,0.0,0.0,0.0,0.0,3.2397,3.3556,3.5302,3.6537,3.7156,3.65,3.6025,3.5789,3.5032,3.4995,3.5749,3.5287,3.563,3.6787,3.6388,3.6666,3.7513,3.8637,3.9436,4.0029,4.118,4.2254,4.3221,4.4137,4.4868,4.5564,4.7248,4.7062,0.0,4.6199,4.5462,4.441,4.4642,4.4736,4.4878,4.5693,4.6032,4.6387,4.7721,4.9586,5.0817,4.9243,4.8729,4.8266,4.6781,4.6716,4.6882,4.6457,4.632,4.6316,4.6453,4.7586,4.8548,4.8548,4.9009,4.951,4.9822,4.9125,4.8663,4.8971,4.9048,4.9028,4.9044,4.913,4.9389,0.0,0.0,0.0,4.9371,4.987,5.0195,5.0195,5.0627,5.0894,5.0894,5.0894,5.0858,5.0769,5.1034,5.1336,5.1592,5.212,5.2351,5.239,5.2928,5.3351,5.3659,5.3503,5.3616,5.3793,5.3697,5.3554,5.3425,5.3425,5.3319,5.3135,5.2972,5.2814,5.2644,3.5346,3.6147,3.6678,0.0,0.0,0.0,0.0,0.0,0.0,0.0,0.0,0.0,0.0,0.0,0.0,0.0,0.0,0.0,3.2593,3.4336,3.5492,3.5789,3.6128,3.603,3.5509,3.5498,3.5847,3.6626,3.5847,3.6093,3.7242,3.5931,3.5791,3.668,3.6791,3.7715,3.9236,4.0396,4.1946,4.3612,4.3237,4.3538,4.4265,4.4464,4.4079,4.3564,4.4415,4.4249,4.3462,4.2688,4.3578,4.4882,4.4062,4.6039,4.8833,4.9544,5.0251,5.0562,4.9583,4.9048,4.8553,4.7598,4.7204,4.7137,4.7444,4.7483,4.7607,4.8049,4.887,4.9486,0.0,0.0,4.9836,5.0649,5.0043,4.9745,5.0592,5.0707,5.0721,0.0,0.0,0.0,0.0,0.0,0.0,5.0693,0.0,5.0721,5.0721,5.0712,5.0707,5.0707,5.0707,5.0707,5.0745,5.1543,5.239,5.3197,5.3236,5.3274,5.3274,5.3308,5.3769,5.4533,5.4407,5.47,5.5301,5.5161,5.5014,5.4936,5.4936,5.4782,5.4602,5.4585,5.4378,5.3877,0.0,0.0,0.0,0.0,0.0,0.0,0.0,0.0,0.0,0.0,0.0,0.0,0.0,0.0,0.0,0.0,0.0,0.0,3.2958,3.318,3.366,3.4603,3.4712,3.4523,3.3964,3.3954,3.4055,3.4269,3.4055,3.4141,3.447,3.5032,3.561,3.6221,3.718,3.8401,3.9726,4.0286,4.0923,4.1623,4.2413,4.298,4.3555,4.4845,4.4781,4.4167,4.5055,4.4473,4.3379,4.3854,4.4756,4.5634,4.54,4.6767,4.8513,4.9057,4.9264,4.9202,4.8653,4.8422,4.8134,4.7308,4.7511,4.783,4.7565,4.7483,4.7691,4.8453,4.978,5.0899,0.0,0.0,0.0,5.2079,5.1135,0.0,5.0668,5.0707,0.0,5.0721,0.0,5.0726,5.0726,5.0758,0.0,0.0,5.0733,5.0752,5.0752,5.073,5.0707,5.0707,5.0707,5.0976,5.1582,5.2428,5.2967,5.3197,5.3857,5.4164,5.4203,5.4688,5.5032,5.5251,5.4982,5.4973,5.5161,5.5007,5.5185,5.55,5.55,5.57,5.594,5.5723,5.555,5.5414,0.0,0.0,0.0,0.0,0.0,0.0,0.0,0.0,0.0,0.0,0.0,0.0,0.0,0.0,0.0,0.0,0.0,0.0,0.0,3.224,3.265,3.3638,3.3795,3.356,3.2926,3.2926,3.322,3.3863,3.3077,3.3393,3.4677,3.4237,3.4296,3.4766,3.5866,3.6882,3.7845,3.9008,4.0033,0.0,0.0,4.2018,4.262,4.3585,4.3685,4.3408,4.42,4.4598,4.4851,4.5623,0.0,4.5924,4.6513,4.7516,4.8625,4.9089,0.0,4.8985,4.8735,4.8544,4.8322,4.7857,4.8089,4.8362,4.8155,4.8476,4.8854,4.9072,5.0723,5.2108,5.1971,5.2285,5.2717,0.0,0.0,0.0,5.1241,5.1241,5.1087,0.0,5.0707,0.0,5.0707,5.0707,5.0707,0.0,5.0744,5.0751,5.0751,5.1058,5.1241,5.1241,5.1542,5.2131,5.2965,5.3431,5.3854,5.42,5.4649,5.5042,5.542,5.5808,5.6192,5.648,5.6119,5.5973,5.5951,5.5708,5.5792,5.6065,5.6065,5.6145,5.6268,5.6051,5.5944,5.5797,0.0,0.0,0.0,0.0,0.0,0.0,0.0,0.0,0.0,3.3058,3.281,0.0,0.0,0.0,0.0,0.0,0.0,0.0,0.0,0.0,3.2032,3.2734,3.2991,3.2747,3.2022,3.2022,3.2618,3.3857,3.2269,3.2876,3.5426,3.3274,3.2532,3.3149,3.4024,3.473,3.5457,3.7491,3.9273,4.0719,4.0537,4.0988,4.1812,0.0,4.1931,4.2251,4.3115,4.4741,4.6605,4.7274,4.6872,4.6282,4.7405,4.8181,4.8806,4.9273,4.9311,4.9216,4.9185,4.889,4.8659,4.8659,4.8677,4.8729,4.8881,4.9562,5.0061,4.9649,5.1284,5.2623,5.2102,5.2332,5.282,5.3445,0.0,5.1806,5.1769,5.1736,5.1462,5.0764,5.0687,5.0682,5.0668,5.0754,5.0826,5.0748,5.0898,5.0957,5.0841,5.16,5.2052,5.2036,5.2746,5.3501,5.4261,5.4376,5.4842,5.5647,5.553,5.5912,5.668,5.666,5.7014,5.7651,5.7199,5.702,5.6995,5.6621,5.6537,5.661,5.661,5.6462,5.6261,5.6261,5.6118,5.5915,0.0,0.0,0.0,0.0,0.0,0.0,0.0,0.0,0.0,0.0,3.3032,3.2919,0.0,0.0,0.0,0.0,0.0,0.0,0.0,0.0,0.0,3.1507,3.1544,3.1224,3.0514,3.047,3.0447,3.0376,3.0041,3.0359,3.1167,3.1346,3.205,3.3202,3.3993,3.5325,3.7118,3.7781,3.8745,3.9847,4.009,4.0824,4.1812,4.1812,0.0,0.0,4.4603,4.5256,4.5573,4.7005,4.7768,4.8093,4.8117,4.8126,4.8249,4.8822,4.8907,4.8746,4.8541,4.8411,4.8382,4.8382,4.8532,4.8729,4.8881,4.8717,0.0,0.0,5.035,5.0909,5.1811,5.228,5.244,5.2266,5.1773,5.1297,5.0942,5.0899,5.0826,0.0,5.0532,5.0495,5.0396,5.1053,0.0,0.0,5.1997,5.2291,5.1557,5.233,5.2745,5.2668,5.3453,5.3982,5.4135,5.4778,5.5543,5.6416,5.6396,5.6664,5.7149,5.7058,5.6952,5.6885,5.6685,0.0,5.6603,5.6519,5.6737,5.7089,5.7089,5.7306,5.7647,5.7647,5.7613,5.7556,0.0,0.0,0.0,0.0,0.0,0.0,0.0,3.3943,3.3909,3.516,3.4749,3.4253,3.4149,3.3921,3.3406,0.0,0.0,0.0,0.0,0.0,0.0,0.0,0.0,0.0,0.0,0.0,0.0,0.0,0.0,3.0937,3.2275,3.2051,3.2278,3.2918,3.3698,3.4389,3.5009,3.5726,3.6589,3.7532,3.8266,3.913,4.0024,0.0,0.0,0.0,0.0,4.4931,4.4978,4.6461,4.7445,4.801,4.7972,4.8044,4.8207,4.8153,4.8129,4.8124,4.7915,4.7985,4.817,4.8277,4.8649,4.8924,4.8658,0.0,0.0,0.0,4.9871,5.0636,5.1256,5.1647,5.1968,5.2177,5.1526,5.0987,5.0915,5.0421,5.0105,5.0186,5.0431,5.0563,5.0491,5.1311,5.1726,5.153,5.2496,5.2798,5.2107,5.3026,5.3626,5.3788,5.4847,5.5213,5.4845,5.576,5.636,5.6647,5.656,5.6907,5.7496,5.7446,5.7593,5.7866,5.7633,5.755,5.754,5.7365,5.7417,5.7608,5.7608,5.7765,5.7997,5.7997,5.7997,5.7997,0.0,0.0,0.0,0.0,0.0,0.0,3.5879,3.5206,3.511,3.6787,3.6586,3.5954,3.5089,3.4704,3.3879,0.0,0.0,0.0,0.0,0.0,0.0,0.0,0.0,0.0,0.0,0.0,0.0,0.0,0.0,0.0,0.0,0.0,0.0,0.0,3.325,3.3286,3.2939,3.3944,3.4915,0.0,0.0,3.789,0.0,0.0,0.0,0.0,0.0,4.4479,4.4533,4.5991,4.6773,4.7198,4.7468,4.7941,4.8307,4.7808,4.7763,4.7806,4.7489,4.7715,4.8101,4.8258,4.8787,4.9137,4.8449,4.9159,0.0,4.8541,4.9361,5.0325,5.0508,5.1053,5.163,5.2177,5.1595,5.1058,5.1026,5.0428,5.0038,0.0,5.0559,0.0,5.0876,5.166,0.0,5.1992,5.2969,5.3325,5.2823,5.3784,5.4493,5.4824,5.5951,5.6314,5.5719,5.6567,5.6935,5.6901,5.6828,5.7171,5.7859,5.7859,5.8202,5.8774,5.8492,5.8374,5.8352,5.8122,5.7997,5.7997,5.7997,5.8107,5.8253,5.8253,5.8364,5.851,0.0,0.0,0.0,0.0,0.0,0.0,3.5311,3.5387,3.5957,3.7836,3.78,3.7443,3.7011,3.584,3.4782,0.0,0.0,0.0,0.0,0.0,0.0,0.0,0.0,0.0,0.0,0.0,0.0,0.0,0.0,0.0,0.0,0.0,0.0,0.0,0.0,3.3066,3.3733,3.4561,0.0,0.0,0.0,0.0,0.0,0.0,0.0,0.0,0.0,4.4346,4.4289,4.5937,0.0,4.6186,4.6921,4.7753,4.8489,4.8478,0.0,0.0,4.7601,4.7818,4.8277,4.8296,4.8787,4.9137,4.8449,0.0,4.8335,4.8283,4.8406,4.8783,4.9564,5.0926,5.1831,5.1453,5.1924,5.1959,5.0885,5.1292,5.1382,5.0543,0.0,0.0,5.1427,5.2328,5.2755,5.2373,5.3791,5.4485,5.405,5.4764,5.5219,5.5257,5.6079,5.6472,5.6397,5.65,5.6921,5.7612,5.7593,5.7883,5.8413,5.8413,5.8289,5.8099,5.8065,5.8054,0.0,5.802,5.7997,5.7997,5.7997,5.8437,5.9086,5.9086,5.9563,6.0199,0.0,0.0,0.0,0.0,0.0,0.0,3.5912,3.4896,3.5057,3.8094,3.8023,3.7787,3.8086,3.7902,3.6909,3.4769,0.0,0.0,0.0,0.0,0.0,0.0,0.0,0.0,0.0,0.0,0.0,0.0,0.0,0.0,0.0,0.0,0.0,0.0,0.0,0.0,3.5312,3.5642,0.0,0.0,0.0,0.0,0.0,0.0,0.0,0.0,0.0,0.0,4.3804,0.0,4.4912,4.5242,4.5729,4.6167,4.6676,4.746,4.787,4.7946,4.7375,4.7669,4.8151,4.8267,4.8693,4.8932,4.8411,0.0,4.8514,4.8356,4.8296,4.8563,4.938,5.0482,5.1387,5.1659,5.1984,5.2082,5.1773,5.1461,5.1165,5.0957,5.1491,0.0,0.0,0.0,5.3228,5.357,5.4628,5.5212,5.5047,5.5667,5.592,5.5736,5.6693,5.7062,5.6663,5.7342,5.775,5.7893,5.7893,5.7976,5.8212,5.8212,5.8133,5.8033,5.851,5.8719,0.0,5.9233,5.9428,5.9428,5.9428,5.9648,5.993,5.993,6.0114,6.0419,0.0,0.0,0.0,0.0,0.0,3.3875,3.5935,3.4775,3.4951,3.8562,3.8526,3.8485,3.9413,3.9572,3.8743,3.6553,3.5616,0.0,0.0,0.0,0.0,0.0,0.0,0.0,0.0,0.0,0.0,3.4878,0.0,0.0,0.0,0.0,0.0,0.0,0.0,0.0,0.0,0.0,0.0,0.0,0.0,0.0,0.0,0.0,0.0,0.0,0.0,0.0,0.0,0.0,0.0,4.4519,4.4693,4.4842,4.5223,4.6566,4.7157,4.737,4.7273,4.768,4.8121,4.8267,4.8604,4.8796,0.0,0.0,4.8787,4.8364,4.8296,4.848,4.904,4.9848,5.0692,5.151,5.1657,5.1875,5.2528,5.1999,5.1571,5.1753,0.0,5.2601,5.238,5.3078,5.3885,5.4693,5.55,5.5941,5.5941,5.6567,5.6739,5.6261,5.7258,5.7561,5.7152,5.7951,5.8246,5.7997,5.7997,5.8107,5.8364,5.8364,5.8474,5.8731,5.9306,5.9563,5.96,6.015,6.0419,6.0419,6.0419,6.0566,6.075,6.075,6.0896,6.1104,0.0,0.0,0.0,0.0,0.0,0.0,3.5025,3.5202,3.6295,3.9396,3.9617,3.9957,4.1237,4.049,3.9892,3.9856,3.7485,0.0,0.0,0.0,0.0,0.0,0.0,0.0,0.0,0.0,3.6677,3.7456,3.7492,3.7492,3.7492,0.0,0.0,0.0,0.0,0.0,0.0,0.0,0.0,0.0,0.0,0.0,0.0,0.0,0.0,0.0,0.0,0.0,0.0,0.0,0.0,0.0,0.0,4.413,4.4726,4.6244,4.6573,4.6601,4.7368,4.7955,4.8296,4.8296,4.8604,4.8796,0.0,0.0,4.8787,4.8364,4.8296,4.8296,4.8296,4.9013,4.9858,5.0692,5.0802,5.1389,5.2957,5.3177,5.3177,0.0,5.3885,5.4069,5.3251,5.3922,5.473,5.5548,5.6345,5.6774,5.6774,5.7556,5.7604,5.6822,5.7567,5.7971,5.7997,5.8008,5.8008,5.7997,5.7997,5.8437,5.9196,5.9196,5.9636,6.0382,6.0382,6.037,6.037,6.0419,6.0419,6.0419,6.0419,6.0896,6.1594,6.1594,6.2108,6.2793,0.0,0.0,0.0,0.0,0.0,0.0,0.0,3.3426,3.4237,3.7091,3.7772,3.8662,4.0409,4.0171,3.9908,3.9908,3.8141,0.0,0.0,0.0,0.0,0.0,0.0,0.0,0.0,0.0,3.7522,3.8322,3.8445,3.9,3.9966,3.9529,3.9437,3.9562,0.0,0.0,0.0,0.0,0.0,0.0,0.0,0.0,0.0,0.0,0.0,0.0,0.0,0.0,0.0,0.0,0.0,0.0,0.0,0.0,0.0,4.3344,4.4678,4.6002,4.7036,4.7571,4.7913,4.8334,4.853,4.8569,4.8358,4.8393,4.8458,4.8335,4.8296,4.8296,4.8296,4.9013,4.9858,5.0655,5.1242,5.1977,5.3067,5.3214,0.0,5.3214,5.3911,5.4509,5.4803,5.5574,5.6161,5.6418,5.7152,5.7629,5.7629,5.785,5.7886,5.7629,5.7886,5.7997,5.7997,5.8535,5.8829,5.8829,5.9391,5.9758,6.0003,6.0003,6.015,6.0419,6.097,6.1227,6.1263,6.1802,6.2022,6.2022,6.2022,6.2205,6.2426,6.2426,6.2572,6.2793,0.0,0.0,0.0,0.0,0.0,0.0,0.0,3.2754,3.3613,3.6568,3.7037,3.7963,4.0282,3.9906,3.9578,3.9871,3.899,0.0,0.0,0.0,0.0,0.0,0.0,0.0,0.0,3.7705,3.8376,3.9235,3.967,4.0519,4.1639,4.1595,4.1542,4.1507,4.07,0.0,0.0,0.0,0.0,0.0,0.0,0.0,4.3506,0.0,0.0,0.0,0.0,0.0,0.0,0.0,0.0,0.0,0.0,0.0,0.0,0.0,4.3024,4.46,4.6142,4.685,4.7311,4.792,4.8063,4.8106,4.829,4.8296,4.8296,4.8296,4.8296,4.8296,4.8296,4.8746,4.9311,4.9877,5.0373,5.1175,5.262,5.3046,5.3562,5.444,5.473,5.517,5.5978,5.6528,5.6921,5.7226,5.7703,5.7997,5.7997,5.829,5.8437,5.8437,5.8437,5.8437,5.8437,5.9233,5.9636,5.9673,6.015,6.0566,6.086,6.086,6.1006,6.1325,6.1851,6.2034,0.0,6.2572,6.2793,6.2793,6.2793,6.2793,6.2793,6.2793,6.2793,6.2793,0.0,0.0,0.0,0.0,0.0,0.0,0.0,3.3067,3.4169,3.7322,3.7119,3.7792,4.0614,3.9599,3.9019,3.9835,0.0,0.0,0.0,0.0,0.0,0.0,0.0,0.0,0.0,3.8799,3.9292,4.0346,4.1103,4.1941,4.2845,4.3556,4.3366,4.2433,4.158,4.07,0.0,0.0,0.0,0.0,4.2066,4.2837,0.0,0.0,0.0,0.0,0.0,0.0,0.0,0.0,0.0,0.0,0.0,0.0,0.0,0.0,0.0,0.0,0.0,4.5905,4.659,4.7251,4.7436,4.7606,4.818,4.8296,0.0,4.8296,4.8267,4.8258,4.837,4.8304,4.8337,4.8638,4.8615,4.9444,5.1846,5.2929,5.4289,5.6539,5.6139,5.6003,5.6827,5.6898,5.7226,5.8033,5.8107,5.8107,5.818,5.8866,5.9306,5.9306,5.9343,5.9343,5.9306,6.0077,6.0493,6.0493,6.0529,6.097,6.1704,6.1704,6.2108,6.2793,6.2793,6.2793,6.2793,6.2793,6.2793,6.2793,6.2793,6.2793,6.2793,6.2793,6.2793,6.2793,0.0,0.0,0.0,0.0,0.0,0.0,0.0,0.0,0.0,0.0,3.6478,3.7357,3.9082,3.8946,3.9019,0.0,0.0,0.0,0.0,0.0,0.0,0.0,0.0,0.0,0.0,3.9606,4.0614,4.2701,4.2502,4.3319,4.5104,4.4887,4.4575,4.4076,4.2645,4.1222,0.0,0.0,0.0,0.0,4.2873,4.3322,0.0,0.0,0.0,0.0,4.3506,4.3506,0.0,0.0,0.0,0.0,0.0,0.0,0.0,0.0,4.2181,4.301,4.412,0.0,4.6714,4.7405,4.7908,4.8251,0.0,4.8296,4.8296,4.8296,4.7945,4.7938,4.9091,4.8356,4.8025,4.9317,4.9467,5.0069,5.193,5.3845,5.5491,5.6645,5.6645,5.6836,5.7648,5.7728,5.807,5.8866,5.8902,5.9196,5.9795,6.0015,6.0114,6.0114,6.0713,6.075,6.0114,6.0933,6.13,6.1337,6.1949,6.2316,6.2499,6.2499,6.2609,6.2793,6.2793,6.2793,6.2793,6.2793,6.2793,6.2793,6.2793,6.2793,6.2793,6.2793,6.2793,6.2793,0.0,0.0,0.0,0.0,0.0,0.0,0.0,0.0,0.0,0.0,0.0,3.7481,3.8585,3.8681,0.0,0.0,0.0,0.0,0.0,0.0,0.0,0.0,0.0,0.0,0.0,3.9908,4.0968,4.3105,4.2789,4.3821,4.6028,4.5371,4.512,4.5149,4.3167,4.1625,0.0,0.0,0.0,4.2359,4.3176,0.0,0.0,0.0,0.0,0.0,4.3506,4.3506,0.0,4.3309,4.3021,4.2711,0.0,0.0,0.0,0.0,4.2578,4.3558,4.3994,4.5,4.6214,4.7263,4.7734,4.8044,4.8253,4.8296,4.8296,4.8296,4.8045,4.8045,4.8845,4.8676,4.8582,4.9147,5.0128,5.149,5.3519,5.5461,5.6874,5.7322,5.768,5.8065,5.8504,5.8543,5.8866,5.9673,5.9747,5.993,6.0382,6.075,6.0933,6.0933,6.1741,6.1777,6.097,6.1741,6.2144,6.2144,6.2572,6.2793,6.2793,6.2793,6.2793,6.2793,6.2793,6.2793,6.2793,6.2793,6.2793,6.2793,6.2793,6.2793,6.2793,6.2793,6.2793,6.2793,0.0,0.0,0.0,0.0,0.0,0.0,0.0,0.0,0.0,0.0,0.0,0.0,0.0,0.0,0.0,0.0,0.0,0.0,0.0,0.0,0.0,0.0,0.0,0.0,4.0047,4.0084,4.1005,4.2912,4.303,4.4206,4.6334,4.5765,4.5579,4.5626,4.3461,4.2029,0.0,0.0,0.0,4.2543,4.3212,0.0,0.0,0.0,0.0,0.0,0.0,0.0,0.0,4.3767,4.3864,4.3818,4.3263,0.0,0.0,0.0,0.0,0.0,4.4626,4.5263,4.6049,4.714,4.7459,4.7684,4.8163,4.8296,4.8296,4.8296,4.8238,4.8319,4.8764,4.9275,4.9528,4.9228,5.0926,5.3093,5.5393,5.7032,5.8043,5.8166,5.8786,5.9259,5.9383,5.9394,5.971,6.0529,6.0566,6.0639,6.075,6.141,6.1777,6.1777,6.2426,6.2462,6.1777,6.2462,6.2793,6.2793,6.2793,6.2793,6.2793,6.2793,6.2793,6.2793,6.2793,6.2793,6.2793,6.2793,6.2793,6.2793,6.2793,6.2793,6.2793,6.2793,6.2793,6.2793,0.0,0.0,0.0,0.0,0.0,0.0,0.0,0.0,0.0,0.0,0.0,0.0,0.0,0.0,0.0,0.0,0.0,0.0,0.0,0.0,0.0,0.0,0.0,0.0,0.0,0.0,4.2052,4.44,4.5068,4.5947,4.6962,4.7521,4.6753,4.4847,4.38,4.2882,4.2139,4.2249,4.269,4.3322,4.3433,0.0,0.0,0.0,0.0,0.0,0.0,0.0,0.0,4.3538,4.3715,4.3828,4.3515,0.0,0.0,0.0,0.0,0.0,4.7112,4.8025,4.8255,4.7591,4.7777,4.8209,4.8277,4.8296,4.8296,4.8296,4.7879,4.8333,5.0951,5.0513,5.0202,5.151,5.2607,5.3872,5.5556,5.7061,5.8263,5.8914,5.9114,5.9481,6.0132,6.0222,6.0566,6.1374,6.141,6.1704,6.2389,6.2536,6.2609,6.2609,6.2756,6.2756,6.2609,6.2756,6.2793,6.2793,6.2793,6.2793,6.2793,6.2793,6.2793,6.2793,6.2793,6.2793,6.2793,6.2793,6.2793,6.2793,6.2793,6.2793,6.2793,6.2793,6.2793,6.2793,0.0,0.0,0.0,0.0,0.0,0.0,0.0,0.0,0.0,0.0,0.0,0.0,0.0,0.0,0.0,0.0,0.0,0.0,0.0,0.0,0.0,0.0,0.0,0.0,0.0,0.0,4.3158,4.47,4.5166,4.5833,4.6623,4.6561,4.5869,4.4663,4.3873,4.3286,4.2947,4.2947,4.3176,4.3506,0.0,0.0,0.0,0.0,0.0,0.0,0.0,0.0,0.0,0.0,4.4867,4.4865,4.4307,0.0,0.0,0.0,0.0,0.0,4.7232,4.8117,4.867,4.8853,4.9601,5.0253,5.0018,4.9991,4.9908,4.9686,4.9438,4.9784,5.1652,5.1778,5.2319,5.44,5.5051,5.5822,5.7407,5.8592,5.9432,5.9781,6.022,6.0628,6.1009,6.1042,6.1374,6.2181,6.2254,6.2389,6.2793,6.2793,6.2793,6.2793,6.2793,6.2793,6.2793,6.2793,6.2793,6.2793,6.2793,6.2793,6.2793,6.2793,6.2793,6.2793,6.2793,6.2793,6.2793,6.2793,6.2793,6.2793,6.2793,6.2793,6.2793,6.2793,6.2793,6.2793,0.0,0.0,0.0,0.0,0.0,0.0,0.0,0.0,0.0,0.0,0.0,0.0,0.0,0.0,0.0,0.0,0.0,0.0,0.0,0.0,0.0,0.0,0.0,0.0,0.0,0.0,4.3797,4.4784,4.4981,4.5532,4.6462,4.5668,4.5154,4.4957,4.4342,4.3836,4.3506,4.369,4.38,4.3763,0.0,0.0,0.0,0.0,0.0,0.0,0.0,0.0,0.0,0.0,0.0,0.0,0.0,0.0,0.0,4.5397,4.5691,4.6397,4.7416,4.8208,4.903,5.0204,5.0821,5.1169,5.1358,5.1312,5.1232,5.1113,5.1242,5.161,5.2417,5.3217,5.4517,5.6715,5.71,5.7643,5.9245,6.0016,6.0481,6.0673,6.1209,6.1667,6.1851,6.1887,6.2144,6.2756,6.2793,6.2793,6.2793,6.2793,6.2793,6.2793,6.2793,6.2793,6.2793,6.2793,6.2793,6.2793,6.2793,6.2793,6.2793,6.2793,6.2793,6.2793,6.2793,6.2793,6.2793,6.2793,6.2793,6.2793,6.2793,6.2793,6.2793,6.2793,6.2793,6.2793,0.0,0.0,0.0,0.0,0.0,0.0,0.0,0.0,0.0,0.0,0.0,0.0,0.0,0.0,0.0,0.0,0.0,0.0,0.0,0.0,0.0,0.0,0.0,0.0,0.0,4.3303,4.3405,4.4971,4.5134,4.5929,4.7287,4.6508,4.5999,4.581,4.5736,0.0,0.0,0.0,4.4626,4.4553,4.3791,0.0,0.0,0.0,0.0,0.0,0.0,0.0,0.0,0.0,0.0,0.0,0.0,0.0,4.603,4.6718,4.6966,4.7379,4.8976,4.9741,5.0248,5.1102,4.9935,4.9058,5.0977,5.1111,5.1036,5.1767,5.2527,5.3287,5.4069,5.495,5.6067,5.7647,5.7983,5.8546,6.0079,6.0346,6.0689,6.1422,6.1569,6.1887,6.2646,6.2719,6.2756,6.2793,6.2793,6.2793,6.2793,6.2793,6.2793,6.2793,6.2793,6.2793,6.2793,6.2793,6.2793,6.2793,6.2793,6.2793,6.2793,6.2793,6.2793,6.2793,6.2793,6.2793,6.2793,6.2793,6.2793,6.2793,6.2793,6.2793,6.2793,6.2793,6.2793,6.2793,0.0,0.0,0.0,0.0,0.0,0.0,0.0,0.0,0.0,0.0,0.0,0.0,0.0,0.0,0.0,0.0,0.0,0.0,0.0,0.0,0.0,0.0,0.0,4.417,4.4931,4.4483,4.452,4.5123,4.5679,4.6223,4.6761,4.6363,4.6362,4.6608,0.0,0.0,0.0,0.0,4.5443,4.5406,4.5112,4.4892,0.0,0.0,0.0,0.0,0.0,0.0,0.0,0.0,4.5883,4.5746,4.4718,4.5443,4.6608,4.6425,4.6718,4.7333,4.8489,4.9304,4.9945,5.0511,5.025,5.039,5.2429,5.2763,5.2969,5.4007,5.4483,5.4657,5.455,5.6381,5.779,5.7413,5.8591,5.9932,6.097,6.1153,6.1447,6.2254,6.2365,6.2462,6.2756,6.2793,6.2793,6.2793,6.2793,6.2793,6.2793,6.2793,6.2793,6.2793,6.2793,6.2793,6.2793,6.2793,6.2793,6.2793,6.2793,6.2793,6.2793,6.2793,6.2793,6.2793,6.2793,6.2793,6.2793,6.2793,6.2793,6.2793,6.2793,6.2793,6.2793,6.2793,6.2793,6.2793,0.0,0.0,0.0,0.0,0.0,0.0,0.0,0.0,0.0,0.0,0.0,0.0,0.0,0.0,0.0,0.0,0.0,0.0,0.0,0.0,0.0,0.0,0.0,4.3779,4.4842,4.4718,4.4748,4.4964,4.5737,4.6341,4.6704,4.6352,4.6507,0.0,0.0,0.0,0.0,0.0,0.0,0.0,4.5736,4.5507,0.0,0.0,0.0,0.0,0.0,0.0,0.0,0.0,4.5736,4.5406,4.4819,4.559,4.6718,4.6691,4.7232,4.8003,4.8563,4.916,4.9808,5.0565,5.0783,5.1417,5.3832,5.418,5.4367,5.5687,5.5978,5.5939,5.5715,5.7398,5.8675,5.814,5.9615,6.108,6.1887,6.1998,6.2181,6.2719,6.2793,6.2793,6.2793,6.2793,6.2793,6.2793,6.2793,6.2793,6.2793,6.2793,6.2793,6.2793,6.2793,6.2793,6.2793,6.2793,6.2793,6.2793,6.2793,6.2793,6.2793,6.2793,6.2793,6.2793,6.2793,6.2793,6.2793,6.2793,6.2793,6.2793,6.2793,6.2793,6.2829,6.3123,6.3196,6.3246,0.0,0.0,0.0,0.0,0.0,0.0,0.0,0.0,0.0,0.0,0.0,0.0,0.0,0.0,0.0,0.0,0.0,0.0,4.3945,4.3167,4.3054,4.3842,0.0,4.2814,4.4319,4.3712,4.3733,4.4401,4.516,4.6161,4.7396,4.658,0.0,0.0,0.0,0.0,0.0,0.0,0.0,0.0,4.536,4.5682,4.6929,0.0,0.0,0.0,0.0,0.0,0.0,0.0,4.5369,4.4993,4.6599,4.6535,4.6214,4.7819,4.8893,4.961,4.961,4.961,5.0014,5.1583,5.1389,5.1683,5.4887,5.4987,5.4876,5.648,5.6811,5.7068,5.785,5.8033,5.8547,6.0114,6.108,6.1887,6.2683,6.2793,6.2793,6.2793,6.2793,6.2793,6.2793,6.2793,6.2793,6.2793,6.2793,6.2793,6.2793,6.2793,6.2793,6.2793,6.2793,6.2793,6.2793,6.2793,6.2793,6.2793,6.2793,6.2793,6.2793,6.2793,6.2793,6.2793,6.2793,6.2793,6.2793,6.2793,6.2793,6.2793,6.2793,6.2829,6.2939,6.3796,6.4103,6.4249,0.0,0.0,0.0,0.0,0.0,0.0,0.0,0.0,0.0,0.0,0.0,0.0,0.0,0.0,0.0,0.0,0.0,0.0,4.2779,4.2759,4.2549,4.2152,4.2128,4.204,4.1937,4.2861,4.3931,4.516,4.5822,4.6577,4.7406,0.0,0.0,0.0,0.0,0.0,0.0,0.0,0.0,0.0,0.0,4.6672,4.7113,0.0,0.0,0.0,0.0,0.0,0.0,0.0,0.0,0.0,4.6104,4.6874,4.7562,4.7489,4.8453,4.9454,4.8857,4.9958,5.1253,5.1169,5.2674,5.4447,5.5365,5.5831,5.6701,5.8866,5.8866,5.8418,5.8188,5.9457,6.0372,5.9778,6.126,6.2536,6.2756,6.2793,6.2793,6.2793,6.2793,6.2793,6.2793,6.2793,6.2793,6.2793,6.2793,6.2793,6.2793,6.2793,6.2793,6.2793,6.2793,6.2793,6.2793,6.2793,6.2793,6.2793,6.2793,6.2793,6.2793,6.2793,6.2793,6.2793,6.2793,6.2793,6.2793,6.2793,6.316,6.3723,6.3723,6.4053,6.4591,6.4861,6.4934,6.4971,0.0,0.0,0.0,0.0,0.0,0.0,0.0,0.0,4.3195,4.3717,4.3639,4.3572,0.0,0.0,0.0,4.3469,4.2856,0.0,4.2001,4.1975,4.1624,4.0796,4.1395,4.1889,4.2284,4.3509,4.4846,4.6257,4.6292,4.6823,0.0,0.0,0.0,0.0,0.0,0.0,0.0,0.0,0.0,0.0,0.0,4.7296,4.7599,0.0,0.0,0.0,0.0,0.0,0.0,0.0,0.0,0.0,4.6278,4.7049,4.7856,4.8039,4.926,5.0518,5.0288,5.1573,5.3004,5.3151,5.4399,5.5915,5.7226,5.7629,5.8168,5.96,5.9783,5.9651,5.9562,6.0663,6.141,6.0837,6.1907,6.2793,6.2793,6.2793,6.2793,6.2793,6.2793,6.2793,6.2793,6.2793,6.2793,6.2793,6.2793,6.2793,6.2793,6.2793,6.2793,6.2793,6.2793,6.2793,6.2793,6.2793,6.2793,6.2793,6.2793,6.2793,6.2793,6.2793,6.2793,6.2793,6.2793,6.2793,6.2829,6.3172,6.3613,6.4139,6.4457,6.4861,6.5325,6.5655,6.5778,6.5815,0.0,0.0,0.0,0.0,0.0,0.0,0.0,4.2763,4.258,4.3396,4.3506,4.3506,0.0,0.0,0.0,4.3445,4.2895,4.226,4.1457,4.1045,4.0562,4.0006,4.0925,4.2432,4.4441,4.5209,4.614,4.7287,4.6544,4.6932,0.0,0.0,4.7553,0.0,0.0,0.0,0.0,0.0,0.0,0.0,0.0,4.7526,4.8223,4.748,0.0,0.0,0.0,0.0,0.0,0.0,0.0,0.0,4.6975,4.7223,4.7526,4.9013,5.0665,5.2134,5.281,5.3739,5.4876,5.6334,5.6308,5.6723,5.9722,5.9893,5.9453,5.9526,6.004,6.075,6.1557,6.1704,6.1961,6.2683,6.2793,6.2793,6.2793,6.2793,6.2793,6.2793,6.2793,6.2793,6.2793,6.2793,6.2793,6.2793,6.2793,6.2793,6.2793,6.2793,6.2793,6.2793,6.2793,6.2793,6.2793,6.2793,6.2793,6.2793,6.2793,6.2793,6.2793,6.2793,6.2829,6.2903,6.2903,6.2976,6.3086,6.387,6.4249,6.4396,6.5118,6.5435,6.5632,6.6329,6.6623,6.6696,0.0,0.0,0.0,0.0,0.0,0.0,4.2396,4.2396,4.258,4.3396,4.3506,4.3506,4.3506,4.3506,0.0,4.2893,4.2174,4.1468,4.0852,4.0305,4.0442,4.1324,4.2783,4.405,4.5082,4.5775,4.6223,4.6462,4.6281,4.6932,0.0,0.0,0.0,0.0,0.0,0.0,0.0,0.0,0.0,0.0,0.0,0.0,4.826,4.8113,4.8039,0.0,0.0,0.0,0.0,0.0,0.0,0.0,4.7783,4.8039,4.8113,4.8489,5.0178,5.1914,5.1426,5.3298,5.5438,5.5768,5.7152,5.8756,6.0089,6.075,6.1263,6.1912,6.1667,6.1594,6.2389,6.2536,6.2609,6.2756,6.2793,6.2793,6.2793,6.2793,6.2793,6.2793,6.2793,6.2793,6.2793,6.2793,6.2793,6.2793,6.2793,6.2793,6.2793,6.2793,6.2793,6.2793,6.2793,6.2793,6.2793,6.2793,6.2793,6.2793,6.2793,6.2793,6.2793,6.2793,6.3172,6.3796,6.3796,6.4163,6.4774,6.4958,6.5411,6.5999,6.6182,6.6623,6.7187,6.737,6.7444,6.748,0.0,0.0,0.0,0.0,0.0,0.0,0.0,0.0,4.2873,4.291,4.3249,4.3245,4.2603,4.254,0.0,0.0,4.0792,4.0415,4.0142,4.0148,4.0983,4.2815,4.4074,4.5225,4.6277,4.6654,4.6964,4.7199,4.6825,4.7,0.0,0.0,0.0,0.0,0.0,0.0,0.0,0.0,0.0,0.0,0.0,0.0,0.0,0.0,4.8296,4.8296,4.8296,0.0,0.0,0.0,0.0,0.0,0.0,0.0,4.837,4.8783,5.0372,5.2097,5.2417,5.4326,5.6345,5.7116,5.8841,6.0456,6.0896,6.1594,6.2291,6.2719,6.2462,6.2291,6.2719,6.2793,6.2793,6.2793,6.2793,6.2793,6.2793,6.2793,6.2793,6.2793,6.2793,6.2793,6.2793,6.2793,6.2793,6.2793,6.2793,6.2793,6.2793,6.2793,6.2793,6.2793,6.2793,6.2793,6.2793,6.2793,6.2793,6.2793,6.2793,6.3013,6.3429,6.3429,6.3686,6.4139,6.4494,6.4897,6.5325,6.5742,6.6109,6.6549,6.6916,6.7333,6.77,6.77,6.77,6.77,0.0,0.0,0.0,0.0,0.0,0.0,0.0,0.0,0.0,4.2359,4.2882,4.2837,4.1623,4.1461,4.0915,0.0,0.0,0.0,3.9767,4.0664,4.2104,4.4196,4.5136,4.6208,4.7533,4.7425,4.7506,4.7902,4.7379,0.0,0.0,0.0,0.0,0.0,0.0,0.0,0.0,0.0,0.0,0.0,0.0,0.0,0.0,0.0,0.0,0.0,4.8296,4.8296,4.8296,4.8296,0.0,0.0,0.0,0.0,4.8453,4.916,5.0458,5.1925,5.3232,5.5111,5.7111,5.9099,6.0639,6.163,6.1777,6.2328,6.2793,6.2793,6.2793,6.2793,6.2793,6.2793,6.2793,6.2793,6.2793,6.2793,6.2793,6.2793,6.2793,6.2793,6.2793,6.2793,6.2793,6.2793,6.2793,6.2793,6.2793,6.2793,6.2793,6.2793,6.2793,6.2793,6.2793,6.2793,6.2793,6.2793,6.2793,6.2793,6.2939,6.3466,6.431,6.447,6.4494,6.4543,6.5228,6.5582,6.5765,6.6439,6.6696,6.6769,6.7444,6.77,6.77,6.77,6.77,6.77,0.0,0.0,0.0,0.0,0.0,0.0,0.0,0.0,0.0,0.0,4.2396,4.2206,4.1578,4.1283,4.0716,3.9619,3.9914,4.0284,4.0455,0.0,0.0,4.4916,4.6187,4.728,4.8163,4.7494,4.6836,4.6214,4.6828,0.0,0.0,0.0,0.0,0.0,0.0,0.0,0.0,0.0,0.0,0.0,0.0,0.0,0.0,0.0,0.0,0.0,0.0,0.0,4.8296,4.8296,4.8296,0.0,0.0,0.0,4.8333,4.8453,4.9232,5.0151,5.0368,5.3155,5.6879,6.0384,6.1447,6.1777,6.2462,6.2719,6.2793,6.2793,6.2793,6.2793,6.2793,6.2793,6.2793,6.2793,6.2793,6.2793,6.2793,6.2793,6.2793,6.2793,6.2793,6.2793,6.2793,6.2793,6.2793,6.2793,6.2793,6.2793,6.2793,6.2793,6.2793,6.2793,6.2793,6.2793,6.2793,6.2793,6.2793,6.2793,6.3576,6.4347,6.5141,6.5852,6.6182,6.6182,6.6292,6.6733,6.7407,6.7517,6.7554,6.7554,6.7664,6.77,6.77,6.77,6.77,6.77,0.0,0.0,0.0,0.0,0.0,0.0,0.0,0.0,0.0,0.0,0.0,4.2426,4.099,4.0708,4.0004,3.8348,3.868,3.9499,4.079,4.3059,4.4509,4.4846,4.6313,4.7039,4.6948,4.7049,4.6718,4.5883,0.0,0.0,0.0,4.8269,4.9114,0.0,0.0,0.0,0.0,0.0,0.0,0.0,0.0,0.0,0.0,0.0,0.0,0.0,0.0,0.0,0.0,4.9013,4.871,4.8296,4.8296,0.0,0.0,0.0,4.8482,4.9794,5.2438,5.4834,5.7374,6.0775,6.1924,6.2365,6.2719,6.2793,6.2793,6.2793,6.2793,6.2793,6.2793,6.2793,6.2793,6.2793,6.2793,6.2793,6.2793,6.2793,6.2793,6.2793,6.2793,6.2793,6.2793,6.2793,6.2793,6.2793,6.2793,6.2793,6.2793,6.2793,6.2793,6.2793,6.2793,6.2793,6.2793,6.2793,6.305,6.3539,6.4383,6.5191,6.5999,6.6329,6.6512,6.6512,6.699,6.737,6.77,6.77,6.77,6.77,6.77,6.77,6.77,6.77,6.77,6.77,0.0,0.0,0.0,0.0,0.0,0.0,0.0,0.0,0.0,0.0,0.0,4.2316,4.0764,0.0,0.0,0.0,3.814,3.9157,4.0969,4.2975,4.4186,4.4378,4.5948,4.6498,4.592,4.6498,4.6388,4.559,0.0,0.0,4.8333,4.9601,5.0629,0.0,5.0151,0.0,0.0,0.0,0.0,0.0,4.8175,4.9398,0.0,0.0,0.0,0.0,0.0,0.0,0.0,0.0,0.0,0.0,0.0,0.0,0.0,0.0,0.0,4.9144,5.3248,5.4837,5.6233,5.9845,6.1347,6.2104,6.2682,6.2793,6.2793,6.2793,6.2793,6.2793,6.2793,6.2793,6.2793,6.2793,6.2793,6.2793,6.2793,6.2793,6.2793,6.2793,6.2793,6.2793,6.2793,6.2793,6.2793,6.2793,6.2793,6.2793,6.2793,6.2793,6.2793,6.2793,6.2793,6.2793,6.2793,6.3013,6.3649,6.4727,6.5338,6.6035,6.6806,6.6806,6.6806,6.6843,6.7444,6.77,6.77,6.77,6.77,6.77,6.77,6.77,6.77,6.77,6.77,6.7737,0.0,0.0,0.0,0.0,0.0,0.0,0.0,0.0,0.0,0.0,0.0,4.1275,4.1433,4.0516,3.967,3.9047,3.9486,4.017,4.1022,4.1911,4.2763,4.3543,4.5121,0.0,4.5883,4.5957,4.5553,0.0,0.0,0.0,4.8333,5.0729,5.2307,5.2957,5.0629,4.921,4.8522,0.0,0.0,0.0,0.0,4.97,0.0,0.0,0.0,0.0,0.0,0.0,0.0,0.0,0.0,0.0,0.0,0.0,0.0,0.0,0.0,0.0,4.9799,5.0502,5.1835,5.7159,5.9035,6.0145,6.2301,6.2793,6.2793,6.2793,6.2793,6.2793,6.2793,6.2793,6.2793,6.2793,6.2793,6.2793,6.2793,6.2793,6.2793,6.2793,6.2793,6.2793,6.2793,6.2793,6.2793,6.2793,6.2793,6.2793,6.2793,6.2793,6.2793,6.2793,6.2793,6.2793,6.2793,6.3613,6.4837,6.6366,6.6402,6.6843,6.7627,6.7627,6.7627,6.7627,6.7664,6.77,6.77,6.77,6.77,6.77,6.77,6.77,6.77,6.77,6.77,6.7811,0.0,0.0,0.0,0.0,0.0,0.0,0.0,0.0,0.0,0.0,0.0,0.0,0.0,0.0,0.0,3.8952,3.9959,0.0,0.0,4.2323,4.3212,4.3506,4.5039,4.5663,4.514,4.5626,0.0,0.0,0.0,4.7012,4.8333,5.0325,5.194,5.3104,5.1206,5.0517,5.0707,4.9356,0.0,0.0,0.0,0.0,0.0,0.0,0.0,0.0,0.0,0.0,0.0,0.0,0.0,0.0,0.0,0.0,0.0,0.0,0.0,4.6753,5.0061,5.0265,5.0542,5.4951,5.7213,5.8722,6.0019,6.1451,6.2526,6.2526,6.2667,6.2793,6.2793,6.2793,6.2793,6.2793,6.2793,6.2793,6.2793,6.2793,6.2793,6.2793,6.2793,6.2793,6.2793,6.2793,6.2793,6.2793,6.2793,6.2793,6.2793,6.2793,6.2793,6.2793,6.2793,6.305,6.3613,6.4971,6.5925,6.6512,6.704,6.7407,6.77,6.77,6.77,6.77,6.77,6.77,6.77,6.77,6.77,6.77,6.77,6.8031,6.8458,6.8458,6.8788,6.9279,0.0,0.0,0.0,0.0,0.0,0.0,0.0,0.0,0.0,0.0,0.0,0.0,0.0,0.0,0.0,3.9239,4.0333,4.1095,4.1095,4.2359,4.3102,4.3102,4.4892,4.5516,4.4737,0.0,0.0,0.0,0.0,0.0,0.0,0.0,5.1756,5.2747,5.1389,0.0,0.0,0.0,0.0,5.0892,0.0,0.0,5.3659,0.0,0.0,0.0,0.0,0.0,0.0,0.0,0.0,0.0,0.0,0.0,0.0,0.0,0.0,0.0,4.9546,4.9321,4.9257,5.3057,5.4625,5.5903,5.8473,5.9847,6.0865,6.1792,6.2215,6.2464,6.2629,6.273,6.2793,6.2793,6.2793,6.2793,6.2793,6.2793,6.2793,6.2793,6.2793,6.2793,6.2793,6.2793,6.2793,6.2793,6.2793,6.2793,6.2793,6.2793,6.2939,6.3246,6.349,6.4053,6.491,6.5962,6.6623,6.6916,6.7444,6.77,6.77,6.77,6.77,6.77,6.77,6.77,6.77,6.77,6.7847,6.8091,6.8091,6.8605,6.9302,6.9302,6.9633,7.0146,0.0,0.0,0.0,0.0,0.0,0.0,0.0,0.0,0.0,0.0,0.0,0.0,0.0,0.0,0.0,0.0,4.07,4.1168,4.114,4.1874,4.2323,4.2323,0.0,0.0,0.0,0.0,0.0,0.0,0.0,0.0,0.0,0.0,5.195,0.0,5.1169,5.1279,5.1993,0.0,5.0962,5.1018,0.0,5.2887,5.2491,0.0,0.0,0.0,5.6043,5.6214,0.0,0.0,0.0,0.0,0.0,0.0,0.0,0.0,0.0,0.0,0.0,0.0,0.0,5.138,5.1217,5.1709,5.773,5.7957,5.7704,6.054,6.1335,6.1706,6.2318,6.2616,6.2793,6.2793,6.2793,6.2793,6.2793,6.2793,6.2793,6.2793,6.278,6.278,6.278,6.2768,6.2768,6.278,6.278,6.278,6.2793,6.2829,6.3233,6.4103,6.4934,6.5692,6.6476,6.6512,6.6916,6.77,6.77,6.77,6.77,6.77,6.77,6.77,6.7737,6.7737,6.7737,6.7737,6.8201,6.8935,6.8935,6.9449,7.0146,7.0146,7.0146,7.0293,0.0,0.0,0.0,0.0,0.0,4.5553,4.5553,4.5186,0.0,0.0,0.0,0.0,0.0,0.0,0.0,0.0,4.2359,4.258,4.2029,4.2727,4.3176,4.3176,4.4929,4.581,0.0,0.0,0.0,0.0,0.0,0.0,0.0,0.0,0.0,0.0,5.1767,5.2123,5.2763,5.1418,0.0,0.0,5.3064,5.4159,0.0,0.0,0.0,0.0,0.0,5.827,0.0,0.0,5.4995,5.2361,0.0,0.0,0.0,0.0,0.0,0.0,4.7259,0.0,0.0,0.0,0.0,0.0,5.3281,5.4583,5.5943,5.8936,5.9799,6.0551,6.2371,6.2743,6.2793,6.2793,6.2793,6.2793,6.2793,6.2793,6.2793,6.2793,6.2616,6.25,6.25,6.2331,6.2291,0.0,6.25,6.259,6.278,6.3392,6.4127,6.4934,6.5742,6.6256,6.6512,6.7076,6.748,6.77,6.77,6.77,6.77,6.77,6.77,6.7737,6.8311,6.8568,6.8568,6.8568,6.9045,6.9779,6.9779,7.0257,7.0977,7.0977,7.1358,7.1872,0.0,0.0,4.7452,4.6985,4.6617,4.6388,4.6388,4.6104,0.0,0.0,0.0,0.0,0.0,0.0,0.0,0.0,4.4745,4.481,4.4333,4.4415,4.4342,4.4011,4.5544,4.625,4.592,0.0,0.0,0.0,0.0,0.0,0.0,0.0,0.0,0.0,0.0,0.0,0.0,0.0,0.0,0.0,5.4315,0.0,0.0,5.7157,5.7873,0.0,0.0,0.0,5.7523,5.831,5.5786,0.0,0.0,0.0,0.0,0.0,0.0,0.0,0.0,0.0,0.0,0.0,0.0,0.0,0.0,5.285,5.4156,5.8017,5.9046,5.9816,6.1584,6.1847,6.1928,6.241,6.2281,6.2308,6.273,6.2793,6.2793,6.2793,6.2654,6.2552,6.2552,6.2423,6.2397,6.2539,6.2552,6.2775,6.3306,6.4457,6.5301,6.5778,6.6586,6.699,6.699,6.748,6.77,6.77,6.77,6.77,6.77,6.77,6.7884,6.8238,6.8715,6.9288,6.9912,6.9912,7.0169,7.0587,7.0587,7.1087,7.1784,7.1784,7.2078,7.2496,0.0,0.0,4.8296,4.8296,4.7783,4.7333,4.7259,4.6792,4.6397,0.0,0.0,0.0,0.0,0.0,0.0,0.0,0.0,4.7186,4.7113,4.6351,4.559,4.4847,4.6278,4.6828,4.6177,4.6792,0.0,0.0,0.0,0.0,0.0,0.0,0.0,0.0,5.1987,5.2386,5.3056,5.2396,0.0,5.3569,5.5761,5.5882,0.0,0.0,5.7692,0.0,5.8867,5.8709,5.7657,6.0189,5.8007,0.0,0.0,0.0,0.0,0.0,4.9234,0.0,0.0,0.0,0.0,0.0,0.0,0.0,0.0,5.1742,5.2192,5.6901,5.7994,5.8537,5.9911,6.0007,6.0202,6.1157,6.1191,6.1484,6.2579,6.2717,6.2717,6.2743,6.2692,6.2667,6.2705,6.2679,6.2679,6.2743,6.289,6.3356,6.4323,6.5705,6.6549,6.6623,6.7333,6.77,6.77,6.77,6.77,6.77,6.77,6.7737,6.7847,6.7847,6.8274,6.9032,6.9119,6.9986,7.1307,7.1417,7.1417,7.1417,7.1417,7.1857,7.2496,7.2496,7.2496,7.2496,4.815,4.8296,4.8296,4.8296,4.8746,4.8866,4.815,4.9067,0.0,0.0,0.0,0.0,0.0,0.0,0.0,0.0,0.0,0.0,4.7149,4.6351,4.5847,4.5663,4.6608,4.7342,4.7819,4.7333,4.7746,0.0,0.0,0.0,0.0,0.0,0.0,0.0,0.0,5.2126,5.2358,0.0,0.0,5.4423,5.5432,0.0,5.7193,5.9042,6.0129,6.0705,6.1021,6.102,6.0605,0.0,5.7448,5.6067,0.0,0.0,0.0,0.0,0.0,0.0,0.0,0.0,0.0,0.0,0.0,0.0,0.0,4.8342,4.9365,5.2235,5.2339,5.2939,5.6227,5.6802,5.6844,5.7041,5.8916,6.0816,6.2284,6.2278,6.2225,6.2436,6.2064,6.1851,6.2118,6.1892,6.1983,6.2436,6.3339,6.4494,6.5962,6.6329,6.6806,6.7444,6.7627,6.77,6.77,6.77,6.77,6.77,6.77,6.8031,6.8678,6.8678,6.9119,6.9889,7.0536,7.1013,7.1344,7.2004,7.2275,7.2275,7.2275,7.2349,7.2496,7.2496,7.2496,7.2496,4.8223,4.8296,4.8453,4.8857,4.9637,5.0041,4.9627,5.0618,0.0,0.0,0.0,0.0,0.0,0.0,0.0,0.0,0.0,0.0,0.0,4.8196,4.7352,4.6535,4.7682,4.8343,4.8296,4.8737,4.937,5.0188,0.0,0.0,0.0,0.0,0.0,0.0,0.0,0.0,0.0,0.0,5.2898,5.3544,5.5711,0.0,5.8956,6.0237,6.1186,6.172,6.1408,6.1485,6.1423,5.9479,5.7519,0.0,0.0,5.4142,5.2929,0.0,5.1714,5.2,0.0,0.0,0.0,4.6515,0.0,0.0,0.0,0.0,4.9665,5.1971,5.1825,5.1901,5.4117,5.4271,5.441,5.535,5.7088,5.8724,5.991,6.1303,6.2238,6.237,6.2132,6.1969,6.1983,6.1845,6.2087,6.294,6.3782,6.4902,6.6426,6.6709,6.7099,6.77,6.77,6.77,6.77,6.77,6.77,6.77,6.8091,6.8495,6.8898,6.9339,6.9926,7.0734,7.1123,7.1527,7.1931,7.2349,7.2496,7.2496,7.2496,7.2496,7.2496,7.2496,7.2496,7.2496,4.8333,4.8296,4.8563,4.9463,5.0261,5.0802,5.0802,5.161,0.0,0.0,0.0,0.0,0.0,0.0,0.0,0.0,0.0,0.0,0.0,0.0,4.9701,4.8323,4.926,4.9711,4.9481,5.0362,5.0949,5.1279,5.1756,0.0,0.0,0.0,0.0,0.0,0.0,0.0,0.0,0.0,0.0,5.3,0.0,5.7844,5.8841,6.0522,6.1064,6.0927,6.117,6.1408,6.1464,6.0722,0.0,5.5738,5.7639,5.5766,0.0,0.0,0.0,0.0,0.0,0.0,0.0,0.0,0.0,4.7225,0.0,0.0,0.0,0.0,0.0,0.0,0.0,0.0,0.0,5.3467,0.0,0.0,0.0,5.9302,0.0,6.1453,6.186,6.1978,6.1587,6.1579,6.2241,6.3719,6.395,6.4782,6.6539,6.6971,6.735,6.7687,6.77,6.77,6.77,6.77,6.77,6.77,6.8531,6.8958,6.9155,6.9963,7.077,7.1527,7.1527,7.1894,7.2496,7.2496,7.2496,7.2496,7.2496,7.2496,7.2496,7.2496,7.2496,7.2496,4.8443,4.8296,4.8563,4.9463,5.0261,5.0802,5.0802,5.2076,0.0,0.0,0.0,0.0,0.0,0.0,0.0,0.0,0.0,0.0,5.4106,0.0,0.0,5.2517,5.1306,5.161,5.3665,5.1793,5.1499,5.292,5.2307,0.0,0.0,0.0,0.0,0.0,5.4766,0.0,0.0,0.0,5.4626,0.0,5.5954,5.5316,0.0,5.8366,5.9458,5.9109,6.1174,6.1901,6.1819,0.0,5.9965,5.8627,0.0,5.6981,0.0,0.0,0.0,0.0,0.0,0.0,0.0,0.0,4.9138,0.0,0.0,0.0,0.0,0.0,0.0,0.0,0.0,0.0,0.0,0.0,0.0,0.0,5.4016,0.0,0.0,0.0,6.0018,6.0875,5.9958,6.0153,6.1526,6.4458,6.3407,6.3928,6.6969,6.7151,6.735,6.7687,6.77,6.77,6.77,6.77,6.77,6.77,6.8531,6.9265,7.0,7.0807,7.16,7.2349,7.2349,7.2422,7.2496,7.2496,7.2496,7.2496,7.2496,7.2496,7.2496,7.2496,7.2496,7.2496,4.9233,4.9444,4.9994,5.0849,5.1646,5.2186,5.2186,5.3141,0.0,0.0,0.0,0.0,0.0,0.0,0.0,0.0,0.0,5.6124,0.0,0.0,0.0,0.0,5.161,5.1977,5.2978,5.2491,5.2517,5.3214,5.2847,0.0,0.0,0.0,0.0,0.0,5.5291,0.0,5.4829,0.0,0.0,0.0,0.0,0.0,0.0,5.8709,6.0654,6.0658,6.1634,6.2091,6.2176,0.0,6.0096,0.0,0.0,0.0,0.0,0.0,0.0,0.0,0.0,0.0,0.0,0.0,0.0,0.0,4.8545,0.0,4.8815,0.0,0.0,0.0,0.0,0.0,0.0,0.0,0.0,0.0,0.0,0.0,0.0,0.0,0.0,0.0,0.0,0.0,0.0,0.0,6.2644,6.3321,6.6614,6.6871,6.7168,6.7687,6.77,6.77,6.77,6.8164,6.8385,6.8421,6.9692,7.0378,7.0551,7.1529,7.2064,7.2197,7.2423,7.2496,7.2496,7.2496,7.2496,7.2496,7.2496,7.2496,7.2496,7.2496,7.2496,7.2496,5.0372,0.0,0.0,5.1877,5.2491,5.2957,5.3177,5.3792,0.0,0.0,0.0,0.0,5.7339,5.6878,0.0,0.0,0.0,5.8614,0.0,0.0,5.546,0.0,5.3035,0.0,0.0,5.3471,5.3214,5.3214,5.3214,5.3324,0.0,0.0,0.0,0.0,0.0,5.6063,5.6685,0.0,0.0,5.4663,5.4606,5.496,5.5978,5.9809,6.1615,6.2177,6.2707,6.2838,6.2735,6.2735,6.0805,0.0,6.0561,0.0,0.0,0.0,0.0,0.0,5.1899,0.0,0.0,0.0,0.0,0.0,0.0,0.0,0.0,0.0,0.0,0.0,0.0,0.0,0.0,0.0,0.0,0.0,0.0,0.0,0.0,0.0,0.0,0.0,0.0,0.0,0.0,0.0,0.0,6.2536,6.6048,6.6547,6.6946,6.7529,6.7579,6.773,6.8017,6.8523,6.887,6.909,7.0397,7.0909,7.0701,7.1831,7.2248,7.2018,7.2365,7.2496,7.2496,7.2496,7.2496,7.2496,7.2496,7.2642,7.2789,7.2569,7.2496,7.2532,5.1914,5.1316,0.0,5.1877,5.2024,5.2307,5.3067,5.3553,0.0,0.0,0.0,0.0,0.0,0.0,0.0,0.0,0.0,6.4973,6.4209,0.0,6.0845,0.0,0.0,5.4976,0.0,5.5196,5.3214,5.3214,5.3214,5.3581,5.4326,0.0,0.0,0.0,0.0,5.5326,5.4783,5.6,5.7362,5.8697,5.8424,6.03,6.3056,0.0,6.1365,6.2628,6.4511,0.0,0.0,6.3573,6.2766,0.0,0.0,0.0,0.0,0.0,0.0,0.0,0.0,0.0,0.0,5.0827,0.0,0.0,0.0,0.0,4.9864,0.0,0.0,0.0,0.0,0.0,0.0,0.0,0.0,0.0,0.0,0.0,0.0,0.0,0.0,0.0,0.0,0.0,0.0,0.0,0.0,0.0,6.5323,6.6279,6.6845,6.721,6.7224,6.7766,6.8848,6.857,6.8815,6.9566,7.0069,7.033,7.0366,7.1502,7.2003,7.2018,7.2365,7.2496,7.2496,7.2496,7.2496,7.2496,7.2496,7.2973,7.356,7.2789,7.2496,7.2606,0.0,0.0,5.248,5.2737,5.2784,5.3078,5.3885,5.4118,0.0,0.0,0.0,0.0,0.0,6.2442,6.3471,0.0,0.0,6.5077,6.3745,6.1841,0.0,0.0,0.0,5.5684,0.0,0.0,5.3995,5.3995,5.3471,5.3324,5.3581,0.0,0.0,0.0,0.0,5.5815,0.0,0.0,0.0,0.0,0.0,6.1654,6.3111,0.0,0.0,6.4074,6.4729,6.4361,0.0,6.3531,6.2357,6.0881,6.0891,5.9944,5.8762,5.8363,5.8212,0.0,0.0,0.0,5.7408,5.394,0.0,0.0,0.0,0.0,0.0,0.0,0.0,0.0,0.0,0.0,0.0,0.0,0.0,0.0,0.0,0.0,0.0,0.0,0.0,0.0,0.0,0.0,0.0,0.0,0.0,0.0,0.0,6.5719,6.6401,6.7501,6.7111,6.7404,6.8556,6.8764,6.9255,7.0054,7.0744,7.1096,7.1096,7.1742,7.2003,7.2018,7.2365,7.2496,7.2496,7.2496,7.2496,7.2569,7.3083,7.345,7.3685,7.3377,7.3634,7.4133,5.3861,0.0,5.3214,5.3214,5.3434,5.3801,0.0,0.0,0.0,0.0,6.0572,0.0,6.3957,0.0,6.5071,0.0,6.6485,6.5999,6.4456,6.2927,0.0,6.0984,5.8201,0.0,0.0,0.0,0.0,5.5244,5.4436,5.4069,5.4021,5.298,0.0,0.0,0.0,5.5857,5.7546,0.0,6.0576,0.0,0.0,6.344,0.0,0.0,6.4861,6.4068,0.0,6.4846,6.4102,6.4133,6.3203,6.1969,6.2019,6.1016,5.9837,6.0137,5.9877,5.9389,5.8829,5.937,0.0,5.6156,5.575,0.0,5.1454,0.0,0.0,0.0,0.0,0.0,0.0,0.0,0.0,0.0,0.0,0.0,0.0,0.0,0.0,0.0,0.0,0.0,0.0,0.0,0.0,0.0,0.0,0.0,0.0,0.0,6.6053,6.73,6.7092,6.7562,6.8823,6.9171,6.9751,7.0561,7.0939,7.1191,7.132,7.1542,7.1775,7.2018,7.2248,7.2394,7.2496,7.2496,7.2679,7.2973,7.3487,7.4037,7.4515,7.4221,7.4625,7.527,5.4019,0.0,5.3324,5.3324,5.3922,0.0,0.0,0.0,6.0638,0.0,6.3838,6.5962,6.6013,6.675,6.7212,6.7173,6.7936,0.0,6.6514,6.4753,0.0,0.0,6.0853,5.956,6.1606,0.0,0.0,0.0,0.0,0.0,5.5548,5.3968,0.0,0.0,5.3628,0.0,5.914,5.9094,6.1501,6.538,6.5829,6.5605,6.505,6.5617,6.4404,6.2752,6.5565,6.5917,6.5033,6.5219,6.5058,6.4601,6.3515,6.3162,6.3049,6.2542,6.24,6.2076,6.0622,6.0216,5.9674,5.7509,5.6934,0.0,0.0,0.0,5.4753,0.0,0.0,0.0,0.0,0.0,0.0,0.0,0.0,0.0,0.0,0.0,0.0,0.0,0.0,0.0,0.0,0.0,0.0,0.0,0.0,0.0,0.0,0.0,6.5779,6.6648,6.7178,6.8125,6.9559,6.9735,7.0208,7.0963,7.0649,7.0665,7.0996,7.1012,7.1384,7.2003,7.2018,7.2233,7.2569,7.2569,7.3046,7.3744,7.378,7.4771,7.6056,7.5307,7.5491,7.6056,5.4755,5.4851,5.4997,0.0,5.4656,5.4917,0.0,0.0,0.0,0.0,6.5009,6.673,6.7641,6.8513,6.8783,6.8129,6.8276,0.0,0.0,0.0,0.0,6.4498,6.1552,6.071,6.2426,5.9538,0.0,5.949,0.0,0.0,5.5563,5.4073,5.3154,0.0,0.0,0.0,5.8303,6.0549,6.3134,6.5767,6.5872,6.4852,0.0,0.0,6.3795,6.2457,6.445,6.4512,6.3708,6.3757,6.3441,6.3004,6.2697,6.2601,6.2562,6.244,6.24,6.2333,6.1907,6.1806,6.14,5.9674,5.8863,5.7863,0.0,0.0,0.0,0.0,0.0,0.0,0.0,0.0,0.0,0.0,0.0,0.0,0.0,0.0,0.0,0.0,0.0,0.0,0.0,0.0,0.0,0.0,0.0,0.0,0.0,0.0,0.0,6.6412,6.7325,6.8262,6.9231,6.9604,7.0094,7.0615,7.0565,7.0665,7.0996,7.1256,7.1604,7.2018,7.2277,7.2753,7.3377,7.3377,7.3854,7.4661,7.5249,7.6093,7.6959,7.6775,7.6812,7.6959,5.6087,0.0,0.0,5.7152,0.0,0.0,5.8462,5.9739,0.0,6.3833,6.583,0.0,6.7472,6.8503,6.8776,6.7898,6.8107,0.0,6.6009,0.0,0.0,6.4331,6.3285,6.3125,6.3894,6.2132,0.0,6.0933,0.0,0.0,5.5603,5.4054,5.2895,0.0,0.0,5.5617,5.7644,6.1453,6.383,6.5027,6.5258,0.0,0.0,6.376,6.3257,6.2332,6.3303,6.3625,6.3551,6.3293,6.3007,6.2785,6.2851,6.2888,6.2956,6.326,6.3362,6.3362,6.3362,6.3125,6.2685,6.1806,6.1028,5.9979,5.8084,5.8254,5.8626,0.0,0.0,0.0,0.0,0.0,0.0,0.0,0.0,0.0,0.0,0.0,0.0,0.0,0.0,0.0,0.0,0.0,0.0,0.0,0.0,0.0,0.0,0.0,0.0,6.6861,6.706,6.7828,6.9399,6.9512,6.9895,7.0514,7.0514,7.075,7.1207,7.1256,7.1817,7.276,7.279,7.3355,7.4221,7.4221,7.4698,7.5506,7.6298,7.6885,7.7289,7.7289,7.7289,7.7289,0.0,0.0,0.0,0.0,0.0,0.0,0.0,6.2871,0.0,6.469,0.0,6.7485,6.6728,6.7669,6.8044,6.7255,0.0,6.7076,6.4879,6.6105,6.6186,6.4426,6.5238,6.5644,6.5448,6.5251,0.0,0.0,0.0,0.0,5.5685,5.401,5.2865,0.0,0.0,0.0,0.0,6.1934,6.3861,6.4008,6.4514,6.4355,6.3775,6.3474,6.3085,6.2705,6.2705,6.3281,6.3925,6.3427,6.3292,6.3403,6.3589,6.3646,6.3748,6.441,6.4613,6.4613,6.4613,6.414,6.3612,6.3511,6.3024,6.2178,6.0723,6.0385,6.0385,6.0385,5.937,5.9032,0.0,0.0,0.0,0.0,0.0,0.0,0.0,0.0,0.0,0.0,0.0,0.0,0.0,0.0,0.0,0.0,0.0,0.0,0.0,0.0,0.0,6.7332,6.6771,6.75,6.9796,6.9609,6.9834,7.0514,7.0514,7.0872,7.1532,7.1274,7.2058,7.3661,7.345,7.3964,7.499,7.5035,7.5527,7.635,7.7032,7.7289,7.7289,7.7289,7.7289,7.7289,0.0,0.0,0.0,0.0,0.0,6.3466,6.3624,6.4444,6.523,6.5583,6.7201,6.8234,6.808,6.8095,6.7973,6.7537,6.7465,0.0,0.0,0.0,0.0,6.5694,6.5509,6.566,6.6292,6.4971,6.4103,0.0,0.0,0.0,5.5735,5.4116,5.2992,0.0,0.0,0.0,5.9547,6.2057,0.0,6.4292,6.5045,6.4971,6.4435,6.4355,6.4308,6.4208,6.4208,6.3942,6.3591,6.3473,6.386,6.4349,6.4417,6.441,6.4444,6.4546,6.4613,6.4613,6.4613,6.4512,6.4275,6.3646,6.3409,6.3091,6.2212,6.1994,6.1994,6.1994,6.1791,6.1332,6.0452,0.0,0.0,0.0,0.0,0.0,0.0,0.0,0.0,0.0,0.0,0.0,0.0,0.0,0.0,0.0,0.0,0.0,0.0,0.0,0.0,0.0,6.7268,0.0,0.0,0.0,7.064,7.0514,7.0514,7.0904,7.1684,7.1869,7.2501,7.3385,7.394,7.4681,7.5489,7.5803,7.6371,7.7105,7.7252,7.7289,7.7289,7.7289,7.7289,7.7289,0.0,0.0,0.0,0.0,0.0,0.0,0.0,6.6582,6.685,6.6241,6.6795,6.7187,6.6968,6.7403,6.7542,6.7208,6.742,6.7382,6.7037,6.7107,6.706,6.6889,6.6682,0.0,6.7113,6.6379,6.5131,6.3429,0.0,0.0,5.5137,5.3966,5.2809,5.1822,0.0,5.6993,0.0,0.0,0.0,6.3966,6.4716,6.4862,6.4613,6.4613,6.4613,6.4613,6.4613,6.4613,6.458,6.4208,6.4309,6.4681,6.5053,6.5155,6.5256,6.5628,6.573,6.573,6.573,6.5459,6.4986,6.4241,6.3781,6.3308,6.255,6.24,6.24,6.24,6.262,6.2468,6.1242,5.903,0.0,0.0,0.0,0.0,0.0,0.0,0.0,0.0,0.0,0.0,0.0,0.0,0.0,0.0,0.0,0.0,0.0,0.0,0.0,0.0,0.0,0.0,0.0,0.0,6.969,7.0665,7.0665,7.1303,7.2541,7.2712,7.3329,7.4235,7.4619,7.5217,7.5976,7.6138,7.6421,7.6769,7.6769,7.6882,7.704,7.704,7.7134,7.7289,0.0,6.5099,0.0,0.0,6.6711,6.7098,6.7255,6.8063,6.8147,6.6753,6.6434,6.6282,6.6144,6.691,6.7335,6.716,6.7616,6.7703,6.7318,6.7802,6.7969,6.7714,6.77,6.77,6.77,6.77,6.6256,0.0,0.0,0.0,5.5099,5.3946,5.2956,0.0,0.0,0.0,0.0,0.0,6.368,6.4038,6.4783,6.5087,6.5087,6.5087,6.5087,6.5087,6.5087,6.5425,6.5831,6.5256,6.5087,6.5155,6.573,6.5933,6.6034,6.6643,6.6791,6.6791,6.6791,6.6271,6.5514,6.4783,6.4072,6.3308,6.255,6.24,6.24,6.24,6.2817,6.2901,6.1883,6.0336,0.0,0.0,0.0,0.0,0.0,0.0,0.0,0.0,0.0,0.0,0.0,0.0,0.0,0.0,0.0,0.0,0.0,0.0,0.0,0.0,0.0,6.565,6.8426,0.0,6.8863,7.0595,7.0752,7.1617,7.3065,7.3188,7.3845,7.4929,7.5116,7.5662,7.6392,7.6392,7.6442,7.6508,7.6508,7.6672,7.6897,7.6897,7.7024,7.7181,0.0,0.0,0.0,0.0,0.0,6.7376,6.6929,6.7551,6.7884,6.728,6.6938,6.7011,6.7708,6.7772,6.7905,6.8318,6.8207,6.8012,6.7673,6.7694,6.7741,6.77,6.77,6.77,6.77,6.77,6.6843,0.0,0.0,5.9942,0.0,5.4455,5.4077,5.5361,0.0,0.0,0.0,6.3125,6.4275,6.5561,6.6305,6.6588,6.6588,6.6588,6.6588,6.6588,6.6588,6.6622,6.669,6.6622,6.6588,6.6609,6.6677,6.6711,6.669,6.6757,6.6791,6.6791,6.6791,6.6271,6.5514,6.4783,6.4072,6.3308,6.255,6.24,6.24,6.24,6.2817,6.279,6.1351,6.2416,6.2489,0.0,0.0,0.0,0.0,0.0,0.0,0.0,0.0,0.0,0.0,0.0,0.0,0.0,0.0,0.0,0.0,0.0,0.0,6.5499,0.0,6.5412,6.7575,6.8914,6.9699,6.9896,7.0554,7.1344,7.223,7.2778,7.3468,7.4359,7.5263,7.6048,7.6753,7.6753,7.6929,7.7196,7.7196,7.7212,7.7243,7.7243,7.7071,7.6834,0.0,0.0,0.0,0.0,0.0,0.0,0.0,6.8211,6.8181,6.7871,6.798,6.8184,6.8289,6.8117,6.8047,6.8034,6.7943,6.7836,6.7714,6.77,6.77,6.77,6.8164,6.8421,6.8421,6.8898,6.8348,0.0,0.0,0.0,0.0,5.795,5.8284,5.9322,6.1264,6.2711,6.3802,6.4965,6.5811,6.6406,6.6677,6.6791,6.6791,6.6791,6.6791,6.6791,6.6791,6.6791,6.6791,6.6791,6.6791,6.6791,6.6791,6.6791,6.6791,6.6791,6.6791,6.6791,6.6791,6.6271,6.5514,6.4783,6.4285,6.3811,6.3045,6.3158,6.3401,6.3401,6.3308,6.3216,6.3345,6.2432,6.183,6.2231,0.0,0.0,0.0,0.0,0.0,0.0,0.0,0.0,0.0,0.0,0.0,0.0,0.0,0.0,0.0,0.0,0.0,6.2191,0.0,6.5579,6.6385,6.7905,6.931,7.0593,7.0884,7.1641,7.2777,7.3003,7.3297,7.3597,7.403,7.4602,7.5245,7.5245,7.5567,7.6038,7.6038,7.6138,7.6412,7.6867,7.7098,7.7238,7.0035,6.889,6.8243,0.0,6.8463,6.7933,6.8743,6.8523,6.8309,6.8379,6.8753,6.8784,6.8333,6.8135,6.7956,6.7727,6.77,6.7811,6.8031,6.8054,6.8178,6.8398,6.8935,0.0,6.9265,6.9816,6.9522,6.8398,6.6806,0.0,6.1474,6.1602,6.1976,6.263,6.4416,6.5233,6.5324,6.6352,6.6791,6.6791,6.6791,6.6791,6.6791,6.6791,6.6791,6.6791,6.6791,6.6791,6.6791,6.6791,6.6791,6.6791,6.6791,6.6791,6.6791,6.6791,6.6791,6.6791,6.6791,6.6102,6.5284,6.4958,6.443,6.3832,6.3336,6.3533,6.3841,6.3841,6.365,6.3682,6.4305,6.3052,6.2214,6.315,0.0,0.0,0.0,0.0,0.0,0.0,0.0,0.0,0.0,0.0,0.0,0.0,0.0,0.0,0.0,0.0,0.0,0.0,0.0,0.0,6.6,6.7726,6.9338,7.0832,7.1071,7.1704,7.2651,7.286,7.3011,7.3195,7.3397,7.383,7.4408,7.4563,7.4989,7.555,7.5531,7.5711,7.5961,7.657,7.6875,7.7056,6.9925,6.9559,6.9403,6.9824,6.9112,6.8474,6.8511,6.8047,6.7994,6.8788,6.8912,6.8582,6.7787,6.7714,6.77,6.77,6.77,6.8031,6.8825,6.8898,6.9229,0.0,0.0,7.0073,7.0073,7.011,7.0073,7.0073,0.0,0.0,6.6393,6.4807,6.4346,6.4901,6.5662,6.6294,6.6757,6.6791,6.6791,6.6791,6.6791,6.6791,6.6791,6.6791,6.6791,6.6791,6.6791,6.6791,6.6791,6.6791,6.6791,6.6791,6.6791,6.6791,6.6791,6.6791,6.6791,6.6791,6.6791,6.573,6.4755,6.5358,6.4347,6.3199,6.3199,6.3218,6.3218,6.3218,6.3764,6.4073,6.3355,6.4871,6.489,6.0815,0.0,0.0,0.0,0.0,0.0,0.0,0.0,5.7843,6.1003,0.0,0.0,0.0,0.0,0.0,0.0,0.0,0.0,6.5547,6.5683,0.0,6.6757,6.9045,7.0184,7.0217,7.0939,7.1312,7.1356,7.2016,7.2665,7.3235,7.3889,7.4427,7.4824,7.5442,7.5898,7.628,7.6374,7.6373,7.6425,7.6483,7.6312,7.6021,7.1638,7.101,7.0408,7.0571,7.0016,6.9603,6.9603,6.9452,6.9412,6.9669,6.9706,6.9633,6.9339,6.9353,6.9353,0.0,6.9353,6.9449,0.0,6.9706,6.9816,7.0073,7.0624,7.0903,7.0903,7.1468,7.1725,7.1725,0.0,0.0,6.9748,6.8424,6.8191,6.9014,6.893,6.8152,6.6791,6.6791,6.6791,6.6791,6.6791,6.7117,6.7489,6.7015,6.7117,6.7489,6.696,6.6791,6.6791,6.6791,6.6791,6.6791,6.6791,6.6791,6.6791,6.6791,6.7092,6.7407,6.7407,6.671,6.6018,6.6181,6.5499,6.4778,6.4778,6.5048,6.5294,6.5294,6.5217,6.5034,6.4813,6.4962,6.4702,6.3388,6.4072,0.0,0.0,0.0,0.0,0.0,0.0,6.384,0.0,6.2626,0.0,0.0,0.0,0.0,0.0,0.0,0.0,0.0,6.6406,0.0,6.7557,6.9316,7.0432,7.0973,7.1188,7.1289,7.1312,7.1501,7.1744,7.1929,7.2146,7.2814,7.3865,7.4057,7.4777,7.5748,7.5796,7.58,7.585,7.6347,7.6517,7.6496,7.211,7.149,7.0896,7.0797,7.0394,7.011,7.011,7.011,7.022,7.0513,7.055,7.066,7.0954,7.0991,0.0,7.0146,7.011,7.022,7.055,7.055,7.0697,7.0991,7.149,7.1747,7.1747,7.2532,0.0,7.2936,7.2239,7.2165,7.2614,7.1739,7.1352,7.1283,7.0932,6.9609,6.7637,6.7637,6.7637,6.7637,6.7637,6.7963,6.8301,6.7861,6.7963,6.8267,6.7489,6.7197,6.7184,6.6893,6.6959,6.7133,6.7133,6.7133,6.7092,6.6875,6.705,6.7346,6.7346,6.682,6.632,6.6538,6.6029,6.548,6.548,6.5596,6.5658,6.5658,6.5608,6.5468,6.5195,6.5318,6.5256,6.4681,6.4816,6.4918,6.4647,0.0,0.0,0.0,0.0,0.0,0.0,6.4866,6.4005,0.0,0.0,0.0,0.0,0.0,0.0,6.4884,6.7895,0.0,6.8774,6.9992,7.0838,7.1289,7.1289,7.1289,7.1289,7.1594,7.1695,7.1751,7.2259,7.3012,7.3841,7.4102,7.4722,7.5512,7.5534,7.5531,7.5613,7.6097,7.625,7.6319,7.1748,7.13,7.0933,7.0765,7.0481,7.0257,7.0257,7.0257,7.055,7.1344,7.1454,7.1784,7.2569,7.2679,7.2055,7.055,7.033,0.0,7.1344,7.138,7.1747,7.2569,7.2569,7.2606,7.2679,7.3413,7.3795,7.3795,7.4536,7.494,7.4977,7.4628,7.3585,7.2061,7.1685,7.0629,6.9113,6.9113,6.9113,6.9113,6.9113,6.9147,6.918,6.9113,6.9147,6.9079,6.8267,6.7963,6.7793,6.7159,6.725,6.765,6.7751,6.771,6.7529,6.7009,6.6875,6.6875,6.6917,6.6409,6.599,6.6596,6.6147,6.5593,6.5593,6.5173,6.4749,6.4749,6.529,6.5581,6.4884,6.5865,6.6373,6.5047,6.5406,6.563,6.4999,6.6107,0.0,0.0,0.0,0.0,0.0,6.5057,6.5519,0.0,0.0,0.0,0.0,0.0,6.5506,6.9079,6.9891,7.0285,7.0285,7.0973,7.1289,7.1289,7.1357,7.1357,7.1391,7.2157,7.2462,7.2541,7.3842,7.4473,7.4552,7.5185,7.5476,7.5516,7.5588,7.5594,7.5629,7.5675,7.5709,7.5709,7.3307,7.2718,7.2097,7.2064,7.1965,7.1945,7.1945,7.1945,7.2239,7.301,7.312,7.345,7.4243,7.4316,7.4169,7.3802,7.2642,7.2018,7.2202,7.2224,7.2569,7.3377,7.3413,7.3707,7.4316,7.45,7.4625,7.4625,7.4793,7.5197,7.5784,7.5216,7.4231,7.2894,7.2225,7.0863,6.9113,6.9113,6.9113,6.9113,6.9113,6.9451,6.9857,6.9316,6.9451,6.9823,6.9079,6.8402,6.7946,6.8281,6.7775,6.7174,6.8147,6.7825,6.7071,6.7387,6.7488,6.759,6.8088,6.7733,6.7376,6.8042,6.7333,6.6479,6.6479,6.6375,6.6305,6.6305,6.644,6.6508,6.6284,6.6555,6.6824,6.6929,6.7112,6.7447,6.8021,6.8073,6.8152,0.0,6.8028,6.7958,6.8519,6.8123,6.7559,0.0,0.0,0.0,0.0,6.7827,6.8436,6.9891,7.0669,7.1041,7.1041,7.1188,7.1289,7.1289,7.1887,7.2157,7.2157,7.2902,7.324,7.3263,7.3593,7.4035,7.4579,7.474,7.5115,7.566,7.5644,7.5699,7.5675,7.5713,7.5709,7.5709,7.3291,7.2871,7.2606,7.2973,7.3046,7.3156,7.3546,7.3597,7.3744,7.4184,7.4258,7.4404,7.483,7.4903,7.4903,7.4903,7.4096,7.3597,7.3597,7.3597,7.378,7.4221,7.4258,7.4441,7.4903,7.527,7.5637,7.6004,7.6004,7.6225,7.6613,7.5653,7.4654,7.3654,7.2614,7.1417,7.0128,7.0128,7.0128,7.0128,7.0128,7.0364,7.0669,7.0263,7.0364,7.0646,7.0194,6.9723,6.9378,6.9378,6.8843,6.8245,6.868,6.808,6.7298,6.761,6.7509,6.738,6.7745,6.7583,6.738,6.7745,6.7298,6.6791,6.6791,6.6791,6.6791,6.6791,6.6791,6.6791,6.6791,6.6791,6.6988,6.761,6.7742,6.8114,6.9068,6.9238,6.9616,7.054,7.0361,7.0274,7.0603,7.019,6.9394,6.8231,6.8651,0.0,6.8944,6.9688,7.0297,7.0703,7.1086,7.1289,7.1289,7.165,7.1988,7.2326,7.2699,7.2902,7.2935,7.368,7.3984,7.4018,7.4356,7.4728,7.51,7.51,7.5337,7.5709,7.5709,7.5709,7.5709,7.5709,7.5709,7.5709,7.3181,7.2949,7.3083,7.3744,7.3891,7.4111,7.4793,7.4903,7.494,7.505,7.5087,7.5124,7.5234,7.527,7.527,7.527,7.527,7.516,7.4903,7.4903,7.494,7.5087,7.5087,7.5124,7.527,7.5931,7.6644,7.7289,7.7289,7.7289,7.7258,7.591,7.4957,7.4234,7.2908,7.1929,7.1289,7.1289,7.1289,7.1289,7.1289,7.1289,7.1289,7.1289,7.1289,7.1277,7.1178,7.105,7.09,7.0374,6.9946,6.9624,6.9299,6.8623,6.7932,6.8033,6.7618,6.7117,6.6951,6.6959,6.6917,6.6833,6.6791,6.6791,6.6791,6.6791,6.6791,6.6791,6.6791,6.6854,6.6988,6.6967,6.712,6.7679,6.8035,6.8498,6.9233,7.007,7.0854,7.1499,7.192,7.2084,7.1927,7.1361,7.0776,7.0202,7.0284,7.0398,7.0522,7.1142,7.1526,7.165,7.1526,7.1526,7.165,7.2259,7.2868,7.35,7.3635,7.3646,7.368,7.4424,7.4796,7.4796,7.5439,7.5709,7.5709,7.5709,7.5709,7.5709,7.5709,7.5709,7.5709,7.5709,7.5709,7.5709,7.5628,7.5047,7.4573,7.4683,7.472,7.4757,7.4867,7.4903,7.5124,7.5836,7.5909,7.6151,7.6848,7.6922,7.6922,7.6922,7.6922,7.6335,7.4977,7.4903,7.5197,7.5873,7.5909,7.6225,7.6922,7.7069,7.7179,7.7289,7.7289,7.7289,7.7258,7.591,7.4957,7.4234,7.2908,7.1929,7.1289,7.1289,7.1289,7.1289,7.1289,7.1289,7.1289,7.1289,7.1289,7.1312,7.1288,7.0858,7.0391,7.0815,7.0161,6.9369,7.0295,6.9777,6.8965,6.948,6.922,6.8578,6.7783,6.7569,6.7427,6.6938,6.6791,6.6791,6.6791,6.6791,6.6791,6.6791,6.6791,6.705,6.7847,6.7742,6.7669,6.8008,6.9012,6.9813,6.9937,7.1102,7.2181,7.2912,7.2353,7.1949,7.1906,7.1399,7.1041,7.0936,7.1044,7.1413,7.2022,7.2157,7.2496,7.3161,7.2563,7.2529,7.3138,7.3274,7.3398,7.35,7.4119,7.4424,7.4458,7.5202,7.554,7.554,7.5642,7.5709,7.5709,7.5709,7.5709,7.5709,7.5709,7.5709,7.5709,7.5709,7.5709,7.5709,7.5574,7.5174,7.505,7.5469,7.5542,7.5674,7.6114,7.6188,7.6335,7.6702,7.6738,7.6885,7.7252,7.7289,7.7289,7.7289,7.7289,7.6995,7.6225,7.6188,7.6371,7.6738,7.6738,7.6922,7.7289,7.7289,7.7289,7.7289,7.7289,7.7289,7.7258,7.5563,7.4608,7.4215,7.2512,7.159,7.1289,7.1289,7.1289,7.1289,7.1289,7.1289,7.1289,7.1289,7.1289,7.1356,7.1722,7.1637,7.1374,7.1641,7.1054,7.0226,7.0459,6.988,6.9144,6.9446,6.9317,6.9009,6.8561,6.8442,6.8463,6.8491,6.8533,6.848,6.8437,6.8415,6.8352,6.8143,6.8443,6.8797,6.8961,6.9223,6.9582,7.0009,7.054,7.1179,7.2034,7.214,7.2472,7.3315,7.2583,7.2045,7.2125,7.2257,7.2193,7.1835,7.2237,7.2631,7.2969,7.2969,7.3308,7.4052,7.3375,7.3341,7.4086,7.4086,7.4289,7.4695,7.5033,7.5202,7.5202,7.554,7.5709,7.5709,7.5709,7.5709,7.5709,7.5709,7.5709,7.5709,7.5709,7.5709,7.5709,7.5709,7.5709,7.5709,7.5849,7.5618,7.5637,7.6276,7.6387,7.6607,7.7215,7.7289,7.7289,7.7289,7.7289,7.7289,7.7289,7.7289,7.7289,7.7289,7.7289,7.7289,7.7289,7.7289,7.7289,7.7289,7.7289,7.7289,7.7289,7.7289,7.7289,7.7289,7.7289,7.7289,7.7243,7.5245,7.4291,7.4196,7.2206,7.1289,7.1289,7.1289,7.1289,7.1289,7.1289,7.1289,7.1289,7.1289,7.1289,7.1379,7.1864,7.2081,7.2081,7.2081,7.1649,7.1063,7.0609,7.006,6.962,6.962,6.962,6.9553,6.918,6.9187,6.9412,6.9872,7.0106,7.022,7.019,7.0221,7.0107,6.9925,7.0369,7.0746,7.0611,7.1037,7.1499,7.1771,7.1962,7.237,7.3353,7.286,7.2797,7.3781,7.3022,7.25,7.2773,7.3174,7.3218,7.2677,7.3172,7.3544,7.3747,7.3747,7.4086,7.483,7.4289,7.4289,7.4864,7.4864,7.5134,7.5709,7.5709,7.5709,7.5709,7.5709,7.5709,7.5709,7.5709,7.5709,7.5709,7.5709,7.5709,7.5709,7.5709,7.5709,7.5709,7.5709,7.5709,7.5709,7.8264,7.7692,7.7142,7.7215,7.7215,7.7252,7.7289,7.7289,7.7289,7.7289,7.7289,7.7289,7.7289,7.7289,7.7289,7.7289,7.7289,7.7289,7.7289,7.7289,7.7289,7.7289,7.7289,7.7289,7.7289,7.7289,7.7289,7.7289,7.7289,7.7289,7.7243,7.5245,7.4291,7.4196,7.2206,7.1289,7.1289,7.1289,7.1289,7.1289,7.1289,7.1289,7.1289,7.1289,7.1289,7.1312,7.1356,7.1379,7.1379,7.1379,7.1345,7.1277,7.1244,7.1188,7.112,7.112,7.112,7.0816,6.9485,6.9518,6.9934,6.9996,7.0453,7.1015,7.1301,7.1361,7.1474,7.1812,7.1939,7.2228,7.306,7.3014,7.263,7.2017,7.2911,7.3334,7.2277,7.2879,7.3852,7.505,7.4059,7.3576,7.4265,7.3822,7.3478,7.3432,7.3466,7.3781,7.4468,7.4525,7.4864,7.5608,7.5574,7.5574,7.5608,7.5608,7.5642,7.5709,7.5709,7.5709,7.5709,7.5709,7.5709,7.5709,7.5709,7.5709,7.5709,7.5709,7.5709,7.5709,7.5709,7.5709,7.5709,7.5709,7.5709,7.5709,7.7819,7.7547,7.7289,7.7289,7.7289,7.7289,7.7289,7.7289,7.7289,7.7289,7.7289,7.7289,7.7289,7.7289,7.7289,7.7289,7.7289,7.7546,7.806,7.8112,7.7839,7.7326,7.7289,7.7289,7.7289,7.7289,7.7289,7.7289,7.7289,7.7289,7.7258,7.565,7.4938,7.4811,7.2825,7.2146,7.2454,7.1634,7.1523,7.1864,7.1491,7.1289,7.1289,7.1289,7.1289,7.1289,7.1289,7.1289,7.1289,7.1289,7.1289,7.1289,7.1289,7.1289,7.1289,7.1289,7.1289,7.1333,7.1392,7.1391,7.1593,7.2204,7.2859,7.3423,7.369,7.3722,7.3683,7.3552,7.3907,7.4224,7.4099,7.4341,7.4448,7.398,7.3751,7.3815,7.4354,7.3861,7.3788,7.4718,7.4015,7.3549,7.3856,7.4045,7.4187,7.4187,7.4593,7.4999,7.527,7.527,7.5405,7.5676,7.5709,7.5709,7.5709,7.5709,7.5709,7.5709,7.5709,7.5709,7.5709,7.5709,7.5709,7.5709,7.5709,7.5709,7.5709,7.5709,7.5709,7.5709,7.5709,7.5709,7.5709,7.5709,7.5709,7.5709,7.7599,7.7616,7.7619,7.7362,7.7289,7.7289,7.7289,7.7289,7.7289,7.7289,7.7289,7.7399,7.7693,7.7693,7.7803,7.806,7.8096,7.8332,7.8919,7.8993,7.8699,7.8096,7.8096,7.8096,7.8096,7.7839,7.7693,7.7693,7.7436,7.7289,7.7258,7.6029,7.5458,7.537,7.3582,7.2866,7.3031,7.2025,7.1766,7.1929,7.1513,7.1424,7.165,7.165,7.165,7.165,7.165,7.1492,7.1289,7.1289,7.1289,7.1289,7.1289,7.1289,7.1334,7.1546,7.1666,7.1982,7.2873,7.318,7.3402,7.4111,7.477,7.5352,7.5604,7.5624,7.5576,7.5364,7.5677,7.589,7.5582,7.5867,7.6059,7.5756,7.5084,7.4886,7.5658,7.4601,7.4025,7.478,7.4253,7.3916,7.4153,7.4661,7.4965,7.4965,7.5405,7.5709,7.5709,7.5709,7.5709,7.5709,7.5709,7.5709,7.5709,7.5709,7.5709,7.5709,7.5709,7.5709,7.5709,7.5709,7.5709,7.5709,7.5709,7.5709,7.5709,7.5709,7.5709,7.5709,7.5709,7.5709,7.5709,7.5709,7.5709,7.5709,7.8062,7.8337,7.8332,7.7472,7.7326,7.7326,7.7326,7.7326,7.7326,7.7326,7.7326,7.7656,7.8516,7.8589,7.8919,7.9743,7.9816,7.9816,7.9816,7.9816,7.9816,7.9816,7.9816,7.9816,7.9816,7.9029,7.8589,7.8589,7.7729,7.7326,7.731,7.6317,7.5823,7.5771,7.4419,7.3462,7.2811,7.2475,7.1942,7.1334,7.1345,7.1751,7.2394,7.2394,7.2394,7.2394,7.2394,7.1921,7.1289,7.1289,7.1289,7.1289,7.1312,7.1312,7.1446,7.2124,7.2533,7.2962,7.3641,7.4567,7.5317,7.5317,7.5811,7.6412,7.6721,7.6785,7.6918,7.7248,7.7061,7.7077,7.7863,7.769,7.7322,7.7034,7.6969,7.6635,7.5631,7.4921,7.4758,7.5525,7.5012,7.4897,7.5642,7.5709,7.5709,7.5709,7.5709,7.5709,7.5709,7.5709,7.5709,7.5709,7.5709,7.5709,7.5709,7.5709,7.5709,7.5709,7.5709,7.5709,7.5709,7.5709,7.5709,7.5709,7.5709,7.5709,7.5709,7.5709,7.5709,7.5709,7.5709,7.5709,7.5709,7.5709,7.5709,7.5709,7.8443,7.8021,7.7803,7.8148,7.8222,7.8405,7.8956,7.9029,7.9029,7.9029,7.9029,7.914,7.9412,7.9449,7.9559,7.9779,7.9816,8.0036,8.0608,8.1158,8.1505,8.1505,8.0404,7.9816,7.9816,7.9559,7.9449,7.9449,7.9176,7.9029,7.9029,7.8459,7.8076,7.7784,7.6615,7.6119,7.6038,7.5017,7.4761,7.499,7.4508,7.4187,7.3863,7.3316,7.3118,7.3037,7.1988,7.1819,7.209,7.209,7.209,7.2146,7.2639,7.2566,7.249,7.3174,7.3992,7.4893,7.5779,7.6661,7.7054,7.592,7.6584,7.7526,7.7608,7.8061,7.843,7.8263,7.8129,7.7909,7.7379,7.7195,7.6854,7.6076,7.5555,7.534,7.5558,7.498,7.4829,7.5576,7.5489,7.5473,7.5676,7.5709,7.5709,7.5709,7.5709,7.5709,7.5709,7.5709,7.5709,7.5709,7.5709,7.5709,7.5709,7.5709,7.5709,7.5709,7.5709,7.5709,7.5709,7.5709,7.5709,7.5709,7.5709,7.5709,7.5709,7.5709,7.5709,7.5709,7.5709,7.5709,7.5709,7.5709,7.5709,7.5709,7.9066,7.8662,7.8442,7.8993,7.9066,7.9229,7.9743,7.9816,7.9816,7.9816,7.9816,7.9926,8.0257,8.0277,8.0388,8.0734,8.0771,8.0954,8.1452,8.1929,8.2186,8.2186,8.1285,8.0771,8.0771,8.044,8.0277,8.0277,7.9963,7.9816,7.9779,7.9556,7.9344,7.9111,7.8153,7.7698,7.7512,7.6448,7.6079,7.6161,7.5442,7.5116,7.494,7.4148,7.3901,7.3815,7.2935,7.2699,7.288,7.3175,7.3456,7.3766,7.4145,7.4211,7.4275,7.4929,7.5811,7.673,7.7484,7.8124,7.8338,7.7188,7.7693,7.8446,7.828,7.861,7.8906,7.8666,7.8509,7.8189,7.7604,7.7385,7.7017,7.6162,7.5687,7.548,7.5606,7.5291,7.5202,7.5642,7.5709,7.5709,7.5709,7.5709,7.5709,7.5709,7.5709,7.5709,7.5709,7.5709,7.5709,7.5709,7.5709,7.5709,7.5709,7.5709,7.5709,7.5709,7.5709,7.5709,7.5709,7.5709,7.5709,7.5709,7.5709,7.5709,7.5709,7.5709,7.5709,7.5709,7.5709,7.5709,7.5709,7.5709,7.5709,7.5709,7.9926,7.9853,7.9816,7.989,7.9926,7.9926,8.0,8.0,8.0,8.0,8.0,8.0277,8.1048,8.1122,8.1415,8.215,8.2186,8.2186,8.2186,8.2186,8.2186,8.2186,8.2186,8.2186,8.2186,8.1489,8.1122,8.1122,8.0351,8.0,8.0,8.0,7.9968,7.9872,7.9228,7.853,7.7859,7.7173,7.6554,7.5938,7.5202,7.5288,7.5796,7.4989,7.4755,7.4788,7.4666,7.4295,7.3935,7.4653,7.5292,7.5819,7.5861,7.6105,7.6501,7.7103,7.781,7.8454,7.8792,7.9122,7.9293,7.8847,7.9056,7.9206,7.8757,7.8706,7.8724,7.8636,7.8405,7.8145,7.8079,7.7838,7.7405,7.6826,7.6702,7.645,7.5771,7.5709,7.5709,7.5709,7.5709,7.5709,7.5709,7.5709,7.5709,7.5709,7.5709,7.5709,7.5709,7.5709,7.5709,7.5709,7.5709,7.5709,7.5709,7.5709,7.5709,7.5709,7.5709,7.5709,7.5709,7.5709,7.5709,7.5709,7.5709,7.5709,7.5709,7.5709,7.5709,7.5709,7.5709,7.5709,7.5709,7.5709,7.5709,7.5709,8.0755,8.0241,8.0,8.0645,8.0755,8.0938,8.1562,8.1689,8.1689,8.1689,8.1689,8.1746,8.1929,8.1929,8.2003,8.2186,8.2186,8.2186,8.2186,8.2186,8.2186,8.2186,8.2186,8.2186,8.2186,8.2039,8.1929,8.1929,8.1746,8.1689,8.1689,8.1689,8.134,8.0722,8.0565,8.0117,7.9422,7.9248,7.9092,7.8915,7.8233,7.7684,7.7194,7.5934,7.5812,7.62,7.5311,7.5638,7.6538,7.6944,7.7208,7.7408,7.7915,7.7944,7.7883,7.854,7.9323,7.9951,8.0021,8.0321,8.0548,8.0171,8.0134,8.0045,7.9305,7.9647,7.9857,7.9017,7.878,7.8392,7.7307,7.7034,7.6768,7.6043,7.5947,7.5865,7.5733,7.5709,7.5709,7.5709,7.5709,7.5709,7.5709,7.5709,7.5709,7.5709,7.5709,7.5709,7.5709,7.5709,7.5709,7.5709,7.5709,7.5709,7.5709,7.5709,7.5709,7.5709,7.5709,7.5709,7.5709,7.5709,7.5709,7.5709,7.5709,7.5709,7.5709,7.5709,7.5709,7.5709,7.5709,7.5709,7.5709,7.5709,7.5709,7.5709,8.1489,8.0901,8.0608,8.1415,8.1562,8.1709,8.215,8.2186,8.2186,8.2186,8.2186,8.2186,8.2186,8.2186,8.2186,8.2186,8.2186,8.2186,8.2186,8.2186,8.2186,8.2186,8.2186,8.2186,8.2186,8.2186,8.2186,8.2186,8.2186,8.2186,8.2186,8.1985,8.17,8.1285,8.0912,8.0546,8.0169,7.9977,7.9724,7.9411,7.92,7.8718,7.8006,7.7459,7.75,7.7765,7.7167,7.7681,7.8595,7.8775,7.9046,7.9385,7.9754,7.9828,7.9854,8.0013,8.0495,8.091,8.0546,8.0605,8.0676,8.032,8.0207,8.0099,7.9669,7.9655,7.959,7.9028,7.8622,7.806,7.6997,7.6793,7.6542,7.5828,7.5709,7.5709,7.5709,7.5709,7.5709,7.5709,7.5709,7.5709,7.5709,7.5709,7.5709,7.5709,7.5709,7.5709,7.5709,7.5709,7.5709,7.5709,7.5709,7.5709,7.5709,7.5709,7.5709,7.5709,7.5709,7.5709,7.5709,7.5709,7.5709,7.5709,7.5709,7.5709,7.5709,7.5709,7.5709,7.5709,7.5709,7.5709,7.5709,7.5709,7.5709,7.5709,8.2076,8.1672,8.1415,8.2076,8.2186,8.2186,8.2186,8.2186,8.2186,8.2186,8.2186,8.2186,8.2186,8.2186,8.2186,8.2186,8.2186,8.2186,8.2186,8.2186,8.2186,8.2186,8.2186,8.2186,8.2186,8.2186,8.2186,8.2186,8.2186,8.2154,8.2088,8.1768,8.151,8.1408,8.0767,8.0452,8.0377,8.0035,7.9645,7.9175,7.9345,7.9094,7.8694,7.8903,7.9063,7.9163,7.9242,7.9746,8.0384,8.0384,8.075,8.1178,8.1108,8.1337,8.151,8.1108,8.1197,8.1286,8.0675,8.0452,8.0283,7.9841,7.9743,7.9704,7.957,7.9211,7.8829,7.8581,7.806,7.7396,7.6748,7.6611,7.6403,7.5805,7.5709,7.5709,7.5709,7.5709,7.5709,7.5709,7.5709,7.5709,7.5709,7.5709,7.5709,7.5709,7.5709,7.5709,7.5709,7.5709,7.5709,7.5709,7.5709,7.5709,7.5709,7.5709,7.5709,7.5709,7.5709,7.5709,7.5709,7.5709,7.5709,7.5709,7.5709,7.5709,7.5709,7.5709,7.5709,7.5709,7.5709,7.5709,7.5709,7.5709,7.5709,7.5709,8.2186,8.2113,8.2076,8.2186,8.2186,8.2186,8.2186,8.2186,8.2186,8.2186,8.2186,8.2186,8.2186,8.2186,8.2186,8.2186,8.2186,8.2186,8.2186,8.2186,8.2186,8.2186,8.2186,8.2186,8.2186,8.2186,8.2186,8.2186,8.2186,8.2038,8.17,8.1649,8.1269,8.0656,8.0545,8.0302,7.9977,7.9919,8.0054,8.0228,7.964,7.953,7.9724,7.9218,7.9376,7.9916,8.0255,8.1054,8.1902,8.1902,8.1952,8.2005,8.1613,8.1544,8.151,8.1108,8.0822,8.0638,8.0527,8.0245,7.9841,7.9191,7.9049,7.887,7.8217,7.8504,7.856,7.7355,7.702,7.6725,7.596,7.5876,7.5828,7.5733,7.5709,7.5709,7.5709,7.5709,7.5709,7.5709,7.5709,7.5709,7.5709,7.5709,7.5709,7.5709,7.5709,7.5709,7.5709,7.5709,7.5709,7.5709,7.5709,7.5709,7.5709,7.5709,7.5709,7.5709,7.5709,7.5709,7.5709,7.5709,7.5709,7.5709,7.5709,7.5709,7.5709,7.5709,7.5709,7.5709,7.5709,7.5709,7.5709,7.5709,7.5709,7.5709,8.2186,8.2186,8.2186,8.2186,8.2186,8.2186,8.2186,8.2186,8.2186,8.2186,8.2186,8.2186,8.2186,8.2186,8.2186,8.2186,8.2186,8.2186,8.2186,8.2186,8.2186,8.2186,8.2186,8.2186,8.2186,8.2186,8.2186,8.2186,8.2186,8.1969,8.1579,8.1372,8.0984,8.0489,8.0264,8.0188,8.0226,8.0226,8.0228,8.025,8.0512,8.0495,8.0348,8.0659,8.0964,8.1266,8.1422,8.1782,8.217,8.1919,8.1869,8.1802,8.1389,8.1248,8.1197,8.0804,8.0602,8.0452,8.0226,7.9747,7.9271,7.8952,7.8602,7.8103,7.7409,7.7475,7.7575,7.6929,7.6473,7.6077,7.5781,7.5709,7.5709,7.5709,7.5709,7.5709,7.5709,7.5709,7.5709,7.5709,7.5709,7.5709,7.5709,7.5709,7.5709,7.5709,7.5709,7.5709,7.5709,7.5709,7.5709,7.5709,7.5709,7.5709,7.5709,7.5709,7.5709,7.5709,7.5709,7.5709,7.5709,7.5709,7.5709,7.5709,7.5709,7.5709,7.5709,7.5709,7.5709,7.5709,7.5709,7.5709,7.5709,7.5709,7.5709,7.5709]}]]